[[{"header":{"parameterUnit":"m.s-1","parameterCategory":1,"la1":30.6,"la2":28.766,"lo1":-90.7593,"lo2":-88.6598,"dy":0.0162,"dx":0.0183,"nx":116,"ny":114,"refTime":"2024-06-03T06:00:00:Z","depth":0,"parameterNumber":2,"parameterNumberName":"U-component_of_WINDS"},"data":[0.0,0.0,0.0,0.0,0.0,0.0,0.0,0.0,0.0,0.0,0.0,0.0,0.0,0.0,0.0,0.0,0.0,0.0,0.0,0.0,0.0,0.0,0.0,0.0,0.0,0.0,0.0,0.0,0.0,0.0,0.0,0.0,0.0,0.0,0.0,0.0,0.0,0.0,0.0,0.0,0.0,0.0,0.0,0.0,0.0,0.0,0.0,0.0,0.0,0.0,0.0,0.0,0.0,0.0,0.0,0.0,0.0,0.0,0.0,0.0,0.0,0.0,0.0,0.0,0.0,0.0,0.0,0.0,0.0,0.0,0.0,0.0,0.0,0.0,0.0,0.0,0.0,0.0,0.0,0.0,0.0,0.0,0.0,0.0,0.0,0.0,0.0,0.0,0.0,0.0,0.0,0.0,0.0,0.0,0.0,0.0,0.0,0.0,0.0,0.0,0.0,0.0,0.0,0.0,0.0,0.0,0.0,0.0,0.0,0.0,0.0,0.0,0.0,0.0,0.0,0.0,0.0,0.0,0.0,0.0,0.0,0.0,0.0,0.0,0.0,0.0,0.0,0.0,0.0,0.0,0.0,0.0,0.0,0.0,0.0,0.0,0.0,0.0,0.0,0.0,0.0,0.0,0.0,0.0,0.0,0.0,0.0,0.0,0.0,0.0,0.0,0.0,0.0,0.0,0.0,0.0,0.0,0.0,0.0,0.0,0.0,0.0,0.0,0.0,0.0,0.0,0.0,0.0,0.0,0.0,0.0,0.0,0.0,0.0,0.0,0.0,0.0,0.0,0.0,0.0,0.0,0.0,0.0,0.0,0.0,0.0,0.0,0.0,0.0,0.0,0.0,0.0,0.0,0.0,0.0,0.0,0.0,0.0,0.0,0.0,0.0,0.0,0.0,0.0,0.0,0.0,0.0,0.0,0.0,0.0,0.0,0.0,0.0,0.0,0.0,0.0,0.0,0.0,0.0,0.0,0.0,0.0,0.0,0.0,0.0,0.0,0.0,0.0,0.0,0.0,0.0,0.0,0.0,0.0,0.0,0.0,0.0,0.0,0.0,0.0,0.0,0.0,0.0,0.0,0.0,0.0,0.0,0.0,0.0,0.0,0.0,0.0,0.0,0.0,0.0,0.0,0.0,0.0,0.0,0.0,0.0,0.0,0.0,0.0,0.0,0.0,0.0,0.0,0.0,0.0,0.0,0.0,0.0,0.0,0.0,0.0,0.0,0.0,0.0,0.0,0.0,0.0,0.0,0.0,0.0,0.0,0.0,0.0,0.0,0.0,0.0,0.0,0.0,0.0,0.0,0.0,0.0,0.0,0.0,0.0,0.0,0.0,0.0,0.0,0.0,0.0,0.0,0.0,0.0,0.0,0.0,0.0,0.0,0.0,0.0,0.0,0.0,0.0,0.0,0.0,0.0,0.0,0.0,0.0,0.0,0.0,0.0,0.0,0.0,0.0,0.0,0.0,0.0,0.0,0.0,0.0,0.0,0.0,0.0,0.0,0.0,0.0,0.0,0.0,0.0,0.0,0.0,0.0,0.0,0.0,0.0,0.0,0.0,0.0,0.0,0.0,0.0,0.0,0.0,0.0,0.0,0.0,0.0,0.0,0.0,0.0,0.0,0.0,0.0,0.0,0.0,0.0,0.0,0.0,0.0,0.0,0.0,0.0,0.0,0.0,0.0,0.0,0.0,0.0,0.0,0.0,0.0,0.0,0.0,0.0,0.0,0.0,0.0,0.0,0.0,0.0,0.0,0.0,0.0,0.0,0.0,0.0,0.0,0.0,0.0,0.0,0.0,0.0,0.0,0.0,0.0,0.0,0.0,0.0,0.0,0.0,0.0,0.0,0.0,0.0,0.0,0.0,0.0,0.0,0.0,0.0,0.0,0.0,0.0,0.0,0.0,0.0,0.0,0.0,0.0,0.0,0.0,0.0,0.0,0.0,0.0,0.0,0.0,0.0,0.0,0.0,0.0,0.0,0.0,0.0,0.0,0.0,0.0,0.0,0.0,0.0,0.0,0.0,0.0,0.0,0.0,0.0,0.0,0.0,0.0,0.0,0.0,0.0,0.0,0.0,0.0,0.0,0.0,0.0,0.0,0.0,0.0,0.0,0.0,0.0,0.0,0.0,0.0,0.0,0.0,0.0,0.0,0.0,0.0,0.0,0.0,0.0,0.0,0.0,0.0,0.0,0.0,0.0,0.0,0.0,0.0,0.0,0.0,0.0,0.0,0.0,0.0,0.0,0.0,0.0,0.0,0.0,0.0,0.0,0.0,0.0,0.0,0.0,0.0,0.0,0.0,0.0,0.0,0.0,0.0,0.0,0.0,0.0,0.0,0.0,0.0,0.0,0.0,0.0,0.0,0.0,0.0,0.0,0.0,0.0,0.0,0.0,0.0,0.0,0.0,0.0,0.0,0.0,0.0,0.0,0.0,0.0,0.0,0.0,0.0,0.0,0.0,0.0,0.0,0.0,0.0,0.0,0.0,0.0,0.0,0.0,0.0,0.0,0.0,0.0,0.0,0.0,0.0,0.0,0.0,0.0,0.0,0.0,0.0,0.0,0.0,0.0,0.0,0.0,0.0,0.0,0.0,0.0,0.0,0.0,0.0,0.0,0.0,0.0,0.0,0.0,0.0,0.0,0.0,0.0,0.0,0.0,0.0,0.0,0.0,0.0,0.0,0.0,0.0,0.0,0.0,0.0,0.0,0.0,0.0,0.0,0.0,0.0,0.0,0.0,0.0,0.0,0.0,0.0,0.0,0.0,0.0,0.0,0.0,0.0,0.0,0.0,0.0,0.0,0.0,0.0,0.0,0.0,0.0,0.0,0.0,0.0,0.0,0.0,0.0,0.0,0.0,0.0,0.0,0.0,0.0,0.0,0.0,0.0,0.0,0.0,0.0,0.0,0.0,0.0,0.0,0.0,0.0,0.0,0.0,0.0,0.0,0.0,0.0,0.0,0.0,0.0,0.0,0.0,0.0,0.0,0.0,0.0,0.0,0.0,0.0,0.0,0.0,0.0,0.0,0.0,0.0,0.0,0.0,0.0,0.0,0.0,0.0,0.0,0.0,0.0,0.0,0.0,0.0,0.0,0.0,0.0,0.0,0.0,0.0,0.0,0.0,0.0,0.0,0.0,0.0,0.0,0.0,0.0,0.0,0.0,0.0,0.0,0.0,0.0,0.0,0.0,0.0,0.0,0.0,0.0,0.0,0.0,0.0,0.0,0.0,0.0,0.0,0.0,0.0,0.0,0.0,0.0,0.0,0.0,0.0,0.0,0.0,0.0,0.0,0.0,0.0,0.0,0.0,0.0,0.0,0.0,0.0,0.0,0.0,0.0,0.0,0.0,0.0,0.0,0.0,0.0,0.0,0.0,0.0,0.0,0.0,0.0,0.0,0.0,0.0,0.0,0.0,0.0,0.0,0.0,0.0,0.0,0.0,0.0,0.0,0.0,0.0,0.0,0.0,0.0,0.0,0.0,0.0,0.0,0.0,0.0,0.0,0.0,0.0,0.0,0.0,0.0,0.0,0.0,0.0,0.0,0.0,0.0,0.0,0.0,0.0,0.0,0.0,0.0,0.0,0.0,0.0,0.0,0.0,0.0,0.0,0.0,0.0,0.0,0.0,0.0,0.0,0.0,0.0,0.0,0.0,0.0,0.0,0.0,0.0,0.0,0.0,0.0,0.0,0.0,0.0,0.0,0.0,0.0,0.0,0.0,0.0,0.0,0.0,0.0,0.0,0.0,0.0,0.0,0.0,0.0,0.0,0.0,0.0,0.0,0.0,0.0,0.0,0.0,0.0,0.0,0.0,0.0,0.0,0.0,0.0,0.0,0.0,0.0,0.0,0.0,0.0,0.0,0.0,0.0,0.0,0.0,0.0,0.0,0.0,0.0,0.0,0.0,0.0,0.0,0.0,0.0,0.0,0.0,0.0,0.0,0.0,0.0,0.0,0.0,0.0,0.0,0.0,0.0,0.0,0.0,0.0,0.0,0.0,0.0,0.0,0.0,0.0,0.0,0.0,0.0,0.0,0.0,0.0,0.0,0.0,0.0,0.0,0.0,0.0,0.0,0.0,0.0,0.0,0.0,0.0,0.0,0.0,0.0,0.0,0.0,0.0,0.0,0.0,0.0,0.0,0.0,0.0,0.0,0.0,0.0,0.0,0.0,0.0,0.0,0.0,0.0,0.0,0.0,0.0,0.0,0.0,0.0,0.0,0.0,0.0,0.0,0.0,0.0,0.0,0.0,0.0,0.0,0.0,0.0,0.0,0.0,0.0,0.0,0.0,0.0,0.0,0.0,0.0,0.0,0.0,0.0,0.0,0.0,0.0,0.0,0.0,0.0,0.0,0.0,0.0,0.0,0.0,0.0,0.0,0.0,0.0,0.0,0.0,0.0,0.0,0.0,0.0,0.0,0.0,0.0,0.0,0.0,0.0,0.0,0.0,0.0,0.0,0.0,0.0,0.0,0.0,0.0,0.0,0.0,0.0,0.0,0.0,0.0,0.0,0.0,0.0,0.0,0.0,0.0,0.0,0.0,0.0,0.0,0.0,0.0,0.0,0.0,0.0,0.0,0.0,0.0,0.0,0.0,0.0,0.0,0.0,0.0,0.0,0.0,0.0,0.0,0.0,0.0,0.0,0.0,0.0,0.0,0.0,0.0,0.0,0.0,0.0,0.0,0.0,0.0,0.0,0.0,0.0,0.0,0.0,0.0,0.0,0.0,0.0,0.0,0.0,0.0,0.0,0.0,0.0,0.0,0.0,0.0,0.0,0.0,0.0,0.0,0.0,0.0,0.0,0.0,0.0,0.0,0.0,0.0,0.0,0.0,0.0,0.0,0.0,0.0,0.0,0.0,0.0,0.0,0.0,0.0,0.0,0.0,0.0,0.0,0.0,0.0,0.0,0.0,0.0,0.0,0.0,0.0,0.0,0.0,0.0,0.0,0.0,0.0,0.0,0.0,0.0,0.0,0.0,0.0,0.0,0.0,0.0,0.0,0.0,0.0,0.0,0.0,0.0,0.0,0.0,0.0,0.0,0.0,0.0,0.0,0.0,0.0,0.0,0.0,0.0,0.0,0.0,0.0,0.0,0.0,0.0,0.0,0.0,0.0,0.0,0.0,0.0,0.0,0.0,0.0,0.0,0.0,0.0,0.0,0.0,0.0,0.0,0.0,0.0,0.0,0.0,0.0,0.0,0.0,0.0,0.0,0.0,0.0,0.0,0.0,0.0,0.0,0.0,0.0,0.0,0.0,0.0,0.0,0.0,0.0,0.0,0.0,0.0,0.0,0.0,0.0,0.0,0.0,0.0,0.0,0.0,0.0,0.0,0.0,0.0,0.0,0.0,0.0,0.0,0.0,0.0,0.0,0.0,0.0,0.0,0.0,0.0,0.0,0.0,0.0,0.0,0.0,0.0,0.0,0.0,0.0,0.0,0.0,0.0,0.0,0.0,0.0,0.0,0.0,0.0,0.0,0.0,0.0,0.0,0.0,0.0,0.0,0.0,0.0,0.0,0.0,0.0,0.0,0.0,0.0,0.0,0.0,0.0,0.0,0.0,0.0,0.0,0.0,0.0,0.0,0.0,0.0,0.0,0.0,0.0,0.0,0.0,0.0,0.0,0.0,0.0,0.0,0.0,0.0,0.0,0.0,0.0,0.0,0.0,0.0,0.0,0.0,0.0,0.0,0.0,0.0,0.0,0.0,0.0,0.0,0.0,0.0,0.0,0.0,0.0,0.0,0.0,0.0,0.0,0.0,0.0,0.0,0.0,0.0,0.0,0.0,0.0,0.0,0.0,0.0,0.0,0.0,0.0,0.0,0.0,0.0,0.0,0.0,0.0,0.0,0.0,0.0,0.0,0.0,0.0,0.0,0.0,0.0,0.0,0.0,0.0,0.0,0.0,0.0,0.0,0.0,0.0,0.0,0.0,0.0,0.0,0.0,0.0,0.0,0.0,0.0,0.0,0.0,0.0,0.0,0.0,0.0,0.0,0.0,0.0,0.0,0.0,0.0,0.0,0.0,0.0,0.0,0.0,0.0,0.0,0.0,0.0,0.0,0.0,0.0,0.0,0.0,0.0,0.0,0.0,0.0,1.4384,1.4232,0.0,0.0,0.0,0.0,0.0,0.0,0.0,0.0,0.0,0.0,0.0,0.0,0.0,0.0,0.0,0.0,0.0,0.0,0.0,0.0,0.0,0.0,0.0,0.973,1.0026,1.0365,1.0908,1.1266,1.1343,0.0,0.0,0.0,0.0,0.0,1.1099,1.0834,1.0942,1.1471,1.1207,1.1471,1.2263,1.2239,1.1808,1.1099,0.0,0.0,0.0,0.0,0.0,0.0,0.0,0.0,0.0,0.0,0.0,0.0,0.0,0.0,0.0,0.0,0.0,0.0,0.0,0.0,0.0,0.0,0.0,0.0,0.0,0.0,0.0,0.0,0.0,0.0,0.0,0.0,0.0,0.0,0.0,0.0,0.0,0.0,0.0,0.0,0.0,0.0,0.0,0.0,0.0,0.0,0.0,0.0,0.0,0.0,0.0,0.0,0.0,0.0,0.0,0.0,0.0,0.0,0.0,0.0,0.0,0.0,0.0,0.0,0.0,0.0,0.0,0.0,0.0,0.0,1.5094,1.4678,0.0,0.0,0.0,0.0,0.0,0.0,0.0,0.0,0.0,0.0,0.0,0.0,0.0,0.0,0.0,0.0,0.0,0.0,0.0,0.0,0.0,0.944,0.9758,1.0025,1.0332,1.0752,1.1382,1.1776,1.1776,1.1912,0.0,0.0,0.0,1.1375,1.1375,1.1375,1.1628,1.2191,1.2253,1.2782,1.365,1.4084,1.336,1.1652,1.1652,0.0,0.0,0.0,0.0,0.0,0.0,0.0,0.0,0.0,0.0,0.0,0.0,0.0,0.0,0.0,0.0,0.0,0.0,0.0,0.0,0.0,0.0,0.0,0.0,0.0,0.0,0.0,0.0,0.0,0.0,0.0,0.0,0.0,0.0,0.0,0.0,0.0,0.0,0.0,0.0,0.0,0.0,0.0,0.0,0.0,0.0,0.0,0.0,0.0,0.0,0.0,0.0,0.0,0.0,0.0,0.0,0.0,0.0,0.0,0.0,0.0,0.0,0.0,1.6403,1.6525,1.6895,1.6895,1.6665,1.6287,1.5928,1.529,1.446,1.4914,0.0,0.0,0.0,0.0,0.0,0.0,0.0,0.0,0.0,0.0,0.0,0.0,0.0,0.0,0.0,0.0,0.0,0.0,0.0,0.9735,0.9804,1.0703,1.1337,1.1462,1.2035,1.2448,1.2531,1.2483,0.0,0.0,1.2424,1.2376,1.2504,1.2504,1.2758,1.3288,1.3758,1.4048,1.4192,1.4265,1.4144,1.3867,1.3867,1.3867,1.3819,0.0,0.0,0.0,0.0,0.0,0.0,0.0,0.0,0.0,0.0,0.0,0.0,0.0,0.0,0.0,0.0,0.0,0.0,0.0,0.0,0.0,0.0,0.0,0.0,0.0,0.0,0.0,0.0,0.0,0.0,0.0,0.0,0.0,0.0,0.0,0.0,0.0,0.0,0.0,0.0,0.0,1.5025,1.5624,0.0,0.0,0.0,0.0,0.0,0.0,0.0,0.0,0.0,0.0,0.0,0.0,0.0,1.6375,1.6729,1.6691,1.6688,1.676,1.6698,1.6681,1.674,1.674,1.6678,1.6615,1.656,0.0,1.5344,1.5399,0.0,0.0,0.0,0.0,0.0,0.0,0.0,0.0,0.0,0.0,0.0,0.0,0.0,0.0,0.0,0.0,0.0,0.0,0.0,0.0,0.0,1.0927,1.1514,1.1862,1.2153,1.2354,1.2437,1.2437,1.2484,1.2591,1.2544,1.2651,1.3009,1.3119,1.3553,1.4357,1.4624,1.4872,1.5139,1.5139,1.5139,1.5139,1.5139,1.4814,1.4265,1.3795,0.0,0.0,0.0,0.0,0.0,0.0,0.0,0.0,0.0,0.0,0.0,0.0,0.0,0.0,0.0,0.0,0.0,0.0,0.0,0.0,0.0,0.0,0.0,0.0,0.0,0.0,0.0,0.0,0.0,0.0,0.0,0.0,0.0,0.0,0.0,0.0,0.0,0.0,0.0,1.5079,1.5864,1.5804,1.6056,1.6116,0.0,0.0,0.0,0.0,0.0,0.0,0.0,0.0,0.0,1.6602,1.6838,1.7026,1.7175,1.7369,1.7581,1.783,1.7772,1.793,1.8164,1.8164,1.8164,1.8164,1.8164,1.7829,1.7173,1.6247,1.5572,1.5216,0.0,0.0,0.0,0.0,1.5773,1.5972,0.0,0.0,0.0,0.0,0.0,0.0,0.0,0.0,0.0,0.0,0.0,0.0,1.0734,1.1228,1.1699,1.2079,1.221,1.2246,1.2246,1.233,1.2401,1.2473,1.2425,1.2685,1.3241,1.3617,1.4241,1.5162,1.5248,1.5424,1.5792,1.5792,1.5792,1.5792,1.5792,1.5392,1.4687,1.4554,1.4009,0.0,0.0,0.0,0.0,0.0,0.0,0.0,0.0,0.0,0.0,0.0,0.0,0.0,0.0,0.0,0.0,0.0,0.0,0.0,0.0,0.0,0.0,0.0,0.0,0.0,0.0,0.0,0.0,0.0,0.0,0.0,0.0,0.0,0.0,0.0,0.0,0.0,0.0,1.58,1.6428,1.6044,1.6359,1.6373,0.0,0.0,0.0,0.0,0.0,0.0,1.6605,1.6889,1.7092,1.7234,1.7607,1.7815,1.7861,1.8184,1.8496,1.8799,1.8799,1.8975,1.9287,1.9287,1.9287,1.9287,1.9287,1.9102,1.8691,1.7295,1.6406,1.5908,1.5791,1.6049,1.6475,1.6242,1.6374,1.6678,0.0,0.0,0.0,0.0,0.0,0.0,0.0,0.0,0.0,0.0,0.0,1.0745,1.1205,1.1803,1.2187,1.2198,1.233,1.2377,1.2377,1.2282,1.2258,1.2413,1.2282,1.2502,1.3103,1.4117,1.4979,1.5668,1.5659,1.5703,1.5792,1.5792,1.5792,1.5792,1.5792,1.5768,1.5684,1.5181,1.4941,1.4797,0.0,0.0,0.0,0.0,0.0,0.0,0.0,0.0,0.0,0.0,0.0,0.0,0.0,0.0,0.0,0.0,0.0,0.0,0.0,0.0,0.0,0.0,0.0,0.0,0.0,0.0,0.0,0.0,0.0,0.0,0.0,0.0,0.0,0.0,0.0,0.0,0.0,0.0,0.0,1.6536,1.6547,0.0,0.0,0.0,0.0,1.6267,1.6611,1.7069,1.7451,1.7451,1.7799,1.8467,1.8525,1.875,1.9189,1.9209,1.9238,1.9248,1.9248,1.9268,1.9287,1.9287,1.9287,1.9287,1.9287,1.9277,1.9219,1.8711,1.8027,1.7246,1.6826,1.6914,1.7252,1.64,1.688,1.7764,0.0,0.0,0.0,0.0,0.0,0.9092,0.9092,0.9356,0.9609,0.9781,1.0539,1.1091,1.1263,1.1802,1.2138,1.2138,1.2186,1.2222,1.2222,1.2138,1.2336,1.2759,1.2733,1.3155,1.4129,1.4444,1.4936,1.5558,1.5232,1.5232,1.5603,1.5703,1.557,1.5232,1.5334,1.5142,1.4846,1.5002,1.4693,1.4068,1.3707,1.3419,0.0,0.0,0.0,0.0,0.0,0.0,0.0,0.0,0.0,0.0,0.0,0.0,0.0,0.0,0.0,0.0,0.0,0.0,0.0,0.0,0.0,0.0,0.0,0.0,0.0,0.0,0.0,0.0,0.0,0.0,0.0,0.0,0.0,0.0,0.0,0.0,0.0,1.7676,1.7816,0.0,1.7242,1.6861,1.6748,1.7071,1.742,1.778,1.819,1.8497,1.8794,1.9043,1.9316,1.9531,1.9687,1.9971,2.0117,2.0117,2.0117,2.0117,2.0117,2.0117,2.0117,2.0117,2.0117,2.0117,2.0098,1.9941,1.9375,1.8594,1.8437,1.8477,1.8574,1.8252,1.8437,1.8789,0.0,0.0,0.0,0.0,0.9092,0.9092,0.9092,0.9494,0.9873,1.0057,1.0803,1.1354,1.1561,1.187,1.2113,1.2113,1.2113,1.2113,1.2113,1.2275,1.2539,1.2962,1.327,1.3807,1.4565,1.4721,1.4983,1.5435,1.5096,1.5096,1.5513,1.5614,1.5563,1.5395,1.5487,1.5394,1.5107,1.5092,1.4606,1.3847,1.3847,1.3729,1.3496,0.0,0.0,0.0,0.0,0.0,0.0,0.0,0.0,0.0,0.0,0.0,0.0,0.0,0.0,0.0,0.0,0.0,0.0,0.0,0.0,0.0,0.0,0.0,0.0,0.0,0.0,0.0,0.0,0.0,0.0,0.0,0.0,0.0,0.0,1.8109,1.8927,1.8758,1.8871,1.8767,1.8215,1.7704,1.7543,1.7865,1.8231,1.8623,1.9043,1.9346,1.957,1.9707,1.999,2.0137,2.0137,2.042,2.0566,2.0566,2.0566,2.0566,2.0566,2.0566,2.0566,2.0566,2.0566,2.0566,2.0566,2.0566,2.0225,1.9707,1.9561,1.959,1.9678,1.9394,1.9473,1.9697,0.0,0.0,0.0,0.9092,0.9092,0.9092,0.9092,0.9506,1.0011,1.0539,1.1032,1.1526,1.2056,1.2113,1.2113,1.2113,1.2113,1.2113,1.2136,1.262,1.2931,1.2954,1.388,1.4408,1.4408,1.4867,1.5165,1.5312,1.5312,1.5357,1.5492,1.5537,1.5808,1.6397,1.6385,1.6478,1.6577,1.5537,1.4762,1.4291,1.4269,1.3987,1.3596,0.0,0.0,0.0,0.0,0.0,0.0,0.0,0.0,0.0,0.0,0.0,0.0,0.0,0.0,0.0,0.0,0.0,0.0,0.0,0.0,0.0,0.0,0.0,0.0,0.0,0.0,0.0,0.0,0.0,0.0,0.0,0.0,0.0,1.8881,1.8982,1.921,1.9725,1.9516,1.913,1.8624,1.8583,1.8662,1.8601,1.9072,1.9492,1.9912,1.9932,2.0127,2.0557,2.0566,2.0566,2.0566,2.0566,2.0566,2.0566,2.0566,2.0566,2.0566,2.0566,2.0566,2.0566,2.0566,2.0566,2.0566,2.0566,2.0566,2.0518,2.0098,2.0195,2.0469,1.9639,1.9853,2.0508,0.0,0.0,0.9092,0.9092,0.9092,0.9092,0.9092,0.9827,1.0435,1.0585,1.1342,1.1928,1.209,1.2113,1.2113,1.2113,1.2113,1.2275,1.2666,1.2827,1.3242,1.3948,1.458,1.4913,1.4913,1.5039,1.5108,1.5153,1.5153,1.536,1.5776,1.5916,1.603,1.618,1.5786,1.5448,1.5112,1.4373,1.4001,1.3834,1.3451,1.3406,1.3621,0.0,0.0,0.0,0.0,0.0,0.0,0.0,0.0,0.0,0.0,0.0,0.0,0.0,0.0,0.0,0.0,0.0,0.0,0.0,0.0,0.0,0.0,0.0,0.0,0.0,0.0,0.0,0.0,0.0,0.0,0.0,1.7126,1.7545,1.817,1.8827,1.9387,1.9805,1.9716,1.964,1.9771,1.9374,1.9238,1.9541,1.9668,1.9932,2.0361,2.0391,2.0439,2.0634,2.0566,2.0566,2.0566,2.0566,2.0566,2.0566,2.0566,2.0566,2.0566,2.0566,2.0566,2.0566,2.0566,2.0566,2.0566,2.0566,2.0566,2.0557,2.0439,2.0459,2.0537,2.0303,2.0361,2.0547,0.0,0.8555,0.9092,0.9092,0.9092,0.9092,0.9092,0.9953,1.0608,1.0608,1.1469,1.2113,1.2113,1.2113,1.2113,1.2113,1.2321,1.2574,1.2896,1.3311,1.3868,1.466,1.4959,1.5108,1.5108,1.5108,1.5108,1.5108,1.5337,1.5602,1.5911,1.6203,1.6463,1.6701,1.641,1.6155,1.5849,1.507,1.4567,1.4247,1.3536,1.3351,1.3451,1.3367,1.3621,1.3993,1.369,1.3731,1.3837,1.3303,0.0,0.0,0.0,0.0,0.0,0.0,0.0,0.0,0.0,0.0,0.0,0.0,0.0,0.0,0.0,0.0,0.0,0.0,0.0,0.0,0.0,0.0,0.0,0.0,1.8476,1.8652,1.877,1.9208,1.9727,2.0194,2.0239,2.0329,2.0586,2.0142,1.9922,2.0166,2.0361,2.0576,2.083,2.1025,2.1113,2.1113,2.1113,2.1035,2.085,2.084,2.0752,2.0566,2.0566,2.0566,2.0566,2.0566,2.0566,2.0566,2.0566,2.0566,2.0566,2.0566,2.0566,2.0566,0.0,0.0,0.0,0.0,2.0566,2.0566,0.0,0.874,0.9092,0.9092,0.9092,0.9092,0.9092,0.9953,1.0608,1.0608,1.1469,1.2113,1.2113,1.2113,1.2113,1.2113,1.2597,1.2965,1.3081,1.3937,1.466,1.5085,1.5108,1.5108,1.5108,1.5108,1.5142,1.52,1.567,1.5957,1.6084,1.6508,1.7042,1.7641,1.7525,1.7489,1.7468,1.6482,1.5701,1.5129,1.4286,1.37,1.332,1.3006,1.3183,1.3539,1.3488,1.3789,1.41,1.3656,0.0,0.0,0.0,0.0,0.0,0.0,0.0,0.0,0.0,0.0,0.0,0.0,0.0,0.0,0.0,0.0,0.0,0.0,0.0,0.0,0.0,0.0,0.0,0.0,2.0011,2.0248,1.9833,1.9831,2.0023,2.0576,2.0801,2.0956,2.0933,2.0715,2.0586,2.0635,2.1006,2.126,2.1309,2.167,0.0,0.0,0.0,2.1699,2.1309,2.1309,2.1113,2.0713,2.0713,2.0713,2.0713,2.0713,2.0713,2.0713,2.0713,2.0713,2.0713,2.0664,2.0605,2.0566,2.0566,2.0566,2.0566,2.0566,2.0566,2.0566,0.0,0.874,0.9092,0.9092,0.9092,0.9092,0.9092,0.9953,1.0608,1.0608,1.1469,1.2113,1.2113,1.2113,1.2113,1.2113,1.2597,1.3253,0.0,0.0,1.5005,1.5108,1.5108,1.5108,1.5108,1.5108,1.5315,1.5751,1.5831,1.6339,1.7094,1.7186,1.7507,1.7935,1.6971,1.6567,1.6528,1.582,1.5456,1.5359,1.5436,1.473,1.3559,1.3185,1.3125,1.3169,1.2841,1.2987,1.3351,1.3004,1.3392,1.4071,1.4146,0.0,0.0,0.0,0.0,0.0,0.0,0.0,0.0,0.0,0.0,0.0,0.0,0.0,0.0,0.0,0.0,0.0,0.0,0.0,0.0,1.7811,1.8031,1.8291,1.9078,1.9326,1.957,2.0008,2.0538,2.0707,2.0477,2.0362,2.0478,2.0816,2.1092,2.1387,2.1738,2.1836,2.1885,2.1885,2.1885,2.1846,2.1768,2.1758,2.1719,2.1631,2.1631,0.0,2.1631,2.1631,2.1631,2.1631,2.1631,2.1631,2.1602,2.125,2.0889,2.0566,2.0566,2.0566,2.0566,2.0566,2.0566,2.0566,0.8633,0.8909,0.9092,0.9092,0.9092,0.9092,0.9092,0.9953,1.0608,1.0608,1.1469,1.2113,1.2113,1.2113,1.2113,1.2113,1.2827,0.0,0.0,1.497,1.5108,1.5108,1.5108,1.5108,1.5108,1.5372,1.5624,1.5889,1.642,1.6926,1.7381,1.7645,1.7898,1.8084,1.7457,1.7045,1.6754,1.6415,1.614,1.5843,1.6017,1.5679,1.4919,1.4465,1.4317,1.4286,1.4064,1.399,1.3941,1.3756,1.3893,1.4165,1.4433,1.4663,1.4994,0.0,0.0,0.0,0.0,0.0,0.0,0.0,0.0,0.0,0.0,0.0,0.0,0.0,0.0,1.612,0.0,0.0,1.7795,1.8951,1.9273,1.9451,1.9605,2.0252,2.044,1.979,2.036,2.079,2.0632,2.0934,2.1157,2.137,2.1666,2.1973,2.2187,2.2402,2.251,2.251,2.251,2.2412,2.2197,2.2197,2.21,2.1885,2.1885,2.1885,2.1885,2.1885,2.1885,2.1885,2.1885,2.1885,2.1865,2.165,2.1426,2.123,2.123,2.0957,2.0566,2.0566,2.0566,2.0566,0.8962,0.9054,0.9054,0.9081,0.9092,0.9092,0.9092,0.9953,1.0608,1.0608,1.1469,1.2113,1.2113,1.2113,1.2194,1.239,1.3122,0.0,0.0,1.5108,1.5108,1.5108,1.5108,1.5154,1.5257,1.5693,1.5992,1.6201,1.7019,1.7427,1.753,1.7943,1.8084,1.8084,1.7975,1.7678,1.7202,1.7202,1.6922,1.6472,1.6595,1.6652,1.6623,1.6148,1.5803,1.5551,1.5455,1.5124,1.4778,1.468,1.4419,1.4165,1.4571,1.4698,1.4801,1.5322,1.5513,0.0,0.0,0.0,0.0,0.0,0.0,0.0,0.0,0.0,1.6106,1.5254,1.5607,1.6427,1.7563,1.8133,1.8815,2.0094,2.0616,2.067,2.0226,2.0903,2.1034,1.9899,2.0545,2.107,2.0995,2.1496,2.1831,2.1919,2.2324,2.2549,2.2627,2.2959,2.3135,2.3135,2.3135,2.2969,2.2637,2.2637,2.2461,2.2129,2.2129,2.2129,2.2129,2.2129,2.2129,2.2129,2.2129,2.209,2.2012,2.21,2.2031,2.1894,2.1982,2.1523,2.082,2.082,2.082,2.082,0.0,0.8816,0.8883,0.9081,0.9092,0.9092,0.9092,0.9953,1.0608,1.0608,1.1469,1.2113,1.2113,1.2113,1.247,1.334,0.0,0.0,1.5039,1.5108,1.5108,1.5108,1.5108,1.5326,1.5808,1.5877,1.6336,1.7209,1.7324,1.7611,1.8004,1.8061,1.8084,1.8084,1.7556,1.7257,1.7202,1.7202,1.7146,1.7146,1.7678,1.7909,1.7897,1.7838,1.6917,1.5623,1.5248,1.5113,1.5012,1.469,1.4585,1.4569,1.4663,1.4698,1.4801,1.5322,0.0,1.5608,1.5986,1.6442,1.6692,1.6227,1.641,1.6688,0.0,0.0,1.6477,1.7042,1.7064,1.712,1.7628,1.7914,1.8351,1.8863,1.8974,1.9133,1.9593,1.9668,1.9809,2.0387,2.1213,2.1569,2.1234,2.1393,2.1762,2.2167,2.2405,2.2676,2.3047,2.3115,2.3135,2.3135,2.3135,2.3115,2.3066,2.3066,2.3047,2.2998,2.2998,2.2998,2.2998,2.2998,2.2998,2.2998,2.2998,2.2783,2.2471,2.2842,2.2559,2.1924,2.2295,2.2148,2.1738,2.1738,2.1738,2.1738,0.0,0.8745,0.8701,0.8795,0.8866,0.896,0.9092,0.9953,1.0608,1.0608,1.1469,1.2113,1.2113,1.2113,1.2479,1.3501,1.3593,0.0,1.5039,1.5108,1.5108,1.5108,1.5108,1.536,1.59,1.6187,1.6669,1.7381,1.7679,1.7932,1.8084,1.8084,1.8084,1.8084,1.7854,1.7733,1.7733,1.7733,1.7733,1.7733,1.803,1.8084,1.8084,1.8084,1.7483,1.6651,1.6483,1.626,0.0,0.0,1.5168,1.4891,1.4915,1.4949,1.5063,1.5568,1.5707,0.0,1.6271,1.6262,1.6286,0.0,1.6564,1.6533,1.7002,1.7111,1.7155,1.7274,1.7398,1.7673,1.8165,1.8348,1.8595,0.0,1.9054,1.9118,1.9362,1.9381,1.9537,2.0123,2.1345,2.1984,2.1598,2.195,2.2246,2.2351,2.2534,2.2785,2.296,2.3057,2.3135,2.3135,2.3135,2.3135,2.3135,2.3135,2.3135,2.3135,2.3135,2.3135,2.3135,2.3135,2.3135,2.3135,2.3135,2.3037,2.2891,2.3066,2.293,2.2637,2.2812,2.2773,2.2559,2.207,2.1885,2.1885,0.0,0.8606,0.8533,0.8533,0.8634,0.8773,0.8987,0.9882,1.0564,1.0608,1.1469,1.2113,1.2113,1.2113,1.249,1.3431,1.3552,0.0,0.0,1.5062,1.5108,1.5108,1.5108,1.5418,1.6095,1.6451,1.6945,1.7588,1.7901,1.8084,1.8084,1.8084,1.8084,1.8084,1.8084,1.8084,1.8084,1.8084,1.8084,1.8084,1.8084,1.8084,1.8084,1.8084,1.7817,1.7381,1.7381,1.6968,0.0,0.0,1.5544,1.5108,1.5108,1.5108,1.5211,1.5739,1.6095,1.6364,1.6655,1.6602,0.0,1.7238,1.7181,1.7155,1.7427,1.7779,1.8025,1.7802,1.8024,1.8319,1.8872,1.9096,1.9195,1.9256,1.9543,1.9739,1.9627,1.9552,1.9783,2.0454,2.1414,2.1987,2.1863,2.2611,2.296,2.253,2.2706,2.2794,2.2882,2.3057,2.3135,2.3135,2.3135,2.3135,2.3135,2.3135,2.3135,2.3135,2.3135,2.3135,2.3135,2.3135,2.3135,2.3135,2.3135,2.3135,2.3135,2.3135,2.3135,2.3135,2.3135,2.3135,2.3066,2.2461,2.2236,2.2236,0.0,0.0,0.841,0.841,0.841,0.8495,0.8761,0.9709,1.0457,1.0576,1.1469,1.2113,1.2113,1.2113,1.2415,1.3144,1.347,1.3944,1.4641,1.4971,1.5108,1.5108,1.5108,1.5579,1.6577,1.6562,1.7065,1.8061,1.8084,1.8084,1.8084,1.8084,1.8084,1.8084,1.8084,1.8084,1.8084,1.8084,1.8084,1.8084,1.8084,1.8084,1.8084,1.8084,1.7817,1.7381,1.7381,0.0,0.0,1.5925,1.5521,1.5108,1.5108,1.5108,0.0,1.5763,1.6604,1.7335,0.0,0.0,1.868,1.8129,1.8594,1.9091,1.8511,1.8682,1.9081,1.9455,1.9353,1.9302,1.9664,2.0158,2.0216,1.945,2.0254,2.0926,2.0518,2.0282,2.0618,2.186,2.1588,2.1429,2.2003,2.3115,2.3464,2.2794,2.2803,2.2882,2.3047,2.3135,2.3135,2.3135,2.3135,2.3135,2.3135,2.3135,2.3135,2.3135,2.3135,2.3135,2.3135,2.3135,2.3135,2.3135,2.3135,2.3135,2.3135,2.3135,2.3135,2.3135,2.3135,2.3135,2.3135,2.3105,2.3096,2.3096,0.0,0.0,0.0,0.8262,0.8262,0.8319,0.8523,0.9588,1.0425,1.0457,1.1423,0.0,0.0,0.0,0.0,0.0,0.0,1.3586,1.4216,1.4609,1.4834,1.4834,1.5017,1.5579,1.66,1.6423,1.6911,1.8084,1.792,1.7931,1.8084,1.8084,1.8084,1.8084,1.8084,1.8084,1.8084,1.8084,1.8485,1.9114,1.837,1.8552,1.9091,1.8347,1.7569,1.6876,0.0,0.0,1.5854,1.5487,1.5246,1.5108,1.5108,0.0,0.0,1.6118,1.7324,1.838,1.838,0.0,1.8788,1.8829,1.8762,1.8743,1.8799,1.893,1.9101,1.9545,1.9553,1.9586,2.002,2.0029,1.9955,1.965,2.0014,2.0267,2.0136,2.03,2.0532,2.1006,2.1671,2.1864,2.1466,2.2174,2.2618,2.2362,2.2441,2.2618,2.2882,2.3057,2.3057,2.2882,2.2882,2.2882,2.2882,2.2882,2.2969,2.3135,2.3135,2.3135,2.3135,2.3135,2.3135,2.3135,2.3135,2.3135,2.3135,2.3135,2.3135,2.3135,2.3135,2.3135,2.3135,2.3135,2.3135,2.3135,0.0,0.0,0.0,0.0,0.0,0.0,0.0,0.0,0.0,0.0,0.0,0.0,0.0,0.0,0.0,0.0,0.0,0.0,1.3839,0.0,1.4662,1.4616,1.4743,1.5218,1.6041,1.5914,1.6457,1.7713,1.7443,1.7532,1.7986,1.7986,1.7986,1.7975,1.803,1.8084,1.8084,1.8084,1.8529,1.908,1.8359,1.8485,1.9069,1.8336,1.7569,0.0,0.0,0.0,1.5831,1.5292,1.5108,1.5142,0.0,0.0,1.6084,1.6922,1.7989,1.8977,1.9333,1.9358,1.9404,1.9843,1.9701,1.9447,1.9695,1.977,1.9856,2.0146,2.0069,2.0065,2.0359,2.037,2.0373,2.0237,2.0781,2.1111,2.0799,2.1123,2.1315,2.1147,2.1722,2.1854,2.1406,2.1762,2.2097,2.2185,2.2353,2.253,2.2882,2.2969,2.2969,2.2803,2.2803,2.2803,2.2803,2.2882,2.2969,2.3135,2.3135,2.3135,2.3135,2.3135,2.3135,2.3135,2.3135,2.3135,2.3135,2.3135,2.3135,2.3135,2.3135,2.3135,2.3135,2.3135,2.3135,2.3135,0.0,0.0,0.0,0.0,0.0,0.0,0.0,0.0,0.0,0.0,0.0,0.0,0.0,0.0,0.0,0.0,0.0,0.0,0.0,0.0,0.0,1.4419,1.4419,1.465,1.5094,1.5105,1.5714,1.6927,1.6716,1.6905,1.7633,1.7633,1.7644,1.7667,1.7941,1.8061,1.8084,1.8084,1.8107,1.813,1.8096,1.8107,1.813,1.8096,0.0,0.0,0.0,0.0,0.0,0.0,0.0,0.0,0.0,0.0,0.0,1.7981,1.8575,1.9218,2.0182,2.0481,2.063,2.1089,2.1267,2.1256,2.1233,2.1221,2.1221,2.1135,2.0895,2.0651,0.0,0.0,2.1317,2.0979,2.2391,2.3193,2.2453,2.2551,2.267,0.0,0.0,0.0,0.0,0.0,2.2185,2.2353,2.2441,2.2608,2.3047,2.2882,2.2803,2.2803,2.2803,2.2803,2.2803,2.2969,2.3135,2.3135,2.3135,2.3135,2.3135,2.3135,2.3135,2.3135,2.3135,2.3135,2.3135,2.3135,2.3135,2.3135,2.3135,2.3135,2.3135,2.3135,2.3135,2.3135,0.0,0.0,0.0,0.0,0.0,0.0,0.0,0.0,0.0,0.0,0.0,0.0,0.0,0.0,0.0,0.0,0.0,0.0,0.0,0.0,0.0,0.0,0.0,1.4978,1.5094,1.5229,1.5576,0.0,1.6269,1.6325,1.6343,1.6911,1.7157,1.7205,1.747,1.7783,1.8084,1.8084,1.8302,1.8667,0.0,1.8368,1.8655,0.0,0.0,0.0,0.0,0.0,0.0,0.0,0.0,0.0,0.0,1.7691,1.8529,0.0,0.0,2.0641,2.0905,2.1525,2.2042,2.1789,2.1732,2.1629,2.125,2.1221,2.1118,2.0687,2.0512,2.0353,0.0,0.0,0.0,2.0278,2.0908,0.0,2.1428,2.1757,0.0,2.1929,0.0,2.1621,2.1731,2.1919,2.2097,2.2185,2.253,2.2706,2.2882,2.2803,2.2627,2.2274,2.2274,2.2362,2.253,2.2882,2.3135,2.3135,2.3135,2.3135,2.3135,2.3135,2.3135,2.3135,2.3135,2.3135,2.3135,2.3135,2.3135,2.3135,2.3135,2.3135,2.3135,2.3135,2.3135,2.3135,0.0,0.0,0.0,0.0,0.0,0.0,0.0,0.0,0.0,0.0,0.0,0.0,0.0,0.0,0.0,0.0,0.0,0.0,0.0,0.0,0.0,0.0,1.4373,1.454,1.4777,1.467,1.4996,0.0,0.0,0.0,1.603,1.6473,1.6672,1.6636,1.6843,1.7042,1.7315,1.742,0.0,0.0,0.0,0.0,0.0,0.0,0.0,0.0,0.0,0.0,0.0,0.0,0.0,1.7748,1.7966,1.8598,1.9287,1.9505,0.0,2.1204,2.1433,2.1916,2.2283,2.1996,2.1766,2.1456,2.0951,2.0836,2.0699,2.0194,2.009,0.0,1.9746,1.9843,0.0,0.0,0.0,0.0,2.1923,2.2962,2.3367,0.0,2.2687,0.0,2.2511,2.295,2.3291,2.3231,2.3428,2.3516,2.3222,2.331,2.3242,2.2696,2.2353,2.2274,2.253,2.296,2.3135,2.3135,2.3135,2.3135,2.3135,2.3135,2.3135,2.3135,2.3135,2.3135,2.3135,2.3135,2.3135,2.3135,2.3135,2.3135,2.3135,2.3135,2.3135,2.3135,0.0,0.0,0.0,0.0,0.0,0.0,0.0,0.0,0.0,0.0,0.0,0.0,0.0,0.0,0.0,0.0,0.0,0.0,0.0,0.0,0.0,0.0,1.3821,1.3905,1.4384,1.3999,1.4333,0.0,0.0,0.0,0.0,0.0,0.0,0.0,0.0,0.0,0.0,0.0,0.0,0.0,0.0,0.0,0.0,0.0,0.0,0.0,0.0,0.0,0.0,0.0,1.8233,1.8382,1.8942,1.9459,1.9975,2.0389,2.0917,2.1468,2.1904,2.2122,2.2191,2.2065,2.1686,2.1192,2.0561,2.0412,2.0251,1.97,0.0,1.9562,1.9505,1.9867,2.0557,2.1558,0.0,2.3877,2.3161,2.4727,2.5262,2.3521,2.3973,2.4241,2.3724,2.4368,2.4833,2.472,2.4951,2.4788,2.4084,2.4175,2.392,2.3299,2.252,2.2362,2.2715,2.2969,2.3135,2.3135,2.3135,2.3135,2.3135,2.3135,2.3135,2.3135,2.3135,2.3135,2.3135,2.3135,2.3135,2.3135,2.3135,2.3135,2.3135,2.3135,2.3135,2.3135,0.0,0.0,0.0,0.0,0.0,0.0,0.0,0.0,0.0,0.0,1.0968,1.1033,0.0,0.0,0.0,0.0,0.0,0.0,0.0,0.0,0.0,0.0,1.415,1.428,1.4373,1.4697,0.0,0.0,0.0,0.0,0.0,0.0,0.0,0.0,0.0,0.0,0.0,0.0,0.0,0.0,0.0,0.0,0.0,0.0,0.0,0.0,0.0,0.0,0.0,0.0,1.9057,1.9505,1.9998,2.0492,2.0991,2.1072,2.1686,2.2432,2.2524,2.3167,2.3603,2.2765,2.2478,2.2065,2.0722,2.0412,0.0,0.0,1.9034,1.8908,1.8439,1.8963,1.9714,2.0664,0.0,0.0,0.0,0.0,2.4127,0.0,2.4413,2.4413,2.4327,2.5003,2.534,2.514,2.6761,2.7104,2.5351,2.4601,2.3564,2.2097,2.2264,2.2353,2.2441,2.2872,2.3135,2.3135,2.3135,2.3135,2.3135,2.3135,2.3135,2.3135,2.3135,2.3135,2.3135,2.3135,2.3135,2.3135,2.3135,2.3135,2.3135,2.3135,2.3135,2.3135,0.0,0.0,0.0,0.0,0.0,0.0,0.0,1.0108,1.0716,1.1199,1.1261,1.1217,1.1065,1.1033,1.1071,0.0,0.0,0.0,0.0,0.0,0.0,0.0,0.0,1.4244,0.0,0.0,0.0,0.0,0.0,0.0,0.0,0.0,0.0,0.0,0.0,0.0,0.0,0.0,0.0,0.0,0.0,0.0,0.0,0.0,0.0,0.0,0.0,0.0,0.0,0.0,1.885,1.9447,2.0481,2.0963,2.1221,2.1221,2.1697,2.2283,2.2283,2.2639,2.2891,2.2409,2.1893,2.1238,2.0262,0.0,0.0,0.0,1.8288,1.8116,1.8084,0.0,0.0,0.0,0.0,0.0,0.0,0.0,0.0,0.0,2.56,2.5877,2.5787,2.6441,2.6867,2.6907,2.8199,2.8244,2.6627,2.5384,2.3821,2.175,2.2087,2.2264,2.2441,2.2794,2.2969,2.3135,2.3135,2.3135,2.3135,2.3135,2.3135,2.3135,2.3135,2.3135,2.3135,2.3135,2.3135,2.3135,2.3135,2.3135,2.3135,2.3135,2.3135,2.3135,0.0,0.0,0.0,0.0,0.0,0.0,0.0,1.0211,1.0971,1.1539,1.1612,1.1447,1.1095,1.1064,1.1033,0.0,0.0,0.0,0.0,0.0,0.0,0.0,0.0,0.0,0.0,0.0,0.0,0.0,0.0,0.0,0.0,0.0,0.0,0.0,0.0,0.0,0.0,0.0,0.0,0.0,0.0,0.0,0.0,0.0,0.0,0.0,0.0,0.0,0.0,0.0,1.8495,1.8977,2.04,2.0917,2.1009,2.1009,2.1445,2.1927,2.1927,2.2007,2.2065,2.1962,2.1238,2.0412,1.9826,1.8885,0.0,0.0,1.7656,1.7496,1.7909,0.0,0.0,0.0,0.0,0.0,0.0,0.0,0.0,0.0,2.6787,0.0,2.7026,2.7663,2.8277,2.8522,2.9059,2.8645,2.7138,2.557,2.3801,2.1741,2.1919,2.2185,2.2353,2.2618,2.2882,2.3057,2.3047,2.3135,2.3135,2.3135,2.3135,2.3135,2.3135,2.3135,2.3135,2.3135,2.3135,2.3135,2.3135,2.3135,2.3135,2.3135,2.3135,2.3135,0.0,0.0,0.0,0.0,0.0,0.0,0.0,0.9932,1.0609,1.1497,1.1612,1.1601,1.1549,1.1549,1.1354,0.0,0.0,0.0,0.0,0.0,0.0,0.0,0.0,0.0,0.0,0.0,0.0,0.0,0.0,0.0,0.0,0.0,0.0,0.0,0.0,0.0,0.0,0.0,0.0,0.0,0.0,0.0,0.0,0.0,0.0,0.0,0.0,0.0,0.0,0.0,0.0,1.8347,1.9482,2.0125,2.0481,2.0481,0.0,0.0,2.1927,2.226,2.2501,2.2042,2.1502,2.0911,1.9907,0.0,0.0,1.7542,1.7415,1.7392,1.7438,1.8242,0.0,0.0,0.0,2.2627,0.0,0.0,0.0,0.0,0.0,0.0,2.7218,2.8019,2.8677,2.8671,2.8711,2.7969,2.6225,2.4293,2.2794,2.1731,2.1919,2.2097,2.2097,2.2539,2.2794,2.2803,2.2969,2.3135,2.3135,2.3135,2.3135,2.3135,2.3135,2.3135,2.3135,2.3135,2.3135,2.3135,2.3135,2.3135,2.3135,2.3135,2.3135,2.3135,0.0,0.0,0.0,0.0,0.0,0.0,0.9447,0.9901,1.052,1.1497,1.1861,1.2027,1.2027,1.2027,1.1736,1.0953,0.0,0.0,0.0,0.0,0.0,0.0,0.0,0.0,0.0,0.0,0.0,0.0,0.0,0.0,0.0,0.0,0.0,0.0,0.0,0.0,0.0,0.0,0.0,0.0,0.0,0.0,0.0,0.0,0.0,0.0,0.0,0.0,0.0,0.0,0.0,0.0,1.7381,1.8162,0.0,0.0,2.0699,2.1078,2.1388,2.1606,2.172,2.1514,2.0871,2.0171,1.978,0.0,1.7347,1.776,1.7347,1.7117,1.7725,1.8173,1.8782,1.9815,2.032,2.1284,2.3282,0.0,0.0,0.0,2.6588,0.0,0.0,2.8035,2.8517,2.9137,2.7886,2.6753,2.6014,2.4686,2.3294,2.175,2.183,2.1919,2.2097,2.2274,2.2451,2.253,2.2618,2.2794,2.2882,2.2882,2.2969,2.3135,2.3135,2.3135,2.3135,2.3135,2.3135,2.3135,2.3135,2.3135,2.3135,2.3135,2.3135,2.3135,0.0,0.0,0.0,0.0,0.0,0.887,0.9417,0.9788,1.0365,1.1477,1.1892,1.2152,1.2287,1.2183,1.1851,1.1168,1.1281,0.0,0.0,0.0,0.0,0.0,0.0,0.0,0.0,0.0,1.4455,1.4628,1.428,0.0,0.0,0.0,0.0,0.0,0.0,0.0,0.0,0.0,0.0,0.0,0.0,0.0,0.0,0.0,0.0,0.0,0.0,0.0,0.0,0.0,0.0,0.0,0.0,0.0,0.0,0.0,2.0056,2.0481,2.0848,2.1055,2.1221,2.1221,2.0423,1.9688,0.0,1.8208,1.7048,1.7771,1.7347,1.7071,1.7783,1.7981,1.837,1.931,1.9711,2.0561,2.2421,2.3247,0.0,0.0,0.0,2.6577,2.7449,2.7931,2.8408,2.8754,2.714,2.5906,2.5368,2.4382,2.3161,2.1759,2.1741,2.182,2.2008,2.2097,2.2185,2.2353,2.2353,2.253,2.2803,2.2706,2.2784,2.3028,2.2921,2.2921,2.3028,2.3028,2.3038,2.3135,2.3135,2.3135,2.3135,2.3135,2.3135,2.3135,0.0,0.0,0.0,0.0,0.0,0.0,0.9375,0.952,1.0004,1.1435,1.1612,1.1788,1.2256,1.1892,1.1612,1.1601,1.1178,0.0,0.0,0.0,0.0,0.0,0.0,0.0,0.0,0.0,1.4373,1.4373,1.4373,1.4244,1.402,1.402,0.0,0.0,0.0,0.0,0.0,0.0,0.0,0.0,0.0,0.0,0.0,0.0,0.0,0.0,0.0,0.0,0.0,0.0,0.0,0.0,0.0,0.0,0.0,0.0,1.9171,2.0412,2.0423,2.0779,2.1221,2.1221,2.0423,1.9688,0.0,1.8483,1.7369,1.7381,1.7381,1.7369,1.7381,1.7806,1.8256,1.8816,1.9746,2.094,2.2467,2.3557,0.0,0.0,0.0,2.5922,2.6427,2.7816,2.8256,2.7293,2.6806,2.5757,2.3818,2.2875,2.2144,2.175,2.1741,2.1741,2.1741,2.2008,2.2097,2.2097,2.2264,2.253,2.2794,2.253,2.2589,2.2804,2.2562,2.2572,2.2804,2.2804,2.2921,2.3135,2.3135,2.3135,2.3135,2.3135,2.3135,2.3135,0.0,0.0,0.0,0.0,0.0,0.0,0.0,0.9313,0.9777,1.052,1.1188,1.1674,1.1819,1.1705,1.1612,1.1612,1.1178,0.0,0.0,0.0,0.0,0.0,0.0,0.0,0.0,0.0,1.4789,1.4616,1.4616,1.4569,1.4477,1.415,1.3962,1.3868,0.0,0.0,0.0,0.0,0.0,0.0,0.0,0.0,0.0,0.0,0.0,0.0,0.0,0.0,0.0,0.0,0.0,0.0,0.0,0.0,0.0,0.0,0.0,0.0,1.9287,1.9757,2.0067,1.97,1.9378,1.9149,1.9149,1.823,1.7473,1.7829,1.7622,1.7484,1.784,1.7981,1.8473,1.9734,2.0205,2.094,0.0,0.0,0.0,2.5084,2.6106,2.6818,2.6967,2.7725,2.8122,2.777,2.7338,2.6557,2.5178,2.4271,2.3151,2.1759,2.1741,2.1741,2.1741,2.1741,2.183,2.183,2.1909,2.2087,2.2362,2.2274,2.2344,2.2501,2.2618,2.2685,2.285,2.2989,2.3038,2.3135,2.3135,2.3135,2.3135,2.3135,2.3135,2.3135,0.0,0.0,0.0,0.0,0.0,0.0,0.0,0.9118,0.9427,0.9881,1.0427,1.094,1.1292,1.1168,1.1199,1.158,1.1178,0.0,0.0,0.0,0.0,0.0,0.0,0.0,1.4236,1.4824,1.5017,1.4834,1.4834,1.48,1.4697,1.4384,1.4197,1.415,1.4337,0.0,0.0,0.0,0.0,0.0,0.0,0.0,0.0,0.0,0.0,0.0,0.0,0.0,0.0,0.0,0.0,0.0,0.0,0.0,0.0,0.0,1.6543,0.0,0.0,1.885,1.9114,1.9183,1.8908,1.8609,1.8609,1.7966,1.7415,1.7489,1.7461,1.7473,1.7794,1.7958,1.8393,1.9401,1.9884,0.0,0.0,0.0,0.0,2.5107,0.0,2.6944,2.6944,2.7575,2.7908,2.7713,2.7006,2.6221,2.5316,2.4077,2.2872,2.175,2.1878,2.1887,2.1741,2.1741,2.1741,2.1741,2.1741,2.183,2.2097,2.2008,2.2087,2.2441,2.2508,2.2634,0.0,2.2792,2.293,2.2998,2.2989,2.2979,2.2969,2.3057,2.3135,2.3135,0.0,0.0,0.0,0.0,0.0,0.0,0.0,0.889,0.9036,0.9406,0.9489,0.985,1.0747,1.0458,1.0541,1.1487,0.0,0.0,0.0,0.0,0.0,0.0,0.0,0.0,1.4047,1.471,1.5108,1.5108,1.5108,1.4971,1.4754,1.4708,1.4616,1.443,1.443,1.4523,0.0,0.0,0.0,0.0,0.0,0.0,0.0,0.0,0.0,0.0,0.0,0.0,0.0,0.0,0.0,0.0,0.0,0.0,0.0,0.0,0.0,0.0,0.0,0.0,0.0,1.9183,1.8724,1.7981,1.7981,1.7668,0.0,1.6727,1.7025,1.7392,1.7427,1.7817,1.813,1.8279,1.9137,0.0,0.0,2.2639,0.0,0.0,2.6232,2.6519,2.6519,2.7369,2.7736,2.7265,2.6107,2.5138,2.456,2.293,2.1894,2.1777,2.2135,2.2135,2.1741,2.1741,2.1741,2.1741,2.1741,2.183,2.2097,2.183,2.1909,2.2353,2.2143,2.2372,2.2717,2.2527,2.2574,2.2802,2.2763,2.2823,2.2794,2.3057,2.3135,2.3135,0.0,0.0,0.0,0.0,0.0,0.0,0.0,0.0,0.0,0.0,0.9303,0.9726,1.0293,1.0262,1.0427,0.0,0.0,0.0,0.0,0.0,0.0,0.0,0.0,0.0,1.4287,1.4811,1.5108,1.5108,1.5108,1.5062,1.5017,1.48,1.4662,1.4616,1.4616,1.4789,0.0,0.0,0.0,0.0,0.0,0.0,0.0,0.0,0.0,0.0,1.5292,1.5223,0.0,0.0,0.0,0.0,0.0,0.0,0.0,0.0,1.5292,1.5464,1.6221,0.0,1.6945,1.6795,1.6876,1.6928,0.0,1.6887,1.6773,0.0,0.0,0.0,0.0,0.0,0.0,0.0,0.0,0.0,2.265,0.0,0.0,2.6737,2.6978,2.7047,2.7047,2.7265,2.7357,2.7242,2.7261,2.6604,2.5006,2.4873,2.4006,2.2199,2.2272,2.2135,2.1741,2.1741,2.1741,2.1741,2.1741,2.1731,2.182,2.1741,2.1741,2.1909,2.2069,2.2171,2.2252,2.2325,2.2438,2.2485,2.2754,2.2803,2.2794,2.3057,2.3135,2.3047,0.0,0.0,0.0,0.0,0.0,0.0,0.0,0.0,0.0,0.0,0.0,0.9148,0.9808,0.9881,0.0,0.0,0.0,0.0,0.0,0.0,0.0,0.0,0.0,1.3419,1.4017,1.4522,1.489,1.5108,1.5108,1.5108,1.5108,1.4971,1.488,1.488,1.488,1.4971,0.0,0.0,0.0,0.0,0.0,0.0,0.0,0.0,0.0,0.0,1.5108,1.5108,0.0,1.5108,1.5108,1.5108,0.0,0.0,0.0,0.0,1.5108,1.5177,1.5464,1.5911,1.6336,1.6558,1.6589,1.6623,1.6623,0.0,0.0,0.0,0.0,0.0,0.0,0.0,0.0,0.0,2.0469,0.0,0.0,0.0,2.6083,2.7105,2.7231,2.7231,2.7231,2.7231,2.7231,2.7231,2.6702,2.5904,2.485,2.4285,2.3332,2.2061,2.2052,2.1951,2.1741,2.1741,2.1741,2.1741,2.1741,2.1741,2.1741,2.1741,2.175,2.1866,2.2017,2.2157,2.2217,2.2283,2.2251,2.2307,2.2568,2.2618,2.2618,2.296,2.3135,2.3057,0.0,0.0,0.0,0.0,0.0,0.0,0.0,0.0,0.0,0.0,0.0,0.0,0.0,0.0,0.0,0.0,0.0,0.0,0.0,0.0,0.0,0.0,1.2431,1.3138,1.3581,1.4121,1.4626,1.5108,1.5108,1.5108,1.5108,1.5108,1.5108,1.5108,1.5108,1.5108,0.0,0.0,0.0,0.0,0.0,0.0,0.0,0.0,0.0,0.0,0.0,0.0,0.0,1.5108,1.5108,1.5108,1.5108,0.0,0.0,0.0,0.0,0.0,1.5211,1.5613,1.6176,1.6864,1.683,1.66,0.0,0.0,0.0,0.0,0.0,0.0,0.0,0.0,0.0,0.0,0.0,0.0,2.459,2.5371,2.6005,2.6849,2.6974,2.6974,2.6974,2.6974,2.7056,2.7149,2.5684,2.4659,2.4498,2.2853,2.182,2.1741,2.1741,2.1741,2.1741,2.1741,2.1741,2.1741,2.1741,2.1741,2.1741,2.1741,2.1848,2.2082,2.2082,2.21,2.2316,2.2091,2.2082,2.2073,2.2283,2.2353,2.2441,2.2872,2.296,2.296,0.0,0.0,0.0,0.0,0.0,0.0,0.0,0.0,0.0,0.0,0.0,0.0,0.0,0.0,0.0,0.0,0.0,0.0,0.0,0.0,0.0,1.1774,1.2469,1.3138,1.3581,1.4121,1.4626,1.5108,1.5108,1.5108,1.5108,1.5108,1.5108,1.5108,1.5108,1.5108,1.5108,1.5108,0.0,0.0,0.0,0.0,0.0,0.0,0.0,0.0,0.0,0.0,0.0,1.5108,1.5108,1.5108,1.5108,0.0,0.0,0.0,0.0,0.0,1.5659,1.6141,1.6348,1.5636,1.6038,1.6508,0.0,0.0,0.0,0.0,0.0,0.0,0.0,0.0,0.0,0.0,0.0,2.3523,0.0,0.0,2.5757,2.597,2.5997,2.5997,2.5997,2.5997,2.6351,2.7138,2.6185,2.5242,2.4584,2.3454,2.2501,2.1731,2.1741,2.1741,2.1741,2.1741,2.1741,2.1741,2.1741,2.1741,2.1741,2.1741,2.1741,2.175,2.175,2.175,2.1848,2.175,2.175,2.175,2.2008,2.2185,2.2185,2.2441,2.253,2.2441,0.0,0.0,0.0,0.0,0.0,0.0,0.0,0.0,0.0,0.0,0.0,0.0,0.0,0.0,0.0,0.0,0.0,0.0,0.0,0.0,1.2093,1.2378,1.2705,1.3138,1.3581,1.4121,1.4626,1.5108,1.5108,1.5108,1.5108,1.5108,1.5108,1.5108,1.5108,1.5108,1.5108,1.5108,0.0,0.0,0.0,0.0,0.0,0.0,0.0,0.0,0.0,0.0,0.0,0.0,1.5108,1.5108,1.5108,0.0,0.0,0.0,0.0,0.0,1.5406,1.5854,1.6118,1.5659,1.629,1.6968,1.6777,0.0,0.0,0.0,0.0,0.0,0.0,0.0,2.0699,2.2467,0.0,2.3715,2.4774,2.4966,2.507,2.5371,2.526,2.5084,2.5084,2.5084,2.5505,2.6362,2.5147,2.4382,2.4498,2.3115,2.2157,2.1731,2.1741,2.1741,2.1741,2.1741,2.1741,2.1741,2.1741,2.1741,2.1741,2.1741,2.1741,2.1741,2.1741,2.1741,2.1741,2.1741,2.1741,2.1741,2.2008,2.2097,2.2097,2.2353,2.2353,2.2185,0.0,0.0,0.0,0.0,0.0,0.0,0.0,0.0,0.0,0.0,0.0,0.0,0.0,0.0,0.0,0.0,0.0,0.0,0.0,1.1936,1.2355,1.2896,1.3023,1.3271,1.3765,1.4178,1.4626,1.5108,1.5108,1.5108,1.5108,1.5108,1.5108,1.5108,1.5108,1.5108,1.5108,1.5108,1.5108,0.0,0.0,0.0,0.0,0.0,0.0,0.0,0.0,0.0,0.0,0.0,0.0,0.0,0.0,0.0,0.0,1.5108,1.5108,1.5142,1.5257,1.559,1.5934,1.6049,0.0,1.7255,1.7496,0.0,0.0,0.0,0.0,0.0,0.0,2.0228,0.0,2.3075,2.3465,2.3925,2.4786,2.4724,2.4653,2.474,2.464,2.4413,2.4145,2.4145,2.4648,2.5735,2.4125,2.3531,2.4413,2.2687,2.1741,2.1741,2.1741,2.1741,2.1741,2.1741,2.1741,2.1741,2.1741,2.1741,2.1741,2.1741,2.1741,2.1741,2.1741,2.1741,2.1741,2.1741,2.1741,2.1741,2.1919,2.2008,2.2008,2.2176,2.2176,2.2008,0.0,0.0,0.0,0.0,0.0,0.0,0.0,0.0,0.0,0.0,0.0,0.0,0.0,0.0,0.0,0.0,0.0,0.0,0.0,1.1813,1.2355,1.2896,1.3305,1.3788,1.4316,1.4373,1.4626,1.5108,1.5108,1.5108,1.5108,1.5108,1.5108,1.5108,1.5108,1.5108,1.5108,1.5108,1.5108,1.5108,0.0,0.0,0.0,0.0,0.0,0.0,0.0,0.0,0.0,0.0,0.0,0.0,0.0,0.0,1.5108,1.5108,1.5108,1.5223,1.5716,1.5877,1.6015,1.6463,0.0,0.0,1.7821,1.8004,0.0,1.9275,0.0,0.0,0.0,2.1514,2.2604,2.2708,2.3523,2.4326,2.4843,2.5295,2.5161,2.3981,2.4209,2.4145,2.327,2.3183,2.3953,2.5652,2.4125,2.3531,2.4413,2.2687,2.1741,2.1741,2.1741,2.1741,2.1741,2.1741,2.1741,2.1741,2.1741,2.1741,2.1741,2.1741,2.1741,2.1741,2.1741,2.1741,2.1741,2.1741,2.1741,2.1741,2.1741,2.1741,2.1731,2.1731,2.1741,2.1741,0.0,0.0,0.0,0.0,0.0,0.0,0.0,0.0,0.0,0.0,0.0,0.0,0.0,0.0,0.0,0.0,0.0,0.0,0.0,1.1503,1.1985,1.2873,1.3328,1.3684,1.3891,1.4511,1.4924,1.5108,1.5108,1.5108,1.5108,1.5108,1.5108,1.5108,1.5108,1.5108,1.5108,1.5108,1.5108,1.5108,1.5108,0.0,0.0,0.0,0.0,0.0,0.0,0.0,0.0,0.0,1.4867,1.5108,1.5108,1.5108,1.5108,1.5108,1.5108,1.5154,1.536,1.5659,1.6026,1.6497,0.0,0.0,0.0,0.0,0.0,1.9551,1.993,0.0,0.0,0.0,2.2788,2.311,2.3741,2.4258,2.4441,2.3984,2.3519,2.3318,2.277,2.2293,2.2217,2.2246,2.3018,2.4829,2.328,2.2853,2.4413,2.2687,2.1741,2.1741,2.1741,2.1741,2.1741,2.1741,2.1741,2.1741,2.1741,2.1741,2.1741,2.1741,2.1741,2.1741,2.1741,2.1741,2.1741,2.1741,2.1741,2.1741,2.1741,2.1741,2.1741,2.1741,2.1741,2.1741,0.0,0.0,0.0,0.0,0.0,0.0,0.0,0.0,0.0,0.0,0.0,0.0,0.0,0.0,0.0,0.0,0.0,0.0,1.1034,1.1205,1.179,1.2862,1.323,1.3432,1.3593,1.4442,1.4878,1.4878,1.5039,1.5108,1.5108,1.5108,1.5108,1.5108,1.5108,1.5108,1.5108,1.5108,1.5108,1.5108,1.5108,1.5108,0.0,0.0,0.0,0.0,0.0,0.0,0.0,0.0,1.4603,1.4901,1.5062,1.5108,1.5108,1.5108,1.5108,1.5108,1.5108,1.5372,1.5774,0.0,0.0,0.0,0.0,0.0,0.0,1.9987,2.0423,0.0,2.1766,0.0,0.0,2.3144,2.3764,2.42,2.42,2.3394,2.2809,2.2804,2.2035,2.1565,2.1511,2.1658,2.2511,2.4327,2.2775,2.2511,2.4413,2.2687,2.1741,2.1741,2.1741,2.1741,2.1741,2.1741,2.1741,2.1741,2.1741,2.1741,2.1741,2.1741,2.1741,2.1741,2.1741,2.1741,2.1741,2.1741,2.1741,2.1741,2.1741,2.1741,2.1741,2.1741,2.1741,2.1741,0.0,0.0,0.0,0.0,0.0,0.0,0.0,0.0,0.0,0.0,0.0,0.0,0.0,0.0,0.0,0.0,0.0,0.0,1.0562,1.1011,1.1779,1.285,1.2908,1.3138,1.357,1.4098,1.4385,1.4396,1.4867,1.5108,1.5108,1.5108,1.5108,1.5108,1.5108,1.5108,1.5108,1.5108,1.5108,1.5108,1.5108,1.5108,0.0,0.0,0.0,0.0,0.0,0.0,0.0,0.0,1.4373,1.4465,1.4947,1.5096,1.5096,1.5108,1.5108,1.5108,1.5108,1.5108,0.0,0.0,0.0,0.0,0.0,0.0,0.0,2.0911,2.1233,2.1319,2.1835,2.234,2.2685,2.2685,2.3534,2.42,2.42,2.3921,2.3371,2.247,2.2439,2.213,2.1194,2.1484,2.2511,2.4327,2.2775,2.2511,2.4413,2.2687,2.1741,2.1741,2.1741,2.1741,2.1741,2.1741,2.1741,2.1741,2.1741,2.1741,2.1741,2.1741,2.1741,2.1741,2.1741,2.1741,2.1741,2.1741,2.1741,2.1741,2.1741,2.1741,2.1741,2.1741,2.1741,2.1741,0.0,0.0,0.0,0.0,0.0,0.0,0.0,0.0,0.0,0.0,0.0,0.0,0.0,0.0,0.0,0.0,0.0,0.0,1.0011,1.0527,1.1101,1.1756,1.2479,1.2804,1.2562,1.3053,1.3834,1.489,1.5039,1.5108,1.5108,1.5108,1.5108,1.5108,1.5108,1.5108,1.5108,1.5108,1.5108,1.5108,1.5108,1.5108,0.0,0.0,0.0,0.0,0.0,0.0,0.0,0.0,0.0,0.0,1.4442,1.4603,1.4672,1.5005,1.5108,1.5108,1.5108,0.0,0.0,0.0,0.0,0.0,0.0,0.0,0.0,0.0,2.1445,2.1743,2.1893,2.2639,2.3213,2.3213,2.3764,2.42,2.42,2.3174,2.2394,2.2428,2.1598,2.1052,2.108,2.2079,2.3193,2.4413,2.3367,2.3193,2.4413,2.2687,2.1741,2.1741,2.1741,2.1741,2.1741,2.1741,2.1741,2.1741,2.1741,2.1741,2.1741,2.1741,2.1741,2.1741,2.1741,2.1741,2.1741,2.1741,2.1741,2.1741,2.1741,2.1741,2.1741,2.1741,2.1741,2.1741,0.0,0.0,0.0,0.0,0.0,0.0,0.0,0.0,0.0,0.0,0.0,0.0,0.0,0.0,0.0,0.0,0.0,0.0,0.0,1.0309,1.0826,1.1263,1.2112,1.2539,1.2436,1.2931,1.3604,1.4511,1.4511,1.4511,1.4511,1.4729,1.4821,1.4832,1.5028,1.5005,1.4821,1.4821,1.4821,1.4821,1.4821,1.4936,1.4993,0.0,0.0,0.0,0.0,0.0,0.0,0.0,0.0,0.0,1.3914,0.0,1.4167,1.4683,1.4821,1.4867,1.5062,0.0,0.0,0.0,0.0,0.0,0.0,0.0,0.0,0.0,2.1709,2.1984,2.2191,2.2891,2.3372,2.3372,2.3867,2.42,2.42,2.282,2.1869,2.2159,2.1076,2.0449,2.1016,2.1816,2.3014,2.4651,2.369,2.3531,2.4413,2.3105,2.2078,2.1731,2.1741,2.1741,2.1741,2.1741,2.1741,2.1741,2.1741,2.1741,2.1741,2.1741,2.1741,2.1741,2.1741,2.1741,2.1741,2.1741,2.1741,2.1741,2.1741,2.1741,2.1741,2.1741,2.1741,2.1741,0.0,0.0,0.0,0.0,0.0,0.0,0.0,0.0,0.0,0.0,0.0,0.0,0.0,0.0,0.0,0.0,0.0,0.0,0.0,1.0286,1.0803,1.1205,1.1825,1.2436,1.2965,1.3328,1.3524,1.3524,1.357,1.3593,1.3604,1.4098,1.4316,1.4339,1.4775,1.4729,1.4316,1.4316,1.4316,1.4316,1.4316,1.458,1.4867,1.3849,0.0,0.0,0.0,0.0,0.0,0.0,0.0,0.0,1.3374,1.3524,1.3638,1.4224,1.4396,1.4499,0.0,0.0,0.0,0.0,0.0,0.0,0.0,0.0,2.1296,2.1766,0.0,2.2076,2.2593,2.3098,2.3395,2.3429,2.389,2.42,2.42,2.282,2.1842,2.1832,2.069,2.0242,2.1092,2.1258,2.2308,2.4822,2.3862,2.3517,2.4341,2.3471,2.2541,2.1731,2.1741,2.1741,2.1741,2.1741,2.1741,2.1741,2.1741,2.1741,2.1741,2.1741,2.1741,2.1741,2.1741,2.1741,2.1741,2.1741,2.1741,2.1741,2.1741,2.1741,2.1741,2.1741,2.1741,2.1741,0.0,0.0,0.0,0.0,0.0,0.0,0.0,0.0,0.0,0.0,0.0,0.0,0.0,0.0,0.0,0.0,0.0,0.0,0.0,1.0103,1.0654,1.0757,1.2008,1.2965,1.3432,1.3207,1.3069,1.3069,1.3409,1.3593,1.3593,1.3707,1.3765,1.3765,1.3868,1.3857,1.3765,1.3765,1.3765,1.3765,1.3765,1.3822,1.3803,1.2865,1.2523,0.0,0.0,0.0,0.0,0.0,0.0,0.0,1.2908,1.3069,1.3242,1.4121,1.4396,1.4499,0.0,0.0,0.0,0.0,0.0,0.0,0.0,0.0,2.1256,2.1307,2.1652,2.2076,2.2593,2.3098,2.3569,2.3971,2.412,2.42,2.42,2.282,2.1832,2.1983,2.0769,2.0323,2.1341,2.221,2.3165,2.4382,2.3594,2.3309,2.3825,2.2417,2.1558,2.1731,2.1741,2.1741,2.1741,2.1741,2.1741,2.1741,2.1741,2.1741,2.1741,2.1741,2.1741,2.1741,2.1741,2.1741,2.1741,2.1741,2.1741,2.1741,2.1741,2.1741,2.1741,2.1741,2.1741,2.1741,0.0,0.0,0.0,0.0,0.0,0.0,0.0,0.0,0.0,0.0,0.0,0.0,0.0,0.0,0.0,0.0,0.0,0.0,0.0,0.9943,1.0814,1.1285,1.2344,1.2908,1.2858,1.2908,1.2781,1.2528,1.2781,1.2858,1.2869,1.3363,1.3593,1.3604,1.3857,1.3834,1.3581,1.3351,1.3248,1.3248,1.3248,1.3386,1.3494,1.2545,1.221,1.2106,1.1464,0.0,0.0,0.0,0.0,0.0,0.0,0.0,1.3115,1.4098,1.4212,1.4167,0.0,0.0,0.0,0.0,0.0,0.0,0.0,2.0986,2.1221,2.1221,2.1571,2.2007,2.2271,2.2937,2.3452,2.3787,2.4039,2.42,2.42,2.282,2.1832,2.2059,2.0967,2.0651,2.1653,2.2374,2.3266,2.4514,2.4021,2.3619,2.3443,2.2745,2.2045,2.1429,2.163,2.1741,2.1741,2.1741,2.1741,2.1741,2.1741,2.1741,2.1741,2.1741,2.1741,2.1741,2.1741,2.1741,2.1741,2.1741,2.1741,2.1741,2.1741,2.1741,2.1741,2.1741,2.1741,2.1741,0.0,0.0,0.0,0.0,0.0,0.0,0.0,0.0,0.0,0.0,0.0,0.0,0.0,0.0,0.0,0.0,0.0,0.0,0.0,0.9719,1.0866,1.1959,1.2419,1.2494,1.2155,1.2571,1.2575,1.213,1.2123,1.2159,1.2275,1.3076,1.3466,1.3489,1.3937,1.3834,1.3305,1.2942,1.277,1.277,1.277,1.2934,1.3163,1.2311,1.1923,1.179,1.1061,1.0992,1.133,1.1442,0.0,0.0,0.0,0.0,1.2988,1.4063,1.4017,1.3811,0.0,0.0,0.0,0.0,0.0,0.0,0.0,2.0733,2.1118,2.121,2.1502,2.1824,2.1916,2.2616,2.3177,2.3349,2.3798,2.4097,2.425,2.2979,2.2069,2.236,2.1375,2.1145,2.2209,2.2426,2.312,2.4637,2.4315,2.3788,2.2998,2.3268,2.2715,2.1185,2.1535,2.1747,2.1741,2.1741,2.1741,2.1741,2.1741,2.1741,2.1741,2.1741,2.1741,2.1741,2.1741,2.1741,2.1741,2.1741,2.1741,2.1741,2.1741,2.1741,2.1741,2.1741,2.1741,2.1741,0.0,0.0,0.0,0.0,0.0,0.0,0.0,0.0,0.0,0.0,0.0,0.9092,0.9092,0.8834,0.0,0.0,0.0,0.0,0.8244,0.0,0.0,1.1509,1.1683,1.1939,1.2351,1.2305,1.2256,1.219,1.2147,1.2355,0.0,0.0,1.3,1.3011,1.3081,1.2816,1.2309,1.224,1.2217,1.2217,1.2217,1.2031,1.174,1.1259,1.0866,1.0546,1.0419,1.039,1.0582,1.1255,1.1597,0.0,0.0,0.0,1.2516,1.396,1.4017,0.0,0.0,0.0,0.0,0.0,0.0,0.0,0.0,0.0,2.0641,2.1066,2.1279,2.1399,2.1847,2.2042,2.2421,2.3235,2.3429,2.3695,2.436,2.3519,2.299,2.3372,2.2371,2.1993,2.3065,2.2981,2.3323,2.4219,2.3601,2.2982,2.2532,2.2536,2.2108,2.1167,2.1845,2.2053,2.1731,2.1741,2.1741,2.1741,2.1741,2.1741,2.1741,2.1741,2.1741,2.1741,2.1741,2.1741,2.1741,2.1741,2.1741,2.1741,2.1741,2.1741,2.1741,2.1741,2.1741,2.1741,0.0,0.0,0.0,0.0,0.0,0.0,0.0,0.0,0.0,0.0,0.0,0.9092,0.9092,0.8971,0.0,0.0,0.0,0.0,0.8598,0.8942,0.0,1.0791,1.0878,1.0975,1.1222,1.1325,1.1402,1.1476,1.1578,0.0,0.0,1.3271,1.3432,1.3707,1.3449,1.3145,1.2881,1.2355,1.1952,1.164,1.1735,1.1627,1.1319,1.0764,1.0577,1.0565,1.0145,1.0098,1.0351,1.0697,1.1159,1.1673,1.2302,0.0,0.0,0.0,1.3776,0.0,0.0,0.0,0.0,0.0,0.0,0.0,1.9459,0.0,2.0469,2.0699,2.0963,2.1227,2.1456,2.1732,2.2076,2.2524,2.2834,2.319,2.3778,2.3095,2.2758,2.3338,2.283,2.2681,2.3224,2.353,2.3824,2.42,2.3897,2.3397,2.2766,2.2945,2.2714,2.182,2.189,2.1967,2.2072,2.1558,2.1502,2.1741,2.1741,2.1741,2.1741,2.1741,2.1741,2.1741,2.1741,2.1741,2.1741,2.1741,2.1741,2.1741,2.1741,2.1741,2.1741,2.1741,2.1741,2.1741,0.0,0.0,0.0,0.0,0.0,0.0,0.0,0.0,0.0,0.0,0.0,0.0,0.8971,0.0,0.0,0.0,0.0,0.0,0.8582,0.0,0.0,0.0,0.9914,0.995,0.9838,1.0319,1.053,1.0549,0.0,0.0,1.3409,1.3535,1.3937,0.0,1.4029,1.3609,1.3191,1.2431,1.1861,1.1496,1.1511,1.1426,1.1312,1.0795,1.0729,1.0816,1.009,1.0061,1.0311,1.0283,1.0715,1.1385,1.1998,1.2123,0.0,0.0,0.0,0.0,0.0,0.0,0.0,0.0,0.0,0.0,0.0,0.0,2.0067,2.0205,2.063,2.0974,2.0974,2.1388,2.1778,2.1904,2.2249,2.2662,2.3248,2.2835,2.275,2.3358,2.3368,2.3372,2.3519,2.397,2.42,2.42,2.42,2.3824,2.3075,2.3479,2.3351,2.2459,2.2281,2.2234,2.2291,2.1643,2.1429,2.1741,2.1741,2.1741,2.1741,2.1741,2.1741,2.1741,2.1741,2.1741,2.1741,2.1741,2.1741,2.1741,2.1741,2.1741,2.1741,2.1741,2.1741,2.1741,0.0,0.0,0.0,0.0,0.0,0.0,0.0,0.0,0.0,0.0,0.0,0.0,0.8617,0.8404,0.8119,0.7744,0.0,0.0,0.0,0.0,0.0,0.0,0.0,0.0,0.8604,0.9601,0.9953,0.9566,0.0,0.0,1.2965,1.3374,1.4121,1.505,1.4568,1.3549,1.2175,1.2189,1.2156,1.2027,1.1669,1.1509,1.148,1.1466,1.1208,1.0818,1.0422,1.0275,1.0303,1.0302,1.0332,1.0576,1.1823,1.1883,1.181,0.0,0.0,0.0,0.0,0.0,0.0,0.0,0.0,0.0,0.0,0.0,1.9114,1.9631,2.0113,2.0446,2.0446,2.0859,2.1365,2.1847,2.195,2.2212,2.2922,2.3202,2.3442,2.3653,2.3962,2.4116,2.4116,2.4189,2.42,2.42,2.42,2.3824,2.3075,2.3762,2.3616,2.2449,2.3105,2.3144,2.2395,2.1942,2.1713,2.1741,2.1741,2.1741,2.1741,2.1741,2.1741,2.1741,2.1741,2.1741,2.1741,2.1741,2.1741,2.1741,2.1741,2.1741,2.1741,2.1741,2.1741,2.1741,0.0,0.0,0.0,0.0,0.0,0.0,0.0,0.0,0.0,0.0,0.0,0.0,0.0,0.8244,0.8062,0.7715,0.7393,0.0,0.0,0.0,0.0,0.0,0.0,0.0,0.0,0.8641,0.8993,0.0,0.0,1.0899,1.2401,1.2597,1.3065,1.3684,1.3822,1.3594,1.302,1.2134,1.1703,1.1572,1.1236,1.1226,1.1348,1.1171,1.1211,1.1205,1.0846,1.0698,1.0671,1.0695,1.0503,1.0397,1.1145,1.1053,1.0925,1.2005,1.2872,0.0,0.0,0.0,0.0,0.0,0.0,1.7525,1.7959,1.8492,1.9011,1.9264,1.9655,2.0044,2.0354,2.0825,2.129,2.1399,2.1433,2.1682,2.2189,2.2363,2.2708,2.3421,2.3592,2.3844,2.4166,2.42,2.42,2.42,2.42,2.4043,2.3824,2.4043,2.3977,2.3552,2.3327,2.2703,2.1549,2.1418,2.1328,2.1337,2.1603,2.1741,2.1741,2.1741,2.1741,2.1741,2.1741,2.1741,2.1741,2.1741,2.1741,2.1741,2.1741,2.1741,2.1741,2.1741,2.1741,2.1741,0.0,0.0,0.0,0.0,0.0,0.0,0.0,0.0,0.8138,0.8187,0.0,0.0,0.0,0.0,0.7908,0.7569,0.7334,0.7196,0.7196,0.7196,0.0,0.0,0.0,0.0,0.0,0.8194,0.8444,0.8295,0.9044,0.0,0.0,1.1458,1.2008,1.2552,1.2952,1.3051,1.284,1.2259,1.1747,1.1335,1.1172,1.1295,1.1548,1.1376,1.149,1.1636,1.126,1.1113,1.1094,1.0947,1.0726,1.0572,1.0833,1.0735,1.0604,1.119,1.1992,1.2935,1.3795,0.0,0.0,0.0,0.0,1.7065,1.7635,1.8143,1.8504,1.8732,1.9183,1.9586,1.9849,2.032,2.0779,2.1175,2.1221,2.1284,2.1617,2.1812,2.2237,2.3087,2.3269,2.3638,2.4143,2.42,2.42,2.42,2.42,2.42,2.42,2.42,2.4043,2.3824,2.3154,2.2216,2.1082,2.0978,2.0979,2.1108,2.1392,2.1603,2.1741,2.1741,2.1741,2.1741,2.1741,2.1741,2.1741,2.1741,2.1741,2.1741,2.1741,2.1741,2.1741,2.1741,2.1741,2.1741,0.0,0.0,0.0,0.0,0.0,0.0,0.0,0.0,0.7432,0.8101,0.0,0.0,0.0,0.0,0.0,0.7244,0.7214,0.7214,0.7196,0.7196,0.0,0.0,0.0,0.0,0.7223,0.8308,0.8308,0.7134,0.8479,0.8907,0.851,0.995,1.1025,1.1729,1.2015,1.1879,1.1521,1.2505,1.2406,1.1489,1.1491,1.1743,1.2117,1.2115,1.2076,1.203,1.1645,1.1508,1.1443,1.1076,1.0929,1.0934,1.0897,1.0925,1.0919,1.0919,1.1521,1.234,0.0,0.0,0.0,0.0,0.0,0.0,1.7695,1.782,1.7676,1.8012,1.8573,1.9043,1.8953,1.9321,1.9998,2.1037,2.121,2.121,2.1221,2.1594,2.2099,2.2593,2.3098,2.3603,2.412,2.4177,2.4177,2.42,2.42,2.42,2.42,2.42,2.3824,2.3001,2.2597,2.1957,2.1063,2.0697,2.0695,2.1071,2.1108,2.1337,2.1642,2.1731,2.1741,2.1741,2.1741,2.1741,2.1741,2.1741,2.1741,2.1741,2.1741,2.1741,2.1741,2.1741,2.1741,2.1741,0.0,0.0,0.0,0.0,0.0,0.6018,0.6117,0.6959,0.754,0.0,0.0,0.0,0.7401,0.7583,0.7738,0.7643,0.7652,0.7515,0.7214,0.7196,0.7196,0.7196,0.7913,0.8106,0.7652,0.8024,0.8016,0.7538,0.7776,0.7919,0.7919,0.8442,0.9088,0.9864,1.0261,1.0365,1.0256,1.112,1.1469,1.146,1.1165,1.148,1.2117,1.2115,1.2076,1.2107,1.1957,1.1911,1.1893,1.1831,1.1553,1.1288,1.1085,1.1042,1.1074,1.1169,1.181,1.2518,1.2652,0.0,0.0,0.0,0.0,0.0,1.6454,1.6781,1.7081,1.7746,1.7861,1.8132,1.8916,1.9068,1.9447,2.0458,2.0618,2.0745,2.1175,2.1284,2.156,2.2076,2.226,2.2685,2.3569,2.3649,2.3798,2.4166,2.42,2.42,2.42,2.42,2.3824,2.3001,2.2357,2.1568,2.0635,2.0286,2.0145,2.0264,2.082,2.1175,2.1293,2.1526,2.1741,2.1741,2.1741,2.1741,2.1741,2.1741,2.1741,2.1741,2.1741,2.1741,2.1741,2.1741,2.1741,2.1741,0.0,0.0,0.0,0.5602,0.6263,0.6776,0.6832,0.7365,0.7732,0.0,0.0,0.0,0.778,0.7959,0.8072,0.8072,0.7917,0.7684,0.747,0.7296,0.7196,0.7196,0.7858,0.8063,0.7794,0.8246,0.815,0.7481,0.7656,0.7517,0.7077,0.7363,0.7814,0.8427,0.9016,0.9348,0.9536,1.012,1.0627,1.0993,1.112,1.1444,1.1893,1.2018,1.2076,1.2076,1.2076,1.2076,1.2076,1.2076,1.181,1.149,1.1388,1.1183,1.1034,1.1221,1.1695,1.2207,1.2528,1.2979,1.3556,1.4387,0.0,0.0,1.5819,1.6086,1.6447,1.758,1.7744,1.7897,1.8646,1.8742,1.8976,1.9941,2.0113,2.0354,2.1129,2.1221,2.1353,2.1858,2.1927,2.2237,2.3041,2.3121,2.3339,2.3844,2.3879,2.3971,2.4189,2.3897,2.3298,2.2531,2.169,2.0847,2.0001,1.978,1.976,1.9943,2.0386,2.0763,2.1078,2.1302,2.1526,2.1741,2.1741,2.1741,2.1741,2.1741,2.1741,2.1741,2.1741,2.1741,2.1741,2.1741,2.1741,2.1741,0.0,0.0,0.6189,0.6738,0.7405,0.7858,0.7955,0.7927,0.8018,0.0,0.8152,0.8063,0.859,0.859,0.8562,0.8562,0.8152,0.7872,0.7794,0.7433,0.7225,0.7196,0.7643,0.7862,0.7794,0.8647,0.8489,0.7196,0.7781,0.7386,0.611,0.6486,0.6865,0.7204,0.797,0.8572,0.907,0.9528,0.9924,1.0385,1.1104,1.1471,1.159,1.1938,1.2076,1.2076,1.2076,1.2076,1.2076,1.2076,1.1838,1.1601,1.1743,1.1435,1.1129,1.1363,1.1536,1.178,1.2414,1.2681,1.3008,1.4167,1.4,0.0,1.5421,1.5559,1.5733,1.7166,1.7517,1.7693,1.81,1.8186,1.849,1.9367,1.962,2.0033,2.1083,2.1221,2.133,2.1789,2.1847,2.2042,2.2547,2.2593,2.2811,2.3316,2.3338,2.3661,2.4166,2.3519,2.2767,2.1993,2.1078,2.0226,1.946,1.9381,1.9494,1.9861,1.9889,2.0241,2.0934,2.1042,2.1337,2.1633,2.1642,2.1741,2.1741,2.1741,2.1741,2.1741,2.1741,2.1741,2.1741,2.1741,2.1741,2.1741,0.0,0.6552,0.6375,0.7016,0.759,0.7923,0.7849,0.8133,0.8406,0.8489,0.8424,0.8664,0.94,0.9179,0.8977,0.8977,0.8669,0.8265,0.7812,0.7513,0.7312,0.7196,0.7941,0.8188,0.7794,0.8691,0.8533,0.7196,0.7101,0.655,0.5561,0.5368,0.5467,0.5824,0.6617,0.737,0.8131,0.9217,0.9919,1.0358,1.0827,1.1426,1.1966,1.2049,1.2076,1.2076,1.2076,1.2076,1.2076,1.2076,1.207,1.2006,1.2162,1.2106,1.2041,1.2234,1.2339,1.2454,1.2503,1.255,1.2676,1.3173,1.3353,0.0,1.3959,1.4272,1.4623,1.5092,1.5146,1.5398,1.635,1.6763,1.7274,1.8235,1.9149,2.0033,2.1083,2.1221,2.1256,2.1307,2.1307,2.1514,2.2019,2.2076,2.2283,2.2788,2.3213,2.3661,2.4166,2.4043,2.3593,2.2767,2.1993,2.1145,2.0304,1.9608,1.9347,1.9421,1.9761,1.999,2.0133,2.0808,2.1116,2.1284,2.1526,2.1741,2.1741,2.1741,2.1741,2.1741,2.1741,2.1741,2.1741,2.1741,2.1741,2.1741,0.7018,0.7036,0.7192,0.7847,0.8447,0.8838,0.8793,0.8793,0.894,0.9345,0.9409,0.9483,0.9664,0.9529,0.9409,0.9409,0.906,0.8653,0.8179,0.7817,0.7494,0.7205,0.7821,0.8161,0.8161,0.8819,0.8829,0.8191,0.7599,0.7017,0.6412,0.556,0.5602,0.6397,0.6547,0.7308,0.8551,0.9142,0.9879,1.0696,1.1058,1.1416,1.1801,1.2003,1.2076,1.2076,1.2076,1.2076,1.2076,1.2076,1.2254,1.242,1.2572,1.267,1.28,1.2799,1.2733,1.2686,1.2537,1.2382,1.2419,1.2857,1.2864,0.0,0.0,1.3589,1.3858,1.4803,1.4768,1.4832,1.5834,1.5974,1.6276,1.717,1.8047,1.8962,1.9812,2.0637,2.1221,2.1221,2.1221,2.1261,2.1525,2.1548,2.1755,2.226,2.3006,2.3486,2.381,2.3688,2.3446,2.3001,2.2231,2.1385,2.0537,2.007,1.9687,1.9301,1.9506,1.9711,1.9935,2.0283,2.0753,2.1069,2.1298,2.1539,2.1741,2.1741,2.1741,2.1741,2.1741,2.1741,2.1741,2.1741,2.1741,2.1741,0.6776,0.7314,0.7963,0.8636,0.9291,0.9753,0.9783,0.9466,0.9474,1.022,1.0312,1.022,0.9971,0.9944,0.9944,0.9944,0.9492,0.9106,0.8756,0.8243,0.7821,0.7473,0.7785,0.8087,0.8412,0.8884,0.9087,0.8956,0.8121,0.7559,0.731,0.6083,0.612,0.7148,0.7034,0.7812,0.9189,0.9291,0.999,1.1121,1.1398,1.1535,1.1636,1.2006,1.2076,1.2076,1.2076,1.2172,1.2177,1.2153,1.2439,1.2825,1.2846,1.3062,1.3286,1.3156,1.2991,1.2865,1.271,1.2566,1.2512,1.2866,1.2642,1.2553,0.0,0.0,0.0,1.4491,1.4476,1.4445,1.5185,1.5102,1.5217,1.597,1.6817,1.761,1.8202,1.9594,2.0642,2.1009,2.1164,2.1221,2.1221,2.1141,2.1273,2.1881,2.2617,2.3166,2.3361,2.3262,2.3224,2.3224,2.2456,2.1614,2.0769,2.0615,2.0079,1.9301,1.9301,1.9497,1.9818,1.9861,2.0223,2.092,2.1039,2.13,2.1621,2.1704,2.1741,2.1741,2.1741,2.1741,2.1741,2.1741,2.1741,2.1741,0.6705,0.7249,0.7845,0.8885,0.9477,0.9783,0.9783,0.9716,0.9805,1.0257,1.0312,1.0431,1.0735,1.0772,1.0772,1.0772,1.0113,0.97,0.9584,0.8884,0.8465,0.836,0.8465,0.8369,0.8061,0.879,0.8827,0.8117,0.763,0.7135,0.6694,0.6249,0.6142,0.6407,0.7701,0.8616,0.9226,0.9901,1.0671,1.1472,1.1471,1.17,1.2061,1.2058,1.2076,1.2076,1.2076,1.2356,1.2595,1.2245,1.258,1.3158,1.2834,1.3009,1.3286,1.3295,1.3429,1.3563,1.3437,1.3588,1.3662,1.3223,1.3227,1.3187,1.2598,0.0,1.267,1.2501,0.0,1.2546,1.3067,0.0,0.0,1.4551,1.5752,1.6637,1.6743,1.7554,1.8736,2.0312,2.1008,2.1336,2.1221,2.0756,2.0894,2.1858,2.2042,2.249,2.3326,2.3841,2.4043,2.4043,2.3298,2.2456,2.169,2.0924,2.0079,1.9301,1.9301,1.9301,1.9408,1.9751,1.9933,2.0056,2.0771,2.1135,2.1209,2.1585,2.1741,2.1741,2.1741,2.1741,2.1741,2.1741,2.1741,2.1741,0.6162,0.6777,0.7315,0.7792,0.8694,0.9266,0.9122,0.9831,1.0385,1.0321,1.0445,1.047,1.0409,1.0391,1.0391,1.0391,1.0101,0.9774,0.9421,0.8841,0.8526,0.8575,0.8388,0.8512,0.8986,0.8892,0.8919,0.9049,0.8065,0.754,0.7396,0.7027,0.7252,0.8013,0.863,0.9571,1.0643,1.065,1.0855,1.1186,1.1388,1.159,1.1764,1.1994,1.2076,1.2104,1.2383,1.2577,1.2724,1.2755,1.3167,1.3607,1.3424,1.3662,1.3956,1.3821,1.3849,1.3904,1.3732,1.3666,1.3683,1.3484,1.3293,1.31,1.2804,1.2673,1.2594,1.2559,0.0,0.0,0.0,0.0,0.0,0.0,1.4292,1.5001,1.5158,1.6175,1.7423,1.8707,1.9443,2.0059,2.0699,2.0538,2.071,2.1433,2.1479,2.1927,2.2949,2.3477,2.389,2.4189,2.3897,2.3065,2.1832,2.1451,2.0615,1.9301,1.9301,1.9301,1.9311,1.9485,1.9659,1.9933,2.0493,2.0897,2.1135,2.1566,2.1741,2.1741,2.1741,2.1741,2.1741,2.1741,2.1741,2.1741,0.574,0.0,0.6816,0.703,0.7969,0.8677,0.8658,0.9756,1.0532,1.0425,1.0582,1.0617,1.0407,1.0195,1.0092,1.0092,1.0001,0.9773,0.9376,0.883,0.8651,0.897,0.8593,0.8818,0.9704,0.9198,0.9161,0.9655,0.857,0.808,0.8211,0.7932,0.8272,0.9168,0.9535,1.0405,1.1537,1.1204,1.114,1.1306,1.1453,1.1553,1.1682,1.1966,1.2149,1.2328,1.2614,1.2862,1.3083,1.3231,1.3635,1.4038,1.3919,1.4176,1.4451,1.4264,1.4287,1.4336,1.4147,1.4061,1.4005,1.3867,1.3527,1.3148,1.3023,1.2774,1.2676,1.2927,1.274,0.0,0.0,0.0,1.2461,1.2687,0.0,1.376,1.3922,1.4851,1.5998,1.7269,1.8059,1.8785,1.9588,1.9571,1.9823,2.0642,2.0762,2.127,2.2421,2.3087,2.3615,2.3982,2.412,2.3508,2.2145,2.1918,2.1068,1.9608,1.9381,1.9301,1.9301,1.9301,1.9432,1.9734,2.0135,2.0585,2.0979,2.1392,2.163,2.1741,2.1741,2.1741,2.1741,2.1741,2.1741,2.1741,0.5665,0.6099,0.0,0.7194,0.7661,0.8134,0.8704,0.9392,1.0057,1.0604,1.0668,1.0822,1.124,1.0754,1.0383,1.0383,1.0032,0.9785,0.9762,0.9148,0.9141,0.9917,0.94,0.9301,0.9783,0.9755,0.9599,0.93,0.8814,0.8633,0.878,0.8761,0.878,0.8885,1.033,1.106,1.1249,1.1389,1.1787,1.2209,1.1684,1.1718,1.2058,1.2126,1.2365,1.2696,1.2715,1.323,1.3782,1.3415,1.3827,1.4423,1.4011,1.4176,1.4506,1.4497,1.4725,1.4951,1.4932,1.5157,1.5118,1.4282,1.4024,1.3758,1.2878,1.2793,1.2913,1.3086,1.3196,1.3313,1.344,1.3377,1.3131,1.2779,1.3065,0.0,0.0,1.3359,1.4208,1.6306,1.7319,1.7863,1.7883,1.7496,1.7864,1.9416,1.9544,2.0239,2.1827,2.2834,2.3383,2.3395,2.3936,2.3824,2.3001,2.222,2.1385,2.0459,1.9687,1.9301,1.9301,1.9301,1.9311,1.9347,1.9769,2.0173,2.0567,2.0961,2.1374,2.1741,2.1741,2.1741,2.1741,2.1741,2.1741,2.1741,0.0,0.0,0.0,0.6535,0.724,0.7998,0.8688,0.9361,0.988,1.0068,1.0014,1.0,1.0167,0.9969,0.9865,0.9865,0.9768,0.961,0.9483,0.9255,0.9234,0.9533,0.9497,0.9581,0.9786,0.9157,0.8888,0.9113,0.8744,0.8648,0.8739,0.931,0.9592,0.9639,1.0677,1.1327,1.1675,1.1949,1.2003,1.1873,1.1592,1.1883,1.2485,1.2177,1.2374,1.2752,1.2984,1.3424,1.3901,1.4057,1.4286,1.4488,1.4341,1.4396,1.4506,1.4606,1.4793,1.5029,1.5098,1.5147,1.5061,1.4651,1.4202,1.3695,1.3326,1.3096,1.2993,1.3091,1.315,1.3253,1.3341,1.335,1.325,1.3103,1.3204,1.3195,0.0,1.2883,1.329,1.4282,1.5553,1.6616,1.7272,1.7525,1.8181,1.9394,1.9555,2.033,2.1793,2.2249,2.2685,2.3349,2.3615,2.3184,2.222,2.1918,2.1078,1.9687,1.945,1.9301,1.9301,1.9301,1.9301,1.9311,1.9752,2.0116,2.0549,2.0943,2.1355,2.1741,2.1741,2.1741,2.1741,2.1741,2.1741,2.1741,0.6199,0.6333,0.6471,0.6371,0.7071,0.7838,0.8401,0.9133,0.9611,0.9734,0.9636,0.9614,0.9614,0.9413,0.9309,0.9309,0.9309,0.9275,0.912,0.9055,0.9083,0.9392,0.9468,0.9621,0.9809,0.9148,0.8945,0.9153,0.9062,0.9072,0.916,0.9758,1.0019,1.0018,1.0799,1.1327,1.1629,1.2041,1.2134,1.1901,1.1895,1.2264,1.2706,1.2553,1.2755,1.3131,1.3406,1.3763,1.4148,1.4423,1.4515,1.4515,1.4515,1.4515,1.4506,1.4616,1.4725,1.4911,1.5029,1.5134,1.5143,1.4888,1.4582,1.4176,1.36,1.3406,1.3345,1.336,1.3199,1.3327,1.4072,1.3738,1.3435,1.367,1.3607,1.3305,0.0,1.2715,1.2871,1.3241,1.4317,1.5303,1.6088,1.6389,1.7137,1.8513,1.8731,1.9553,2.1255,2.1732,2.2092,2.2524,2.2815,2.2556,2.1603,2.1456,2.0769,1.9687,1.946,1.9301,1.9301,1.9301,1.9301,1.9301,1.9594,1.9903,2.0338,2.0732,2.1145,2.153,2.1676,2.1741,2.1741,2.1741,2.1741,2.1741,0.7101,0.7054,0.6981,0.6707,0.7121,0.7595,0.7909,0.8616,0.9255,0.9518,0.9562,0.9562,0.9562,0.9113,0.8804,0.8804,0.8804,0.8804,0.8804,0.8602,0.8816,0.9555,0.9321,0.9407,0.9743,0.9719,0.9604,0.9375,0.9646,0.9828,0.992,1.0049,1.0068,1.0018,1.0689,1.1053,1.1144,1.1824,1.2184,1.2339,1.2619,1.2742,1.2825,1.3167,1.3571,1.391,1.3892,1.4157,1.4515,1.4515,1.4515,1.4515,1.4515,1.4515,1.4515,1.4515,1.4616,1.4715,1.4734,1.5153,1.5491,1.5053,1.5232,1.5107,1.3727,1.3762,1.4054,1.3967,1.3441,1.3546,1.5524,1.4586,1.3778,1.4396,1.4157,1.3607,1.289,1.2761,1.2908,1.3277,1.3653,1.4038,1.4442,1.4169,1.4783,1.6863,1.7124,1.8132,2.0159,2.119,2.1463,2.0873,2.1642,2.1782,2.1167,2.0705,2.0459,2.0459,1.9687,1.9301,1.9301,1.9301,1.9301,1.9301,1.9301,1.954,1.9962,2.0356,2.075,2.1145,2.1575,2.1741,2.1741,2.1741,2.1741,2.1741,0.7412,0.7535,0.7629,0.7602,0.7709,0.7909,0.8216,0.8473,0.8724,0.8967,0.9008,0.9008,0.9008,0.8857,0.8804,0.8804,0.8804,0.8804,0.8804,0.9089,0.9179,0.9001,0.9334,0.9343,0.9047,0.8875,0.8954,0.9338,0.9514,0.9689,0.9887,1.0174,1.0143,0.99,1.0723,1.1088,1.1135,1.192,1.2401,1.2628,1.2678,1.3083,1.358,1.369,1.3992,1.4304,1.3992,1.4157,1.4515,1.4515,1.4515,1.4515,1.4515,1.4515,1.4515,1.4515,1.4616,1.4781,1.5037,1.5265,1.5458,1.5789,1.5623,1.5275,1.4981,1.4817,1.4781,1.493,1.4833,1.4863,1.5259,1.496,1.4662,1.4501,1.4157,1.3809,1.3598,1.3314,1.3286,1.3681,1.3818,1.3928,1.4029,1.4383,1.498,1.5888,1.6711,1.7651,1.887,1.9148,1.9541,2.0039,2.0618,2.0648,2.0247,2.0399,2.0235,1.9608,1.9381,1.9301,1.9301,1.9301,1.9301,1.9301,1.9301,1.954,1.9962,2.0356,2.075,2.1145,2.1575,2.1741,2.1741,2.1741,2.1741,2.1741,0.7695,0.7916,0.8123,0.8123,0.8123,0.8183,0.835,0.8484,0.8624,0.8784,0.8804,0.8804,0.8804,0.8804,0.8804,0.8804,0.8804,0.8804,0.8804,0.9061,0.9106,0.8804,0.9113,0.9113,0.8811,0.8651,0.8857,0.9437,0.9439,0.9641,1.0048,1.0109,1.0037,0.982,1.0628,1.099,1.1064,1.2057,1.2563,1.2752,1.3101,1.3479,0.0,1.4084,1.4304,1.4478,1.424,1.4313,1.4515,1.4515,1.4515,1.4515,1.4515,1.4515,1.4515,1.4515,1.4685,1.4921,1.5161,1.5494,1.5817,1.6188,1.6132,1.591,1.5505,1.5316,1.5283,1.5265,1.5042,1.4999,1.5769,1.5196,1.4648,1.451,1.4157,1.3882,1.3882,1.3543,1.3378,1.3598,1.3626,1.3626,1.3626,1.4101,1.4628,1.5221,1.5994,1.6847,1.7781,1.8186,1.8513,1.8704,1.9342,1.9459,1.9098,1.9516,1.9587,1.9301,1.9301,1.9301,1.9301,1.9301,1.9301,1.9301,1.9301,1.9439,1.9696,2.0283,2.0649,2.0906,2.1502,2.1741,2.1741,2.1741,2.1741,2.1741,0.8036,0.823,0.843,0.843,0.843,0.843,0.843,0.8611,0.8764,0.8804,0.8804,0.8824,0.8858,0.8864,0.8878,0.8918,0.8918,0.8918,0.8918,0.8884,0.8864,0.8864,0.8831,0.8804,0.8804,0.8804,0.9061,0.9614,0.945,0.9668,1.0148,0.9965,0.9864,0.9895,1.0668,1.1012,1.114,1.2245,1.2752,1.2862,1.358,1.391,1.4002,1.4368,1.4515,1.4515,1.4515,1.4515,1.4515,1.4515,1.4515,1.4524,1.457,1.4588,1.4598,1.4653,1.4909,1.5194,1.5239,1.578,1.6331,1.6386,1.6652,1.6669,1.5685,1.5624,1.5692,1.5547,1.4942,1.4899,1.6501,1.5397,1.4258,1.4321,1.4145,1.3965,1.3965,1.3671,1.3433,1.3378,1.3424,0.0,1.3231,1.3616,1.41,1.4634,1.5166,1.587,1.6838,1.7646,1.7805,1.7356,1.8075,1.8347,1.8119,1.8513,1.8907,1.9301,1.9301,1.9301,1.9301,1.9301,1.9301,1.9301,1.9301,1.9301,1.9356,2.0127,2.0503,2.0668,2.1438,2.1741,2.1741,2.1741,2.1741,2.1741,0.831,0.853,0.8731,0.8731,0.8731,0.8731,0.8731,0.8571,0.8537,0.8778,0.8804,0.8898,0.9084,0.911,0.9265,0.9506,0.9532,0.9532,0.9532,0.9299,0.911,0.911,0.8931,0.8804,0.8804,0.8804,0.9061,0.9614,0.934,0.9533,1.0021,1.0117,1.0161,1.0247,0.0,1.1563,1.1951,1.2485,1.2865,1.3231,1.3699,1.4093,1.4414,1.4488,1.4515,1.4515,1.4515,1.4515,1.4515,1.4515,1.4515,1.457,1.49,1.5001,1.5065,1.5386,1.5533,1.5661,1.601,1.6211,1.6395,1.6725,1.6853,1.6821,1.6678,1.666,1.666,1.6651,1.6528,1.636,1.6382,1.5569,1.4648,1.3822,1.4076,1.4405,1.4405,1.4341,1.4167,1.3818,1.4084,1.3901,1.2874,1.3451,1.3939,1.4044,1.4443,1.506,1.5923,1.6092,1.6421,1.6977,1.7459,1.7842,1.8119,1.8513,1.8907,1.9301,1.9301,1.9301,1.9301,1.9301,1.9301,1.9301,1.9301,1.9301,1.9338,1.9833,2.042,2.1053,2.1548,2.1741,2.1741,2.1741,2.1741,2.1741,0.8597,0.8711,0.8804,0.8804,0.8931,0.9031,0.9031,0.9045,0.9051,0.9031,0.9165,0.9312,0.9452,0.9472,0.9526,0.9673,0.9686,0.9686,0.9686,0.9552,0.9472,0.9472,0.9185,0.9031,0.9031,0.8884,0.9211,1.0012,0.9684,0.9923,1.0754,1.0632,1.057,1.0643,1.1214,1.1819,1.2457,1.2819,1.3231,1.3635,1.4047,1.4332,1.4515,1.4515,1.4515,1.4515,1.4515,1.4643,1.4818,1.4818,1.4818,1.4882,1.5285,1.5404,1.5441,1.5634,1.5845,1.6056,1.6257,1.6468,1.667,1.6862,1.6908,1.6908,1.6908,1.6908,1.6908,1.6908,1.6743,1.6413,1.5799,1.5097,1.4453,1.4072,1.401,1.401,1.401,1.401,1.38,1.3411,1.3711,1.3826,1.3378,1.3846,1.4029,1.3607,1.3956,1.4533,1.534,1.5579,1.5964,1.6578,1.6982,1.7486,1.8119,1.8311,1.8705,1.9301,1.9301,1.9301,1.9301,1.9301,1.9301,1.9301,1.9301,1.9301,1.9347,1.998,2.0576,2.1145,2.1575,2.1741,2.1741,2.1741,2.1741,2.1741,0.8804,0.8858,0.8898,0.8898,0.9138,0.9283,0.9283,0.9586,0.9673,0.9372,0.9539,0.9706,0.9773,0.978,0.98,0.9866,0.9873,0.9873,0.9873,0.9813,0.978,0.978,0.9492,0.9283,0.9283,0.9153,0.9408,1.0119,0.9964,1.0205,1.0989,1.0912,1.0985,1.1177,1.1601,1.2135,1.2752,1.3204,1.3598,1.3919,1.4341,1.4515,1.4515,1.4515,1.4561,1.4634,1.4634,1.4891,1.5239,1.5331,1.5304,1.5294,1.5698,1.5826,1.5835,1.5918,1.6184,1.6441,1.6441,1.667,1.6908,1.6908,1.6908,1.6908,1.6908,1.6908,1.6908,1.6908,1.6587,1.5999,1.4863,1.4452,1.4258,1.4072,1.3761,1.3511,1.3511,1.3511,1.3374,1.2947,1.3338,1.36,1.3734,1.3974,1.3928,1.3451,1.3791,1.4368,1.5184,1.5515,1.5918,1.6422,1.6743,1.7257,1.7981,1.8082,1.8476,1.9173,1.9265,1.9301,1.9301,1.9301,1.9301,1.9301,1.9301,1.9301,1.9366,2.0182,2.0704,2.1034,2.1539,2.1741,2.1741,2.1741,2.1741,2.1741,0.8804,0.9018,0.9143,0.9143,0.9446,0.9646,0.9646,0.9886,0.9973,0.9679,0.9666,0.9786,1.0047,1.0074,1.018,1.0517,1.0544,1.0544,1.0544,1.0227,1.0074,1.0074,0.98,0.9646,0.9646,0.9841,0.9733,0.9302,0.9786,0.9712,0.9237,1.0325,1.1226,1.2033,1.2429,1.265,1.277,1.3497,1.3855,1.3919,1.4341,1.4515,1.4515,1.4515,1.4735,1.5047,1.5047,1.5294,1.5689,1.6074,1.5955,1.5707,1.6129,1.6257,1.6331,1.6688,1.6817,1.6853,1.6853,1.6881,1.6908,1.6908,1.6908,1.6908,1.6908,1.6908,1.6908,1.6908,1.6587,1.5659,1.3638,1.4202,1.4515,1.2944,1.313,1.3511,1.3511,1.3511,1.3374,1.2947,1.3451,1.3725,1.3387,1.3039,1.3112,1.3772,1.4222,1.4799,1.5588,1.567,1.6046,1.6826,1.689,1.711,1.755,1.7935,1.8339,1.877,1.9127,1.9301,1.9301,1.9301,1.9301,1.9301,1.9301,1.9301,1.9366,2.0182,2.0539,2.0649,2.1429,2.1741,2.1741,2.1741,2.1741,2.1741,0.9332,0.9426,0.9506,0.9506,0.9753,0.994,0.994,1.0194,1.0341,1.0221,1.0207,1.0254,1.0374,1.0381,1.0428,1.0611,1.0624,1.0624,1.0624,1.0448,1.0381,1.0381,1.01,1.0118,1.0533,1.0508,1.0509,1.0558,1.0568,1.0438,1.0142,1.1072,1.1946,1.281,1.2975,1.3176,1.3415,1.3745,1.4029,1.4277,1.4442,1.4653,1.4864,1.4864,1.5111,1.545,1.545,1.5716,1.6092,1.6257,1.6211,1.6138,1.6541,1.667,1.6707,1.6862,1.6908,1.6908,1.6908,1.6908,1.6908,1.6908,1.6908,1.6908,1.6908,1.6908,1.6908,1.6908,1.6395,1.5429,1.3844,1.3568,1.3372,1.2877,1.2531,1.2282,1.2282,1.2282,1.2411,1.2631,1.2914,1.3338,1.3981,1.3644,1.3635,1.4222,1.3965,1.4231,1.5285,1.556,1.5955,1.6532,1.678,1.7092,1.7495,1.7917,1.832,1.8715,1.9118,1.9301,1.9301,1.9301,1.9301,1.9301,1.9301,1.9301,1.9366,2.0182,2.0521,2.0594,2.142,2.1741,2.1741,2.1741,2.1741,2.1741,0.9686,0.9753,0.9813,0.9813,1.0053,1.0247,1.0247,1.0421,1.0624,1.0624,1.0624,1.0624,1.0624,1.0624,1.0624,1.0624,1.0624,1.0624,1.0624,1.0624,1.0624,1.0624,1.0361,1.0547,1.1216,1.0894,1.1073,1.1695,1.1509,1.1277,1.1122,1.1763,1.2511,1.3305,1.3415,1.3616,1.3892,1.4011,1.4304,1.468,1.468,1.4928,1.5276,1.5276,1.5524,1.5872,1.5872,1.6138,1.6486,1.6486,1.6486,1.6541,1.6817,1.6908,1.6908,1.6908,1.6908,1.6908,1.6908,1.6908,1.6908,1.6908,1.6908,1.6908,1.6908,1.6908,1.6872,1.6762,1.6276,1.555,1.4362,1.3559,1.3154,1.3155,1.2337,1.1629,1.1629,1.1549,1.1663,1.2151,1.2303,1.2833,1.4061,1.3549,1.3447,1.4255,1.374,1.3938,1.5212,1.5542,1.5936,1.6477,1.6762,1.7037,1.7321,1.7853,1.8265,1.855,1.9054,1.9301,1.9301,1.9301,1.9301,1.9301,1.9301,1.9366,1.954,2.0237,2.0585,2.0759,2.1465,2.1741,2.1741,2.1741,2.1741,2.1741,0.9686,0.9913,1.0114,1.0114,1.0354,1.0618,1.0618,1.0618,1.0624,1.0624,1.0624,1.0624,1.0624,1.0624,1.0624,1.0624,1.0624,1.0624,1.0624,1.0624,1.0624,1.0624,1.0618,1.0863,1.1476,1.1095,1.1279,1.2113,1.2206,1.2031,1.1576,1.2189,1.2767,1.3314,1.3699,1.3882,1.391,1.4332,1.4735,1.5093,1.5093,1.5331,1.568,1.568,1.5945,1.6312,1.6312,1.656,1.6899,1.6899,1.6899,1.6899,1.6908,1.6908,1.6908,1.6908,1.6908,1.6908,1.6908,1.6908,1.6908,1.6908,1.6908,1.6908,1.6908,1.6908,1.6798,1.6404,1.6321,1.5975,1.4906,1.4624,1.4353,1.3709,1.2694,1.1963,1.1963,1.1687,1.1483,1.1483,1.1745,1.2325,1.3408,1.2199,1.2041,1.3777,1.3646,1.4136,1.5634,1.5689,1.6065,1.6872,1.6908,1.6908,1.6908,1.7715,1.8128,1.8137,1.8926,1.9301,1.9301,1.9301,1.9301,1.9301,1.9301,1.954,1.9952,2.0356,2.075,2.1145,2.1566,2.1741,2.1741,2.1741,2.1741,2.1741,1.0281,1.0354,1.0421,1.0421,1.0557,1.0624,1.0624,1.0624,1.0624,1.0624,1.0624,1.0624,1.0624,1.0624,1.0624,1.0624,1.0624,1.0624,1.0624,1.0624,1.0624,1.0624,1.0989,1.1545,1.2151,1.253,1.2775,1.3024,1.2896,1.2766,1.2651,1.2831,1.3323,1.413,1.4258,1.4313,1.4341,1.4744,1.4983,1.512,1.5395,1.5753,1.612,1.612,1.6367,1.6716,1.6716,1.6798,1.6908,1.6908,1.6908,1.6908,1.6908,1.6908,1.6908,1.6908,1.6908,1.6908,1.6908,1.6908,1.6908,1.6908,1.6908,1.6908,1.6908,1.6908,1.6798,1.6395,1.6321,1.6066,1.5195,1.4821,1.4322,1.334,1.3163,1.3006,1.2484,1.2527,1.2759,1.3192,1.3119,1.3134,1.3502,1.299,1.2939,1.3595,1.3083,1.3143,1.4049,1.4881,1.5205,1.4955,1.5695,1.6316,1.6571,1.755,1.8256,1.8531,1.9054,1.9301,1.9301,1.9301,1.9301,1.9301,1.9301,1.954,1.9962,2.0356,2.075,2.1145,2.1575,2.1741,2.1741,2.1741,2.1741,2.1741,1.0624,1.0624,1.0624,1.0624,1.0624,1.0624,1.0624,1.0624,1.0624,1.0624,1.0624,1.0624,1.0624,1.0624,1.0624,1.0624,1.0624,1.0624,1.0624,1.0624,1.0688,1.0933,1.1303,1.1971,1.3075,1.3277,1.367,1.4312,1.4135,1.4081,1.4081,1.4081,1.4396,1.4955,1.4955,1.4955,1.4974,1.5221,1.5414,1.5579,1.5826,1.6175,1.6541,1.6541,1.6688,1.6908,1.6908,1.6908,1.6927,1.7073,1.7128,1.7156,1.7312,1.7358,1.7303,1.7,1.6908,1.6908,1.6908,1.6908,1.6908,1.6908,1.6908,1.6908,1.6908,1.6908,1.6835,1.6587,1.6541,1.6397,1.591,1.5436,1.4866,1.4174,1.3989,1.3759,1.3293,1.3002,1.3001,1.3307,1.2965,1.2798,1.2929,1.2712,1.2782,1.3236,1.2858,1.2696,1.2957,1.3994,1.4509,1.4205,1.4923,1.5496,1.5936,1.7086,1.7859,1.8243,1.8952,1.9301,1.9301,1.9301,1.9301,1.9301,1.9301,1.9622,2.0173,2.042,2.0842,2.1374,2.163,2.1741,2.1741,2.1741,2.1741,2.1741,1.0561,1.0561,1.0624,1.0624,1.0624,1.0624,1.0624,1.0645,1.0651,1.0651,1.0672,1.0685,1.0685,1.0685,1.0685,1.0685,1.0665,1.0665,1.0678,1.0685,1.0932,1.1549,1.1611,1.2437,1.4093,1.3595,1.4089,1.5689,1.5689,1.5689,1.5689,1.5689,1.5689,1.5689,1.5689,1.5689,1.5689,1.5716,1.5964,1.6321,1.6349,1.6578,1.6908,1.6908,1.6927,1.6945,1.6945,1.6963,1.7046,1.7413,1.7541,1.7605,1.7999,1.8128,1.7972,1.7211,1.6972,1.6945,1.6945,1.6927,1.6908,1.6908,1.6908,1.6908,1.6908,1.6908,1.6908,1.6908,1.6908,1.6908,1.6908,1.6333,1.5833,1.5833,1.5047,1.4401,1.434,1.3483,1.2758,1.2443,1.1995,1.1857,1.2159,1.1822,1.1971,1.2873,1.2895,1.2756,1.2325,1.3093,1.3821,1.4474,1.4497,1.4751,1.5048,1.6296,1.7124,1.7492,1.8637,1.9222,1.9301,1.9301,1.9301,1.9301,1.9329,1.9797,2.0521,2.0549,2.1025,2.1741,2.1741,2.1741,2.1741,2.1741,2.1741,2.1741,1.0371,1.0498,1.0624,1.0624,1.0624,1.0624,1.0624,1.0748,1.0895,1.0895,1.1082,1.1223,1.1223,1.1223,1.1223,1.1223,1.1015,1.0982,1.1209,1.1223,1.1551,1.2343,1.2806,1.3566,1.4569,1.4892,1.5267,1.5689,1.5689,1.5689,1.5689,1.5689,1.5689,1.5689,1.5689,1.5689,1.5707,1.6037,1.623,1.6349,1.6642,1.6826,1.6908,1.6908,1.7092,1.7358,1.7358,1.7559,1.7853,1.7944,1.7981,1.799,1.8091,1.8128,1.8082,1.7889,1.7605,1.7358,1.7358,1.7138,1.6908,1.6908,1.6908,1.6908,1.6908,1.6908,1.6908,1.6908,1.6908,1.6908,1.6908,1.676,1.6473,1.5903,1.6044,1.6052,1.5486,1.5446,1.5379,1.5291,1.495,1.4524,1.4122,1.3632,1.3416,1.345,1.2639,1.2317,1.2749,1.2692,1.2771,1.3222,1.3746,1.432,1.4907,1.5858,1.6793,1.7869,1.8195,1.8647,1.9301,1.9301,1.9301,1.932,1.9641,2.0063,2.0539,2.0842,2.1273,2.1741,2.1741,2.1741,2.1741,2.1741,2.1741,2.1741,1.0308,1.0371,1.0538,1.0735,1.0712,1.0665,1.0735,1.0895,1.0995,1.0995,1.1243,1.1423,1.1423,1.1423,1.1483,1.1617,1.1363,1.1256,1.1416,1.1423,1.1901,1.3042,1.3384,1.4189,1.5371,1.5776,1.6065,1.6248,1.6248,1.6248,1.6248,1.6248,1.6248,1.6248,1.6248,1.6248,1.6257,1.6486,1.6587,1.6606,1.6817,1.7009,1.7174,1.7174,1.7431,1.7779,1.7779,1.7926,1.8155,1.833,1.8394,1.8421,1.8605,1.8669,1.8669,1.8669,1.8247,1.7743,1.755,1.7339,1.7128,1.6954,1.6908,1.6908,1.6908,1.6908,1.6908,1.6908,1.6908,1.6908,1.6908,1.6908,1.676,1.6403,1.6621,1.676,1.6333,1.6156,1.6029,1.5851,1.5443,1.4866,1.4026,1.4125,1.3902,1.3097,1.2749,1.2634,1.2641,1.2566,1.2579,1.2815,1.3334,1.3789,1.4272,1.5301,1.6516,1.7997,1.7997,1.8247,1.8727,1.9134,1.9054,1.8754,1.9579,2.0154,2.0549,2.0943,2.1355,2.1741,2.1741,2.1741,2.1741,2.1741,2.1741,2.1741,1.018,1.0238,1.0379,1.0751,1.069,1.0644,1.089,1.1002,1.1122,1.1122,1.1376,1.1557,1.1557,1.1557,1.1663,1.1911,1.1703,1.1557,1.1557,1.1557,1.2171,1.3668,1.3735,1.4555,1.6337,1.6413,1.6569,1.6908,1.6908,1.6908,1.6908,1.6908,1.6908,1.6908,1.6908,1.6908,1.6908,1.6972,1.7,1.7,1.7064,1.7293,1.7587,1.7587,1.7844,1.821,1.821,1.8256,1.8357,1.8687,1.8806,1.8861,1.9191,1.9301,1.9301,1.9301,1.8825,1.821,1.7789,1.7642,1.7495,1.7092,1.7,1.6982,1.6917,1.6908,1.6908,1.6908,1.6908,1.6908,1.6908,1.6908,1.6908,1.6908,1.6908,1.6908,1.6908,1.6333,1.5852,1.5599,1.52,1.4561,1.37,1.4285,1.4171,1.2732,1.3317,1.3266,1.2439,1.2797,1.2986,1.2956,1.314,1.3414,1.3707,1.4691,1.6049,1.7836,1.7836,1.7836,1.7997,1.8895,1.8816,1.8103,1.9389,2.0209,2.0558,2.1016,2.141,2.1741,2.1741,2.1741,2.1741,2.1741,2.1741,2.1741,0.9868,0.9989,1.006,1.0168,1.0334,1.0482,1.0718,1.1204,1.1589,1.173,1.1984,1.2164,1.2164,1.2164,1.2184,1.2231,1.2191,1.2164,1.2164,1.2164,1.2804,1.4371,1.4442,1.518,1.6738,1.6817,1.6844,1.6908,1.6908,1.6908,1.6908,1.6908,1.6908,1.6908,1.6908,1.6908,1.6927,1.7257,1.7403,1.744,1.7789,1.7972,1.8027,1.8027,1.8275,1.8623,1.8623,1.8834,1.9127,1.9191,1.921,1.9219,1.9283,1.9301,1.9301,1.9301,1.9219,1.9036,1.8632,1.8284,1.7926,1.7513,1.7403,1.7321,1.6982,1.6908,1.6908,1.6908,1.6908,1.6908,1.6908,1.6908,1.6908,1.6908,1.6908,1.6908,1.6908,1.683,1.6742,1.6678,1.6585,1.6455,1.6314,1.5869,1.5259,1.4314,1.4386,1.3938,1.281,1.3558,1.393,1.3494,1.3547,1.3721,1.4015,1.423,1.5151,1.6862,1.6862,1.7269,1.7997,1.8895,1.8816,1.8121,1.9677,2.0457,2.0576,2.1328,2.1676,2.1741,2.1741,2.1741,2.1741,2.1741,2.1741,2.1741,0.9804,0.9862,1.0027,1.025,1.0356,1.0508,1.0744,1.1242,1.165,1.1728,1.2045,1.2305,1.2305,1.2305,1.2305,1.2305,1.2305,1.2305,1.2305,1.2305,1.2806,1.3962,1.4394,1.5321,1.6908,1.6908,1.6908,1.6908,1.6908,1.6908,1.6908,1.6908,1.6908,1.6908,1.6908,1.7027,1.7238,1.7422,1.7623,1.7853,1.8045,1.8256,1.844,1.844,1.8687,1.9026,1.9026,1.9146,1.9301,1.9301,1.9301,1.9301,1.9301,1.9301,1.9301,1.9301,1.9155,1.8944,1.876,1.8421,1.8082,1.788,1.766,1.7449,1.7266,1.7064,1.6908,1.6908,1.6908,1.6908,1.6908,1.6908,1.6972,1.7193,1.7046,1.6982,1.7193,1.7037,1.6908,1.6908,1.6908,1.676,1.6333,1.6333,1.5895,1.4673,1.5037,1.4913,1.4156,1.4706,1.5045,1.5065,1.4282,1.4351,1.547,1.5068,1.5718,1.7432,1.6944,1.7188,1.7997,1.8407,1.8399,1.8121,1.974,2.0521,2.0585,2.1401,2.1741,2.1741,2.1741,2.1741,2.1741,2.1741,2.1741,2.1741,0.9676,0.9792,0.9943,1.029,1.038,1.0474,1.088,1.1281,1.1533,1.1605,1.1945,1.2157,1.2157,1.2224,1.2224,1.2224,1.2305,1.2305,1.2305,1.2305,1.2666,1.3455,1.4178,1.5251,1.6621,1.6621,1.676,1.6908,1.6908,1.6908,1.6908,1.6908,1.6954,1.7046,1.7046,1.7266,1.7651,1.7743,1.7963,1.8265,1.8357,1.8577,1.8852,1.8852,1.9036,1.9301,1.9301,1.9301,1.9301,1.9301,1.9301,1.9301,1.9301,1.9301,1.9301,1.9301,1.9091,1.8852,1.8852,1.8623,1.8375,1.8284,1.7944,1.7614,1.7513,1.7193,1.6908,1.6908,1.6908,1.6908,1.6908,1.6982,1.711,1.7321,1.7183,1.711,1.733,1.7101,1.6908,1.6908,1.6908,1.6691,1.6123,1.6551,1.6333,1.4966,1.5689,1.591,1.5327,1.5831,1.6186,1.6373,1.527,1.5311,1.6698,1.6049,1.6453,1.7997,1.7342,1.735,1.7997,1.8342,1.8296,1.8258,1.9874,2.0659,2.0714,2.1438,2.1741,2.1741,2.1741,2.1741,2.1741,2.1741,2.1741,2.1741,0.9548,0.9548,0.9627,0.9892,1.0146,1.0469,1.0938,1.1205,1.1452,1.1675,1.1694,1.1706,1.1706,1.1929,1.2003,1.2003,1.2157,1.2305,1.2305,1.2305,1.2666,1.3455,1.4178,1.5037,1.5833,1.5903,1.6193,1.6908,1.6908,1.6908,1.6908,1.6908,1.7101,1.7449,1.7449,1.7688,1.81,1.8467,1.8641,1.8705,1.9063,1.9228,1.9256,1.9256,1.9274,1.9301,1.9301,1.9301,1.9301,1.9301,1.9301,1.9301,1.9301,1.9301,1.9301,1.9301,1.9283,1.9256,1.9256,1.9237,1.9127,1.876,1.8366,1.7981,1.7587,1.7193,1.6908,1.6908,1.6908,1.6908,1.6908,1.7202,1.7339,1.7,1.7229,1.7339,1.7,1.6927,1.6908,1.6908,1.6908,1.6908,1.683,1.6908,1.6551,1.5762,1.6732,1.6887,1.5695,1.666,1.7096,1.6651,1.6601,1.6535,1.6698,1.6617,1.7107,1.7997,1.7917,1.7917,1.8006,1.9209,1.9297,1.8671,2.0373,2.1062,2.1099,2.1548,2.1741,2.1741,2.1741,2.1741,2.1741,2.1741,2.1741,2.1741,0.9484,0.9484,0.9562,0.9826,1.0248,1.0544,1.0767,1.1162,1.1409,1.1484,1.1632,1.1706,1.1706,1.1781,1.1781,1.1781,1.1855,1.1929,1.1929,1.2003,1.2512,1.3462,1.3745,1.4243,1.5037,1.5542,1.5903,1.6193,1.6691,1.7027,1.7266,1.7266,1.7495,1.788,1.788,1.8109,1.8495,1.865,1.8852,1.9091,1.9246,1.9301,1.9301,1.9301,1.9301,1.9301,1.9301,1.9301,1.9301,1.9301,1.9301,1.9301,1.9301,1.9301,1.9301,1.9301,1.9301,1.9301,1.9301,1.9301,1.9265,1.9118,1.8779,1.8385,1.7981,1.7568,1.7202,1.6954,1.6908,1.6908,1.6908,1.7027,1.7165,1.7257,1.7193,1.7165,1.7257,1.7064,1.6908,1.6908,1.6908,1.6908,1.6908,1.6908,1.686,1.6884,1.726,1.7487,1.7593,1.8231,1.8497,1.8318,1.7755,1.7513,1.7513,1.6453,1.6617,1.7997,1.7423,1.7513,1.8006,1.8737,1.9177,1.9469,2.0589,2.1108,2.1135,2.1566,2.1741,2.1741,2.1741,2.1741,2.1741,2.1741,2.1741,2.1741,0.9484,0.955,0.9688,0.9952,1.0381,1.0683,1.0822,1.107,1.1335,1.1335,1.1409,1.1484,1.1484,1.1558,1.1632,1.1632,1.1632,1.1706,1.1706,1.1855,1.2298,1.3098,1.3098,1.3455,1.4243,1.5037,1.5401,1.5401,1.6184,1.6749,1.7126,1.7126,1.756,1.8311,1.8311,1.8455,1.882,1.882,1.8976,1.9231,1.9152,1.9152,1.9231,1.9152,1.9073,1.9152,1.9152,1.9222,1.9231,1.9301,1.9301,1.9301,1.9301,1.9301,1.9301,1.9301,1.9301,1.9301,1.9301,1.9301,1.9301,1.9301,1.9008,1.8641,1.8366,1.7889,1.7422,1.7147,1.6991,1.6908,1.6908,1.7009,1.7138,1.7284,1.7183,1.7138,1.7293,1.7073,1.6908,1.6908,1.6908,1.6908,1.6908,1.7018,1.7202,1.7477,1.7734,1.8174,1.8861,1.891,1.8736,1.8487,1.7674,1.735,1.7594,1.6698,1.6698,1.7594,1.7513,1.7733,1.8194,1.892,1.9582,2.0338,2.1016,2.131,2.1328,2.1621,2.1741,2.1741,2.1741,2.1741,2.1741,2.1741,2.1741,2.1741,0.9484,0.9688,0.9952,1.0284,1.0544,1.0803,1.1069,1.1111,1.1111,1.1111,1.1111,1.1111,1.1111,1.126,1.1409,1.1409,1.1558,1.1706,1.1706,1.1706,1.1855,1.2298,1.2305,1.2659,1.3462,1.4178,1.4601,1.4601,1.5401,1.6031,1.6392,1.6392,1.7252,1.8715,1.8715,1.8788,1.9002,1.9002,1.9002,1.9002,1.8772,1.8851,1.9002,1.8772,1.87,1.87,1.8922,1.9002,1.9002,1.9231,1.9301,1.9301,1.9301,1.9301,1.9301,1.9301,1.9301,1.9301,1.9301,1.9301,1.9301,1.9301,1.9008,1.8715,1.8715,1.8091,1.7504,1.7504,1.7183,1.6908,1.6908,1.7229,1.7358,1.6972,1.7229,1.7358,1.6963,1.6908,1.6908,1.6908,1.6908,1.6908,1.6908,1.7266,1.7495,1.7495,1.8256,1.8889,1.9283,1.8487,1.7594,1.678,1.5884,1.5801,1.6698,1.7513,1.7513,1.6698,1.8487,1.903,1.868,1.991,2.0732,2.1126,2.1557,2.1741,2.1741,2.1741,2.1741,2.1741,2.1741,2.1741,2.1741,2.1741,2.1741,2.1741,0.9484,0.9544,0.9742,1.0248,1.0393,1.0598,1.1045,1.1111,1.1111,1.1111,1.1111,1.1111,1.1111,1.1632,1.1781,1.126,1.2285,1.3025,1.3171,1.2666,1.2452,1.2673,1.2298,1.2298,1.2666,1.3455,1.3818,1.3818,1.5435,1.6418,1.6805,1.6987,1.7527,1.8232,1.8232,1.8223,1.8327,1.8984,1.9222,1.9222,1.9152,1.9152,1.9222,1.9152,1.9002,1.8922,1.9002,1.8922,1.8772,1.8851,1.8851,1.8851,1.8851,1.9002,1.9073,1.9073,1.9222,1.9301,1.9301,1.9301,1.9301,1.9301,1.921,1.9054,1.8779,1.8522,1.8275,1.799,1.7605,1.7321,1.7321,1.7193,1.7046,1.6927,1.7,1.7037,1.6927,1.6908,1.6908,1.6908,1.6908,1.6908,1.6908,1.7266,1.7614,1.7917,1.8678,1.9173,1.9292,1.9054,1.8807,1.8567,1.7674,1.735,1.7594,1.6698,1.6698,1.7594,1.8158,1.8455,1.868,1.991,2.0732,2.1126,2.1557,2.1741,2.1741,2.1741,2.1741,2.1741,2.1741,2.1741,2.1741,2.1741,2.1741,2.1741,0.9484,0.9646,0.9892,1.0272,1.0502,1.0713,1.0924,1.1045,1.1075,1.0972,1.1045,1.1111,1.1111,1.1558,1.1781,1.1558,1.2732,1.339,1.3251,1.3032,1.3032,1.3258,1.2886,1.2512,1.2077,1.2872,1.3091,1.2806,1.4362,1.5394,1.577,1.6108,1.6683,1.7384,1.7768,1.7925,1.7925,1.8825,1.9152,1.9143,1.9073,1.9073,1.9143,1.9073,1.8922,1.8763,1.8843,1.8772,1.8612,1.87,1.87,1.87,1.87,1.8772,1.8851,1.8851,1.8993,1.9152,1.9152,1.9222,1.9301,1.9301,1.9301,1.9237,1.8999,1.8825,1.8605,1.8201,1.7917,1.7697,1.7523,1.7303,1.7138,1.7138,1.7009,1.6963,1.711,1.7,1.7027,1.7348,1.7238,1.7202,1.7376,1.7743,1.8146,1.8559,1.9036,1.9301,1.9301,1.9301,1.9134,1.8807,1.8238,1.7997,1.7997,1.6935,1.678,1.7504,1.8158,1.8615,1.8895,1.9982,2.0824,2.1374,2.1621,2.1741,2.1741,2.1741,2.1741,2.1741,2.1741,2.1741,2.1741,2.1741,2.1741,2.1741,0.9484,0.9886,1.0303,1.0327,1.0725,1.0979,1.0785,1.0936,1.1003,1.0779,1.0966,1.1111,1.1111,1.1186,1.1484,1.2224,1.3098,1.3317,1.2519,1.3171,1.368,1.3833,1.3833,1.3171,1.1855,1.2579,1.2652,1.1929,1.2893,1.3575,1.3892,1.4367,1.5137,1.6198,1.7266,1.7594,1.7529,1.8505,1.8913,1.8913,1.8772,1.8851,1.9002,1.8851,1.8612,1.8442,1.8692,1.8612,1.8442,1.8612,1.87,1.87,1.87,1.87,1.87,1.87,1.8851,1.9002,1.9002,1.9152,1.9301,1.9301,1.9301,1.9301,1.9301,1.9026,1.8669,1.8302,1.8201,1.8054,1.7669,1.7578,1.755,1.755,1.7248,1.7138,1.7495,1.7238,1.7293,1.8036,1.7789,1.7706,1.8082,1.8485,1.888,1.9265,1.9301,1.9301,1.9301,1.9301,1.8975,1.8158,1.8078,1.8078,1.8078,1.8078,1.7755,1.6935,1.8567,1.9317,1.9307,2.0174,2.0961,2.1741,2.1741,2.1741,2.1741,2.1741,2.1741,2.1741,2.1741,2.1741,2.1741,2.1741,2.1741,2.1741,0.9484,0.9742,1.0018,1.029,1.0423,1.0622,1.0972,1.09,1.0858,1.1009,1.1075,1.1111,1.1111,1.1632,1.2077,1.2305,1.3528,1.4314,1.4099,1.4243,1.4386,1.4394,1.389,1.339,1.3098,1.3615,1.376,1.3542,1.4082,1.4388,1.4403,1.4352,1.4493,1.4743,1.5218,1.5448,1.5703,1.7342,1.8078,1.8247,1.8904,1.9231,1.9231,1.9152,1.9073,1.8843,1.8922,1.8772,1.8612,1.87,1.8612,1.8442,1.8442,1.8442,1.8442,1.8442,1.8683,1.9002,1.9002,1.9152,1.9301,1.9301,1.9301,1.9301,1.9301,1.9237,1.9155,1.9063,1.8797,1.8559,1.8467,1.8192,1.799,1.799,1.7917,1.7889,1.7981,1.7908,1.7926,1.81,1.8045,1.8027,1.8109,1.8485,1.888,1.9265,1.9301,1.9301,1.9301,1.9301,1.9222,1.9054,1.9054,1.9054,1.9054,1.9054,1.8895,1.8727,1.9134,1.9642,2.0259,2.0428,2.0961,2.1741,2.1741,2.1741,2.1741,2.1741,2.1741,2.1741,2.1741,2.1741,2.1741,2.1741,2.1741,2.1741,0.9484,0.9694,0.9916,1.0048,1.0351,1.0568,1.0719,1.0834,1.0912,1.0924,1.1033,1.1111,1.1111,1.1484,1.1706,1.1706,1.3164,1.389,1.3528,1.389,1.425,1.4601,1.425,1.4178,1.4553,1.4937,1.4806,1.4073,1.3783,1.3867,1.411,1.3721,1.3614,1.3709,1.4407,1.4789,1.4956,1.6429,1.7172,1.7342,1.8318,1.8647,1.8736,1.9134,1.9152,1.9002,1.9002,1.8851,1.87,1.87,1.8612,1.8531,1.8442,1.8442,1.8353,1.8282,1.8442,1.8674,1.8674,1.8913,1.9152,1.9152,1.9231,1.9301,1.9301,1.9301,1.9246,1.9063,1.9008,1.8935,1.8742,1.854,1.8403,1.8403,1.8247,1.8192,1.8385,1.8238,1.8265,1.8641,1.8522,1.8476,1.8669,1.8871,1.9072,1.9283,1.9301,1.9301,1.9301,1.9301,1.9301,1.9301,1.9301,1.9301,1.9301,1.9301,1.9402,1.9604,1.9604,1.9925,2.0521,2.0714,2.1145,2.1741,2.1741,2.1741,2.1741,2.1741,2.1741,2.1741,2.1741,2.1741,2.1741,2.1741,2.1741,2.1741,0.9484,0.9694,0.9874,0.9874,1.0339,1.0598,1.0423,1.0767,1.0979,1.081,1.0979,1.1111,1.1111,1.1186,1.126,1.1111,1.2579,1.3171,1.2378,1.3025,1.3745,1.4394,1.4394,1.4721,1.5455,1.5883,1.5511,1.4396,1.3618,1.3474,1.3974,1.3325,1.3143,1.3155,1.4164,1.4538,1.4538,1.5613,1.6191,1.6437,1.7504,1.8006,1.8167,1.8984,1.9152,1.9002,1.9073,1.8922,1.8772,1.8772,1.8772,1.8692,1.8523,1.8523,1.8442,1.8201,1.8282,1.8442,1.8442,1.8683,1.8922,1.9002,1.9152,1.9222,1.9301,1.9301,1.921,1.888,1.9072,1.9201,1.8871,1.8815,1.8815,1.8815,1.854,1.844,1.877,1.8531,1.8568,1.9219,1.9017,1.8944,1.9265,1.9301,1.9301,1.9301,1.9301,1.9301,1.9301,1.9301,1.9301,1.9301,1.9301,1.9301,1.9301,1.9301,1.9512,1.9934,1.9998,2.0237,2.0631,2.0961,2.1337,2.1741,2.1741,2.1741,2.1741,2.1741,2.1741,2.1741,2.1741,2.1741,2.1741,2.1741,2.1741,2.1741,0.9484,0.9694,0.9874,0.9874,1.0119,1.0447,1.0641,1.0725,1.084,1.1033,1.1087,1.1111,1.1111,1.1706,1.1855,1.1186,1.2579,1.3171,1.2378,1.3025,1.3535,1.3673,1.3673,1.3807,1.4164,1.4969,1.5593,1.5961,1.5503,1.5365,1.5419,1.4894,1.4339,1.3634,1.3915,1.3795,1.3385,1.4287,1.5199,1.6124,1.7107,1.7942,1.8612,1.8922,1.8993,1.8993,1.9231,1.9222,1.9222,1.9222,1.9073,1.8922,1.8922,1.8772,1.862,1.862,1.862,1.8692,1.8692,1.8692,1.8772,1.8922,1.9002,1.9073,1.9222,1.9301,1.9283,1.9228,1.9265,1.9283,1.9228,1.9219,1.9219,1.9219,1.9173,1.9164,1.9219,1.9173,1.9182,1.9292,1.9256,1.9246,1.9292,1.9301,1.9301,1.9301,1.9301,1.9301,1.9301,1.9301,1.9301,1.9301,1.9301,1.9301,1.9301,1.9301,1.9512,1.9934,2.0273,2.0649,2.1025,2.108,2.1337,2.1741,2.1741,2.1741,2.1741,2.1741,2.1741,2.1741,2.1741,2.1741,2.1741,2.1741,2.1741,2.1741,0.967,0.9676,0.97,0.9844,1.0089,1.0369,1.0484,1.0749,1.0979,1.1093,1.1111,1.1111,1.1111,1.1409,1.1484,1.1111,1.1774,1.1996,1.1632,1.1996,1.2365,1.2813,1.2813,1.3089,1.3667,1.4404,1.5124,1.5946,1.5799,1.5918,1.623,1.5385,1.4911,1.4613,1.474,1.4636,1.4391,1.4956,1.5365,1.5951,1.6944,1.7691,1.8193,1.8763,1.9073,1.9152,1.9301,1.9301,1.9301,1.9301,1.9222,1.9152,1.9002,1.8922,1.8851,1.87,1.87,1.87,1.8531,1.8612,1.87,1.8772,1.8931,1.9073,1.9222,1.9301,1.9301,1.9301,1.9301,1.9301,1.9301,1.9301,1.9301,1.9301,1.9301,1.9301,1.9301,1.9301,1.9301,1.9301,1.9301,1.9301,1.9301,1.9301,1.9301,1.9301,1.9301,1.9301,1.9301,1.9301,1.9301,1.9301,1.9301,1.9301,1.9301,1.9301,1.9622,2.0264,2.0438,2.0723,2.1117,2.1355,2.1557,2.1741,2.1741,2.1741,2.1741,2.1741,2.1741,2.1741,2.1741,2.1741,2.1741,2.1741,2.1741,2.1741]},{"header":{"parameterUnit":"m.s-1","parameterCategory":1,"la1":30.6,"la2":28.766,"lo1":-90.7593,"lo2":-88.6598,"dy":0.0162,"dx":0.0183,"nx":116,"ny":114,"refTime":"2024-06-03T06:00:00:Z","depth":0,"parameterNumber":3,"parameterNumberName":"V-component_of_WINDS"},"data":[0.0,0.0,0.0,0.0,0.0,0.0,0.0,0.0,0.0,0.0,0.0,0.0,0.0,0.0,0.0,0.0,0.0,0.0,0.0,0.0,0.0,0.0,0.0,0.0,0.0,0.0,0.0,0.0,0.0,0.0,0.0,0.0,0.0,0.0,0.0,0.0,0.0,0.0,0.0,0.0,0.0,0.0,0.0,0.0,0.0,0.0,0.0,0.0,0.0,0.0,0.0,0.0,0.0,0.0,0.0,0.0,0.0,0.0,0.0,0.0,0.0,0.0,0.0,0.0,0.0,0.0,0.0,0.0,0.0,0.0,0.0,0.0,0.0,0.0,0.0,0.0,0.0,0.0,0.0,0.0,0.0,0.0,0.0,0.0,0.0,0.0,0.0,0.0,0.0,0.0,0.0,0.0,0.0,0.0,0.0,0.0,0.0,0.0,0.0,0.0,0.0,0.0,0.0,0.0,0.0,0.0,0.0,0.0,0.0,0.0,0.0,0.0,0.0,0.0,0.0,0.0,0.0,0.0,0.0,0.0,0.0,0.0,0.0,0.0,0.0,0.0,0.0,0.0,0.0,0.0,0.0,0.0,0.0,0.0,0.0,0.0,0.0,0.0,0.0,0.0,0.0,0.0,0.0,0.0,0.0,0.0,0.0,0.0,0.0,0.0,0.0,0.0,0.0,0.0,0.0,0.0,0.0,0.0,0.0,0.0,0.0,0.0,0.0,0.0,0.0,0.0,0.0,0.0,0.0,0.0,0.0,0.0,0.0,0.0,0.0,0.0,0.0,0.0,0.0,0.0,0.0,0.0,0.0,0.0,0.0,0.0,0.0,0.0,0.0,0.0,0.0,0.0,0.0,0.0,0.0,0.0,0.0,0.0,0.0,0.0,0.0,0.0,0.0,0.0,0.0,0.0,0.0,0.0,0.0,0.0,0.0,0.0,0.0,0.0,0.0,0.0,0.0,0.0,0.0,0.0,0.0,0.0,0.0,0.0,0.0,0.0,0.0,0.0,0.0,0.0,0.0,0.0,0.0,0.0,0.0,0.0,0.0,0.0,0.0,0.0,0.0,0.0,0.0,0.0,0.0,0.0,0.0,0.0,0.0,0.0,0.0,0.0,0.0,0.0,0.0,0.0,0.0,0.0,0.0,0.0,0.0,0.0,0.0,0.0,0.0,0.0,0.0,0.0,0.0,0.0,0.0,0.0,0.0,0.0,0.0,0.0,0.0,0.0,0.0,0.0,0.0,0.0,0.0,0.0,0.0,0.0,0.0,0.0,0.0,0.0,0.0,0.0,0.0,0.0,0.0,0.0,0.0,0.0,0.0,0.0,0.0,0.0,0.0,0.0,0.0,0.0,0.0,0.0,0.0,0.0,0.0,0.0,0.0,0.0,0.0,0.0,0.0,0.0,0.0,0.0,0.0,0.0,0.0,0.0,0.0,0.0,0.0,0.0,0.0,0.0,0.0,0.0,0.0,0.0,0.0,0.0,0.0,0.0,0.0,0.0,0.0,0.0,0.0,0.0,0.0,0.0,0.0,0.0,0.0,0.0,0.0,0.0,0.0,0.0,0.0,0.0,0.0,0.0,0.0,0.0,0.0,0.0,0.0,0.0,0.0,0.0,0.0,0.0,0.0,0.0,0.0,0.0,0.0,0.0,0.0,0.0,0.0,0.0,0.0,0.0,0.0,0.0,0.0,0.0,0.0,0.0,0.0,0.0,0.0,0.0,0.0,0.0,0.0,0.0,0.0,0.0,0.0,0.0,0.0,0.0,0.0,0.0,0.0,0.0,0.0,0.0,0.0,0.0,0.0,0.0,0.0,0.0,0.0,0.0,0.0,0.0,0.0,0.0,0.0,0.0,0.0,0.0,0.0,0.0,0.0,0.0,0.0,0.0,0.0,0.0,0.0,0.0,0.0,0.0,0.0,0.0,0.0,0.0,0.0,0.0,0.0,0.0,0.0,0.0,0.0,0.0,0.0,0.0,0.0,0.0,0.0,0.0,0.0,0.0,0.0,0.0,0.0,0.0,0.0,0.0,0.0,0.0,0.0,0.0,0.0,0.0,0.0,0.0,0.0,0.0,0.0,0.0,0.0,0.0,0.0,0.0,0.0,0.0,0.0,0.0,0.0,0.0,0.0,0.0,0.0,0.0,0.0,0.0,0.0,0.0,0.0,0.0,0.0,0.0,0.0,0.0,0.0,0.0,0.0,0.0,0.0,0.0,0.0,0.0,0.0,0.0,0.0,0.0,0.0,0.0,0.0,0.0,0.0,0.0,0.0,0.0,0.0,0.0,0.0,0.0,0.0,0.0,0.0,0.0,0.0,0.0,0.0,0.0,0.0,0.0,0.0,0.0,0.0,0.0,0.0,0.0,0.0,0.0,0.0,0.0,0.0,0.0,0.0,0.0,0.0,0.0,0.0,0.0,0.0,0.0,0.0,0.0,0.0,0.0,0.0,0.0,0.0,0.0,0.0,0.0,0.0,0.0,0.0,0.0,0.0,0.0,0.0,0.0,0.0,0.0,0.0,0.0,0.0,0.0,0.0,0.0,0.0,0.0,0.0,0.0,0.0,0.0,0.0,0.0,0.0,0.0,0.0,0.0,0.0,0.0,0.0,0.0,0.0,0.0,0.0,0.0,0.0,0.0,0.0,0.0,0.0,0.0,0.0,0.0,0.0,0.0,0.0,0.0,0.0,0.0,0.0,0.0,0.0,0.0,0.0,0.0,0.0,0.0,0.0,0.0,0.0,0.0,0.0,0.0,0.0,0.0,0.0,0.0,0.0,0.0,0.0,0.0,0.0,0.0,0.0,0.0,0.0,0.0,0.0,0.0,0.0,0.0,0.0,0.0,0.0,0.0,0.0,0.0,0.0,0.0,0.0,0.0,0.0,0.0,0.0,0.0,0.0,0.0,0.0,0.0,0.0,0.0,0.0,0.0,0.0,0.0,0.0,0.0,0.0,0.0,0.0,0.0,0.0,0.0,0.0,0.0,0.0,0.0,0.0,0.0,0.0,0.0,0.0,0.0,0.0,0.0,0.0,0.0,0.0,0.0,0.0,0.0,0.0,0.0,0.0,0.0,0.0,0.0,0.0,0.0,0.0,0.0,0.0,0.0,0.0,0.0,0.0,0.0,0.0,0.0,0.0,0.0,0.0,0.0,0.0,0.0,0.0,0.0,0.0,0.0,0.0,0.0,0.0,0.0,0.0,0.0,0.0,0.0,0.0,0.0,0.0,0.0,0.0,0.0,0.0,0.0,0.0,0.0,0.0,0.0,0.0,0.0,0.0,0.0,0.0,0.0,0.0,0.0,0.0,0.0,0.0,0.0,0.0,0.0,0.0,0.0,0.0,0.0,0.0,0.0,0.0,0.0,0.0,0.0,0.0,0.0,0.0,0.0,0.0,0.0,0.0,0.0,0.0,0.0,0.0,0.0,0.0,0.0,0.0,0.0,0.0,0.0,0.0,0.0,0.0,0.0,0.0,0.0,0.0,0.0,0.0,0.0,0.0,0.0,0.0,0.0,0.0,0.0,0.0,0.0,0.0,0.0,0.0,0.0,0.0,0.0,0.0,0.0,0.0,0.0,0.0,0.0,0.0,0.0,0.0,0.0,0.0,0.0,0.0,0.0,0.0,0.0,0.0,0.0,0.0,0.0,0.0,0.0,0.0,0.0,0.0,0.0,0.0,0.0,0.0,0.0,0.0,0.0,0.0,0.0,0.0,0.0,0.0,0.0,0.0,0.0,0.0,0.0,0.0,0.0,0.0,0.0,0.0,0.0,0.0,0.0,0.0,0.0,0.0,0.0,0.0,0.0,0.0,0.0,0.0,0.0,0.0,0.0,0.0,0.0,0.0,0.0,0.0,0.0,0.0,0.0,0.0,0.0,0.0,0.0,0.0,0.0,0.0,0.0,0.0,0.0,0.0,0.0,0.0,0.0,0.0,0.0,0.0,0.0,0.0,0.0,0.0,0.0,0.0,0.0,0.0,0.0,0.0,0.0,0.0,0.0,0.0,0.0,0.0,0.0,0.0,0.0,0.0,0.0,0.0,0.0,0.0,0.0,0.0,0.0,0.0,0.0,0.0,0.0,0.0,0.0,0.0,0.0,0.0,0.0,0.0,0.0,0.0,0.0,0.0,0.0,0.0,0.0,0.0,0.0,0.0,0.0,0.0,0.0,0.0,0.0,0.0,0.0,0.0,0.0,0.0,0.0,0.0,0.0,0.0,0.0,0.0,0.0,0.0,0.0,0.0,0.0,0.0,0.0,0.0,0.0,0.0,0.0,0.0,0.0,0.0,0.0,0.0,0.0,0.0,0.0,0.0,0.0,0.0,0.0,0.0,0.0,0.0,0.0,0.0,0.0,0.0,0.0,0.0,0.0,0.0,0.0,0.0,0.0,0.0,0.0,0.0,0.0,0.0,0.0,0.0,0.0,0.0,0.0,0.0,0.0,0.0,0.0,0.0,0.0,0.0,0.0,0.0,0.0,0.0,0.0,0.0,0.0,0.0,0.0,0.0,0.0,0.0,0.0,0.0,0.0,0.0,0.0,0.0,0.0,0.0,0.0,0.0,0.0,0.0,0.0,0.0,0.0,0.0,0.0,0.0,0.0,0.0,0.0,0.0,0.0,0.0,0.0,0.0,0.0,0.0,0.0,0.0,0.0,0.0,0.0,0.0,0.0,0.0,0.0,0.0,0.0,0.0,0.0,0.0,0.0,0.0,0.0,0.0,0.0,0.0,0.0,0.0,0.0,0.0,0.0,0.0,0.0,0.0,0.0,0.0,0.0,0.0,0.0,0.0,0.0,0.0,0.0,0.0,0.0,0.0,0.0,0.0,0.0,0.0,0.0,0.0,0.0,0.0,0.0,0.0,0.0,0.0,0.0,0.0,0.0,0.0,0.0,0.0,0.0,0.0,0.0,0.0,0.0,0.0,0.0,0.0,0.0,0.0,0.0,0.0,0.0,0.0,0.0,0.0,0.0,0.0,0.0,0.0,0.0,0.0,0.0,0.0,0.0,0.0,0.0,0.0,0.0,0.0,0.0,0.0,0.0,0.0,0.0,0.0,0.0,0.0,0.0,0.0,0.0,0.0,0.0,0.0,0.0,0.0,0.0,0.0,0.0,0.0,0.0,0.0,0.0,0.0,0.0,0.0,0.0,0.0,0.0,0.0,0.0,0.0,0.0,0.0,0.0,0.0,0.0,0.0,0.0,0.0,0.0,0.0,0.0,0.0,0.0,0.0,0.0,0.0,0.0,0.0,0.0,0.0,0.0,0.0,0.0,0.0,0.0,0.0,0.0,0.0,0.0,0.0,0.0,0.0,0.0,0.0,0.0,0.0,0.0,0.0,0.0,0.0,0.0,0.0,0.0,0.0,0.0,0.0,0.0,0.0,0.0,0.0,0.0,0.0,0.0,0.0,0.0,0.0,0.0,0.0,0.0,0.0,0.0,0.0,0.0,0.0,0.0,0.0,0.0,0.0,0.0,0.0,0.0,0.0,0.0,0.0,0.0,0.0,0.0,0.0,0.0,0.0,0.0,0.0,0.0,0.0,0.0,0.0,0.0,0.0,0.0,0.0,0.0,0.0,0.0,0.0,0.0,0.0,0.0,0.0,0.0,0.0,0.0,0.0,0.0,0.0,0.0,0.0,0.0,0.0,0.0,0.0,0.0,0.0,0.0,0.0,0.0,0.0,0.0,0.0,0.0,0.0,0.0,0.0,0.0,0.0,0.0,0.0,0.0,0.0,0.0,0.0,0.0,0.0,0.0,0.0,0.0,0.0,0.0,0.0,0.0,0.0,0.0,0.0,0.0,0.0,0.0,0.0,0.0,0.0,0.0,0.0,0.0,0.0,0.0,0.0,0.0,0.0,0.0,0.0,0.0,0.0,0.0,0.0,0.0,0.0,0.0,0.0,0.0,0.0,0.0,0.0,0.0,0.0,0.0,0.0,0.0,0.0,0.0,0.0,0.0,0.0,0.0,0.0,0.0,0.0,0.0,0.0,0.0,0.0,0.0,0.0,0.0,0.0,0.0,0.0,0.0,0.0,0.0,0.0,0.0,0.0,0.0,0.0,0.0,0.0,0.0,0.0,0.0,0.0,0.0,-2.0447,-1.9499,0.0,0.0,0.0,0.0,0.0,0.0,0.0,0.0,0.0,0.0,0.0,0.0,0.0,0.0,0.0,0.0,0.0,0.0,0.0,0.0,0.0,0.0,0.0,-1.321,-1.3549,-1.3881,-1.4475,-1.4816,-1.4782,0.0,0.0,0.0,0.0,0.0,-1.4206,-1.3867,-1.4006,-1.4683,-1.4344,-1.4683,-1.5626,-1.5595,-1.5114,-1.4206,0.0,0.0,0.0,0.0,0.0,0.0,0.0,0.0,0.0,0.0,0.0,0.0,0.0,0.0,0.0,0.0,0.0,0.0,0.0,0.0,0.0,0.0,0.0,0.0,0.0,0.0,0.0,0.0,0.0,0.0,0.0,0.0,0.0,0.0,0.0,0.0,0.0,0.0,0.0,0.0,0.0,0.0,0.0,0.0,0.0,0.0,0.0,0.0,0.0,0.0,0.0,0.0,0.0,0.0,0.0,0.0,0.0,0.0,0.0,0.0,0.0,0.0,0.0,0.0,0.0,0.0,0.0,0.0,0.0,0.0,-2.2589,-2.1456,0.0,0.0,0.0,0.0,0.0,0.0,0.0,0.0,0.0,0.0,0.0,0.0,0.0,0.0,0.0,0.0,0.0,0.0,0.0,0.0,0.0,-1.2816,-1.3431,-1.3672,-1.4027,-1.4664,-1.5243,-1.5557,-1.5557,-1.5454,0.0,0.0,0.0,-1.456,-1.456,-1.456,-1.4883,-1.5534,-1.5683,-1.6286,-1.7393,-1.7946,-1.7024,-1.4914,-1.4914,0.0,0.0,0.0,0.0,0.0,0.0,0.0,0.0,0.0,0.0,0.0,0.0,0.0,0.0,0.0,0.0,0.0,0.0,0.0,0.0,0.0,0.0,0.0,0.0,0.0,0.0,0.0,0.0,0.0,0.0,0.0,0.0,0.0,0.0,0.0,0.0,0.0,0.0,0.0,0.0,0.0,0.0,0.0,0.0,0.0,0.0,0.0,0.0,0.0,0.0,0.0,0.0,0.0,0.0,0.0,0.0,0.0,0.0,0.0,0.0,0.0,0.0,0.0,-2.5258,-2.5691,-2.6266,-2.6266,-2.6412,-2.6578,-2.5122,-2.4,-2.3253,-2.2965,0.0,0.0,0.0,0.0,0.0,0.0,0.0,0.0,0.0,0.0,0.0,0.0,0.0,0.0,0.0,0.0,0.0,0.0,0.0,-1.3399,-1.3494,-1.453,-1.5252,-1.528,-1.5827,-1.615,-1.6111,-1.6123,0.0,0.0,-1.6045,-1.5984,-1.5933,-1.5933,-1.6256,-1.6932,-1.7531,-1.79,-1.8084,-1.8176,-1.8023,-1.7669,-1.7669,-1.7669,-1.7608,0.0,0.0,0.0,0.0,0.0,0.0,0.0,0.0,0.0,0.0,0.0,0.0,0.0,0.0,0.0,0.0,0.0,0.0,0.0,0.0,0.0,0.0,0.0,0.0,0.0,0.0,0.0,0.0,0.0,0.0,0.0,0.0,0.0,0.0,0.0,0.0,0.0,0.0,0.0,0.0,0.0,-1.9317,-2.0088,0.0,0.0,0.0,0.0,0.0,0.0,0.0,0.0,0.0,0.0,0.0,0.0,0.0,-2.4623,-2.5395,-2.6327,-2.6836,-2.6952,-2.7928,-2.846,-2.8561,-2.8561,-2.8598,-2.8634,-2.8395,0.0,-2.4796,-2.4763,0.0,0.0,0.0,0.0,0.0,0.0,0.0,0.0,0.0,0.0,0.0,0.0,0.0,0.0,0.0,0.0,0.0,0.0,0.0,0.0,0.0,-1.4971,-1.5704,-1.603,-1.6275,-1.6394,-1.6355,-1.6355,-1.6344,-1.6262,-1.6274,-1.6487,-1.6877,-1.6791,-1.727,-1.8377,-1.9231,-1.9558,-1.9377,-1.9377,-1.9377,-1.9377,-1.9377,-1.8961,-1.8176,-1.7577,0.0,0.0,0.0,0.0,0.0,0.0,0.0,0.0,0.0,0.0,0.0,0.0,0.0,0.0,0.0,0.0,0.0,0.0,0.0,0.0,0.0,0.0,0.0,0.0,0.0,0.0,0.0,0.0,0.0,0.0,0.0,0.0,0.0,0.0,0.0,0.0,0.0,0.0,0.0,-1.93,-2.0397,-2.032,-2.0643,-2.072,0.0,0.0,0.0,0.0,0.0,0.0,0.0,0.0,0.0,-2.6059,-2.6557,-2.7247,-2.8165,-2.9051,-2.9698,-3.0118,-3.0627,-3.1055,-3.1461,-3.1461,-3.1461,-3.1461,-3.1461,-3.0572,-2.9009,-2.731,-2.5916,-2.483,0.0,0.0,0.0,0.0,-2.4758,-2.5071,0.0,0.0,0.0,0.0,0.0,0.0,0.0,0.0,0.0,0.0,0.0,0.0,-1.4774,-1.5453,-1.6028,-1.6549,-1.6501,-1.6474,-1.6474,-1.6436,-1.6382,-1.6328,-1.634,-1.6682,-1.7413,-1.7666,-1.8393,-1.9582,-2.0327,-2.0561,-2.0304,-2.0304,-2.0304,-2.0304,-2.0304,-1.97,-1.8714,-1.8545,-1.793,0.0,0.0,0.0,0.0,0.0,0.0,0.0,0.0,0.0,0.0,0.0,0.0,0.0,0.0,0.0,0.0,0.0,0.0,0.0,0.0,0.0,0.0,0.0,0.0,0.0,0.0,0.0,0.0,0.0,0.0,0.0,0.0,0.0,0.0,0.0,0.0,0.0,0.0,-2.0224,-2.1121,-2.0628,-2.1224,-2.1435,0.0,0.0,0.0,0.0,0.0,0.0,-2.557,-2.6131,-2.709,-2.854,-2.9159,-2.9945,-3.0937,-3.1495,-3.2036,-3.256,-3.256,-3.2865,-3.3406,-3.3406,-3.3406,-3.3406,-3.3406,-3.3085,-3.2374,-2.9956,-2.8416,-2.7554,-2.7351,-2.7246,-2.715,-2.6766,-2.6983,-2.7484,0.0,0.0,0.0,0.0,0.0,0.0,0.0,0.0,0.0,0.0,0.0,-1.479,-1.5494,-1.6097,-1.647,-1.6485,-1.6436,-1.6425,-1.6425,-1.6448,-1.649,-1.6398,-1.6448,-1.6819,-1.7468,-1.8734,-1.9698,-2.0326,-2.0407,-2.0373,-2.0304,-2.0304,-2.0304,-2.0304,-2.0304,-2.0273,-2.0165,-1.9518,-1.921,-1.9025,0.0,0.0,0.0,0.0,0.0,0.0,0.0,0.0,0.0,0.0,0.0,0.0,0.0,0.0,0.0,0.0,0.0,0.0,0.0,0.0,0.0,0.0,0.0,0.0,0.0,0.0,0.0,0.0,0.0,0.0,0.0,0.0,0.0,0.0,0.0,0.0,0.0,0.0,0.0,-2.126,-2.216,0.0,0.0,0.0,0.0,-2.446,-2.5216,-2.6409,-2.8201,-2.8339,-2.9477,-3.1985,-3.2087,-3.2476,-3.3237,-3.3271,-3.3322,-3.3339,-3.3339,-3.3372,-3.3406,-3.3406,-3.3406,-3.3406,-3.3406,-3.3389,-3.3288,-3.2408,-3.1224,-2.9871,-2.9144,-2.9296,-2.9732,-2.8262,-2.909,-3.0768,0.0,0.0,0.0,0.0,0.0,-1.2514,-1.2514,-1.2878,-1.3226,-1.3463,-1.4505,-1.5335,-1.5573,-1.617,-1.6554,-1.6554,-1.6543,-1.6517,-1.6517,-1.6554,-1.6748,-1.7164,-1.7208,-1.7697,-1.8749,-1.9973,-2.0557,-2.046,-2.0679,-2.0679,-2.0426,-2.0373,-2.0475,-2.0679,-2.0628,-2.0745,-2.091,-2.046,-2.013,-1.9906,-1.9395,-1.8641,0.0,0.0,0.0,0.0,0.0,0.0,0.0,0.0,0.0,0.0,0.0,0.0,0.0,0.0,0.0,0.0,0.0,0.0,0.0,0.0,0.0,0.0,0.0,0.0,0.0,0.0,0.0,0.0,0.0,0.0,0.0,0.0,0.0,0.0,0.0,0.0,0.0,-2.2624,-2.3967,0.0,-2.3951,-2.5354,-2.6545,-2.7057,-2.8427,-2.9738,-3.0881,-3.1402,-3.2066,-3.2983,-3.3457,-3.3829,-3.41,-3.459,-3.4844,-3.4844,-3.4844,-3.4844,-3.4844,-3.4844,-3.4844,-3.4844,-3.4844,-3.4844,-3.481,-3.4539,-3.3558,-3.2205,-3.1935,-3.2002,-3.2171,-3.1613,-3.1935,-3.2544,0.0,0.0,0.0,0.0,-1.2514,-1.2514,-1.2514,-1.3067,-1.3589,-1.3842,-1.4869,-1.5699,-1.5912,-1.6338,-1.6596,-1.6596,-1.6596,-1.6596,-1.6596,-1.6817,-1.718,-1.7597,-1.8098,-1.8745,-1.9594,-2.0543,-2.0909,-2.0577,-2.0778,-2.0778,-2.0494,-2.0441,-2.0652,-2.1093,-2.1025,-2.1286,-2.1777,-2.1454,-2.1055,-2.0627,-2.0627,-2.007,-1.9185,0.0,0.0,0.0,0.0,0.0,0.0,0.0,0.0,0.0,0.0,0.0,0.0,0.0,0.0,0.0,0.0,0.0,0.0,0.0,0.0,0.0,0.0,0.0,0.0,0.0,0.0,0.0,0.0,0.0,0.0,0.0,0.0,0.0,0.0,-2.3179,-2.4225,-2.401,-2.5737,-2.6677,-2.6014,-2.7789,-2.9197,-2.9733,-3.1106,-3.2256,-3.2983,-3.3508,-3.3897,-3.4134,-3.4624,-3.4878,-3.4878,-3.5368,-3.5622,-3.5622,-3.5622,-3.5622,-3.5622,-3.5622,-3.5622,-3.5622,-3.5622,-3.5622,-3.5622,-3.5622,-3.503,-3.4134,-3.388,-3.3931,-3.4083,-3.3592,-3.3728,-3.4117,0.0,0.0,0.0,-1.2514,-1.2514,-1.2514,-1.2514,-1.3083,-1.3779,-1.4505,-1.5185,-1.5864,-1.6517,-1.6596,-1.6596,-1.6596,-1.6596,-1.6596,-1.6628,-1.729,-1.7716,-1.7748,-1.9104,-1.983,-1.983,-2.0462,-2.0777,-2.0693,-2.0693,-2.066,-2.0559,-2.0525,-2.0883,-2.1466,-2.145,-2.1967,-2.2817,-2.2501,-2.1989,-2.1388,-2.1355,-2.0933,-2.0348,0.0,0.0,0.0,0.0,0.0,0.0,0.0,0.0,0.0,0.0,0.0,0.0,0.0,0.0,0.0,0.0,0.0,0.0,0.0,0.0,0.0,0.0,0.0,0.0,0.0,0.0,0.0,0.0,0.0,0.0,0.0,0.0,0.0,-2.4385,-2.4405,-2.4698,-2.5361,-2.7487,-2.863,-2.8005,-3.0623,-3.2324,-3.2381,-3.3034,-3.3761,-3.4489,-3.4523,-3.4861,-3.5605,-3.5622,-3.5622,-3.5622,-3.5622,-3.5622,-3.5622,-3.5622,-3.5622,-3.5622,-3.5622,-3.5622,-3.5622,-3.5622,-3.5622,-3.5622,-3.5622,-3.5622,-3.5537,-3.481,-3.4979,-3.5453,-3.4015,-3.4387,-3.552,0.0,0.0,-1.2514,-1.2514,-1.2514,-1.2514,-1.2514,-1.3526,-1.4363,-1.4569,-1.5611,-1.6417,-1.6565,-1.6596,-1.6596,-1.6596,-1.6596,-1.6817,-1.7354,-1.7574,-1.8142,-1.9198,-2.0067,-2.0526,-2.0526,-2.0699,-2.0794,-2.0761,-2.0761,-2.1045,-2.1516,-2.1412,-2.1862,-2.2789,-2.2969,-2.3339,-2.3836,-2.4039,-2.4008,-2.3722,-2.2497,-2.177,-2.1381,0.0,0.0,0.0,0.0,0.0,0.0,0.0,0.0,0.0,0.0,0.0,0.0,0.0,0.0,0.0,0.0,0.0,0.0,0.0,0.0,0.0,0.0,0.0,0.0,0.0,0.0,0.0,0.0,0.0,0.0,0.0,-2.4345,-2.5291,-2.4895,-2.6395,-2.7817,-2.8549,-2.9929,-3.0978,-3.1335,-3.2404,-3.3322,-3.3846,-3.4066,-3.4523,-3.5267,-3.5318,-3.5402,-3.556,-3.5622,-3.5622,-3.5622,-3.5622,-3.5622,-3.5622,-3.5622,-3.5622,-3.5622,-3.5622,-3.5622,-3.5622,-3.5622,-3.5622,-3.5622,-3.5622,-3.5622,-3.5605,-3.5402,-3.5436,-3.5571,-3.5165,-3.5267,-3.5588,0.0,-1.1722,-1.2514,-1.2514,-1.2514,-1.2514,-1.2514,-1.37,-1.46,-1.46,-1.5785,-1.6596,-1.6596,-1.6596,-1.6596,-1.6596,-1.688,-1.7227,-1.7669,-1.8237,-1.9088,-2.0178,-2.0589,-2.0794,-2.0794,-2.0794,-2.0794,-2.0794,-2.111,-2.1474,-2.19,-2.2098,-2.2659,-2.3522,-2.3654,-2.4064,-2.464,-2.4713,-2.4854,-2.4927,-2.3803,-2.3009,-2.2497,-2.2137,-2.1797,-2.1444,-2.1081,-2.0845,-2.061,-1.991,0.0,0.0,0.0,0.0,0.0,0.0,0.0,0.0,0.0,0.0,0.0,0.0,0.0,0.0,0.0,0.0,0.0,0.0,0.0,0.0,0.0,0.0,0.0,0.0,-2.6022,-2.7138,-2.7057,-2.8343,-2.9524,-3.0222,-3.1616,-3.2691,-3.3106,-3.3856,-3.4506,-3.4928,-3.5267,-3.5639,-3.6079,-3.6417,-3.6569,-3.6569,-3.6569,-3.6434,-3.6113,-3.6096,-3.5943,-3.5622,-3.5622,-3.5622,-3.5622,-3.5622,-3.5622,-3.5622,-3.5622,-3.5622,-3.5622,-3.5622,-3.5622,-3.5622,0.0,0.0,0.0,0.0,-3.5622,-3.5622,0.0,-1.1974,-1.2514,-1.2514,-1.2514,-1.2514,-1.2514,-1.37,-1.46,-1.46,-1.5785,-1.6596,-1.6596,-1.6596,-1.6596,-1.6596,-1.7259,-1.7764,-1.7922,-1.9183,-2.0178,-2.0763,-2.0794,-2.0794,-2.0794,-2.0794,-2.0842,-2.0921,-2.1568,-2.1963,-2.2137,-2.2722,-2.3348,-2.395,-2.4011,-2.4519,-2.5297,-2.502,-2.5127,-2.543,-2.4995,-2.4339,-2.3544,-2.2756,-2.2269,-2.1986,-2.1903,-2.1645,-2.1303,-2.073,0.0,0.0,0.0,0.0,0.0,0.0,0.0,0.0,0.0,0.0,0.0,0.0,0.0,0.0,0.0,0.0,0.0,0.0,0.0,0.0,0.0,0.0,0.0,0.0,-2.7926,-2.9738,-3.025,-3.0391,-3.0686,-3.1234,-3.2809,-3.3865,-3.3993,-3.4992,-3.5656,-3.574,-3.6383,-3.6823,-3.6907,-3.7533,0.0,0.0,0.0,-3.7584,-3.6907,-3.6907,-3.6569,-3.5876,-3.5876,-3.5876,-3.5876,-3.5876,-3.5876,-3.5876,-3.5876,-3.5876,-3.5876,-3.5791,-3.569,-3.5622,-3.5622,-3.5622,-3.5622,-3.5622,-3.5622,-3.5622,0.0,-1.1974,-1.2514,-1.2514,-1.2514,-1.2514,-1.2514,-1.37,-1.46,-1.46,-1.5785,-1.6596,-1.6596,-1.6596,-1.6596,-1.6596,-1.7259,-1.8158,0.0,0.0,-2.0652,-2.0794,-2.0794,-2.0794,-2.0794,-2.0794,-2.1079,-2.1679,-2.179,-2.2386,-2.3528,-2.3654,-2.4097,-2.4799,-2.5399,-2.5757,-2.5944,-2.6199,-2.6371,-2.6337,-2.5313,-2.4758,-2.4462,-2.3665,-2.3317,-2.3158,-2.2581,-2.2158,-2.1895,-2.1967,-2.1641,-2.1158,-2.0873,0.0,0.0,0.0,0.0,0.0,0.0,0.0,0.0,0.0,0.0,0.0,0.0,0.0,0.0,0.0,0.0,0.0,0.0,0.0,0.0,-2.8782,-3.0157,-3.1523,-3.2714,-3.3474,-3.3897,-3.3799,-3.3846,-3.4292,-3.529,-3.5627,-3.601,-3.6605,-3.6717,-3.7043,-3.7652,-3.7821,-3.7905,-3.7905,-3.7905,-3.7838,-3.7702,-3.7686,-3.7618,-3.7466,-3.7466,0.0,-3.7466,-3.7466,-3.7466,-3.7466,-3.7466,-3.7466,-3.7415,-3.6806,-3.618,-3.5622,-3.5622,-3.5622,-3.5622,-3.5622,-3.5622,-3.5622,-1.1882,-1.2262,-1.2514,-1.2514,-1.2514,-1.2514,-1.2514,-1.37,-1.46,-1.46,-1.5785,-1.6596,-1.6596,-1.6596,-1.6596,-1.6596,-1.7574,0.0,0.0,-2.0605,-2.0794,-2.0794,-2.0794,-2.0794,-2.0794,-2.1158,-2.1505,-2.1869,-2.2497,-2.3191,-2.3923,-2.4286,-2.4634,-2.5005,-2.54,-2.5631,-2.5799,-2.6016,-2.621,-2.6368,-2.5758,-2.5462,-2.5327,-2.4074,-2.3594,-2.3543,-2.3176,-2.2718,-2.2311,-2.2448,-2.2019,-2.1401,-2.1197,-2.1039,-2.0828,0.0,0.0,0.0,0.0,0.0,0.0,0.0,0.0,0.0,0.0,0.0,0.0,0.0,0.0,-2.6566,0.0,0.0,-2.9616,-3.0925,-3.1918,-3.2858,-3.3786,-3.4381,-3.4701,-3.4626,-3.5087,-3.565,-3.6282,-3.6627,-3.7017,-3.739,-3.7716,-3.8058,-3.843,-3.8802,-3.8988,-3.8988,-3.8988,-3.8819,-3.8447,-3.8447,-3.8278,-3.7905,-3.7905,-3.7905,-3.7905,-3.7905,-3.7905,-3.7905,-3.7905,-3.7905,-3.7872,-3.7499,-3.711,-3.6772,-3.6772,-3.6299,-3.5622,-3.5622,-3.5622,-3.5622,-1.2392,-1.2518,-1.2518,-1.2499,-1.2514,-1.2514,-1.2514,-1.37,-1.46,-1.46,-1.5785,-1.6596,-1.6596,-1.6596,-1.6707,-1.6975,-1.8061,0.0,0.0,-2.0794,-2.0794,-2.0794,-2.0794,-2.0857,-2.1,-2.16,-2.2011,-2.2197,-2.3317,-2.3986,-2.4128,-2.4697,-2.5005,-2.5005,-2.5084,-2.5246,-2.5503,-2.5503,-2.5689,-2.598,-2.5924,-2.5888,-2.5721,-2.4398,-2.3876,-2.3832,-2.3685,-2.3178,-2.254,-2.2605,-2.2098,-2.1401,-2.1103,-2.0991,-2.0942,-2.0613,-2.0494,0.0,0.0,0.0,0.0,0.0,0.0,0.0,0.0,0.0,-2.5403,-2.642,-2.7726,-2.9034,-3.0116,-3.0937,-3.1782,-3.279,-3.3478,-3.4063,-3.4509,-3.4789,-3.5006,-3.5171,-3.6129,-3.6864,-3.7109,-3.7611,-3.8004,-3.8156,-3.8667,-3.9056,-3.9191,-3.9766,-4.007,-4.007,-4.007,-3.9783,-3.9208,-3.9208,-3.8903,-3.8328,-3.8328,-3.8328,-3.8328,-3.8328,-3.8328,-3.8328,-3.8328,-3.8261,-3.8125,-3.8278,-3.8159,-3.7922,-3.8075,-3.728,-3.6062,-3.6062,-3.6062,-3.6062,0.0,-1.2591,-1.2569,-1.2499,-1.2514,-1.2514,-1.2514,-1.37,-1.46,-1.46,-1.5785,-1.6596,-1.6596,-1.6596,-1.7085,-1.8361,0.0,0.0,-2.0699,-2.0794,-2.0794,-2.0794,-2.0794,-2.1094,-2.1758,-2.1853,-2.2485,-2.3686,-2.3844,-2.4239,-2.4894,-2.4974,-2.5005,-2.5005,-2.5307,-2.5465,-2.5503,-2.5503,-2.554,-2.554,-2.5246,-2.5107,-2.5091,-2.4893,-2.4846,-2.4761,-2.405,-2.3162,-2.2362,-2.2621,-2.2036,-2.1199,-2.1039,-2.0991,-2.0942,-2.0613,0.0,-2.0618,-2.1311,-2.2019,-2.2661,-2.3067,-2.3654,-2.4624,0.0,0.0,-2.7696,-2.9222,-3.0469,-3.1531,-3.2299,-3.3166,-3.3974,-3.4741,-3.4947,-3.5238,-3.59,-3.6037,-3.6294,-3.6778,-3.6557,-3.6801,-3.7916,-3.8006,-3.8269,-3.8982,-3.9003,-3.9276,-3.9918,-4.0037,-4.007,-4.007,-4.007,-4.0037,-3.9952,-3.9952,-3.9918,-3.9834,-3.9834,-3.9834,-3.9834,-3.9834,-3.9834,-3.9834,-3.9834,-3.9462,-3.892,-3.9563,-3.9073,-3.7973,-3.8616,-3.8362,-3.7652,-3.7652,-3.7652,-3.7652,0.0,-1.2665,-1.2719,-1.2678,-1.2604,-1.2562,-1.2514,-1.37,-1.46,-1.46,-1.5785,-1.6596,-1.6596,-1.6596,-1.7176,-1.8582,-1.8708,0.0,-2.0699,-2.0794,-2.0794,-2.0794,-2.0794,-2.1142,-2.1884,-2.228,-2.2943,-2.3923,-2.4334,-2.4681,-2.5005,-2.5005,-2.5005,-2.5005,-2.5146,-2.5208,-2.5208,-2.5208,-2.5208,-2.5208,-2.5045,-2.5005,-2.5005,-2.5005,-2.4738,-2.4342,-2.3983,-2.333,0.0,0.0,-2.1663,-2.0974,-2.0909,-2.0861,-2.0923,-2.1232,-2.1324,0.0,-2.2917,-2.3661,-2.4259,0.0,-2.5875,-2.6587,-2.7744,-2.8477,-2.9269,-3.0687,-3.1713,-3.272,-3.3985,-3.4507,-3.4973,0.0,-3.5835,-3.5956,-3.6224,-3.6259,-3.6551,-3.7256,-3.7157,-3.7509,-3.8764,-3.9194,-3.9521,-3.991,-3.9829,-3.9866,-4.0171,-4.0138,-4.007,-4.007,-4.007,-4.007,-4.007,-4.007,-4.007,-4.007,-4.007,-4.007,-4.007,-4.007,-4.007,-4.007,-4.007,-3.9901,-3.9648,-3.9952,-3.9715,-3.9208,-3.9512,-3.9445,-3.9073,-3.8227,-3.7905,-3.7905,0.0,-1.2759,-1.2832,-1.2832,-1.2741,-1.2646,-1.2542,-1.3727,-1.4607,-1.46,-1.5785,-1.6596,-1.6596,-1.6596,-1.7192,-1.8657,-1.8738,0.0,0.0,-2.0827,-2.0794,-2.0794,-2.0794,-2.1221,-2.2153,-2.2643,-2.3322,-2.4207,-2.4752,-2.5005,-2.5005,-2.5005,-2.5005,-2.5005,-2.5005,-2.5005,-2.5005,-2.5005,-2.5005,-2.5005,-2.5005,-2.5005,-2.5005,-2.5005,-2.4523,-2.3923,-2.3923,-2.3354,0.0,0.0,-2.1395,-2.0794,-2.0794,-2.0794,-2.0936,-2.1663,-2.2153,-2.273,-2.4007,-2.4847,0.0,-2.6672,-2.7495,-2.8131,-2.872,-2.9443,-3.0297,-3.1465,-3.2349,-3.3391,-3.4758,-3.517,-3.5538,-3.6215,-3.6371,-3.6354,-3.6148,-3.6388,-3.6818,-3.7477,-3.7657,-3.8275,-3.9645,-3.9965,-4.0171,-4.0436,-4.0337,-4.0288,-4.0238,-4.0138,-4.007,-4.007,-4.007,-4.007,-4.007,-4.007,-4.007,-4.007,-4.007,-4.007,-4.007,-4.007,-4.007,-4.007,-4.007,-4.007,-4.007,-4.007,-4.007,-4.007,-4.007,-4.007,-3.9952,-3.8903,-3.8514,-3.8514,0.0,0.0,-1.2889,-1.2889,-1.2889,-1.2834,-1.263,-1.3802,-1.466,-1.4623,-1.5785,-1.6596,-1.6596,-1.6596,-1.7246,-1.886,-1.8797,-1.937,-2.1007,-2.0893,-2.0794,-2.0794,-2.0794,-2.1442,-2.2817,-2.29,-2.3597,-2.4974,-2.5005,-2.5005,-2.5005,-2.5005,-2.5005,-2.5005,-2.5005,-2.5005,-2.5005,-2.5005,-2.5005,-2.5005,-2.5005,-2.5005,-2.5005,-2.5005,-2.4523,-2.3923,-2.3923,0.0,0.0,-2.1818,-2.1363,-2.0794,-2.0794,-2.0794,0.0,-2.1597,-2.2749,-2.386,0.0,0.0,-2.6068,-2.6502,-2.7697,-2.8844,-2.9197,-2.9897,-3.0684,-3.144,-3.253,-3.3601,-3.4406,-3.5091,-3.5732,-3.6199,-3.6539,-3.6429,-3.5718,-3.659,-3.7387,-3.7672,-3.7963,-3.8858,-4.0525,-4.0037,-3.9833,-4.0288,-4.0305,-4.0238,-4.0121,-4.007,-4.007,-4.007,-4.007,-4.007,-4.007,-4.007,-4.007,-4.007,-4.007,-4.007,-4.007,-4.007,-4.007,-4.007,-4.007,-4.007,-4.007,-4.007,-4.007,-4.007,-4.007,-4.007,-4.007,-4.002,-4.0003,-4.0003,0.0,0.0,0.0,-1.3031,-1.3031,-1.2995,-1.2815,-1.3886,-1.4683,-1.466,-1.5794,0.0,0.0,0.0,0.0,0.0,0.0,-1.9313,-2.0303,-2.0767,-2.099,-2.099,-2.086,-2.1442,-2.2848,-2.3024,-2.3708,-2.5005,-2.5123,-2.5139,-2.5005,-2.5005,-2.5005,-2.5005,-2.5005,-2.5005,-2.5005,-2.5005,-2.5559,-2.6309,-2.5401,-2.5535,-2.6277,-2.5369,-2.4293,-2.3228,0.0,0.0,-2.1821,-2.1316,-2.0984,-2.0794,-2.0794,0.0,0.0,-2.2185,-2.3844,-2.5298,-2.5298,0.0,-2.721,-2.7915,-2.8617,-2.928,-2.9939,-3.0294,-3.0717,-3.143,-3.1907,-3.2436,-3.3155,-3.4172,-3.4914,-3.5087,-3.6293,-3.7134,-3.6894,-3.7583,-3.8212,-3.8288,-3.8499,-3.9041,-3.995,-4.0209,-4.0387,-4.0551,-4.0485,-4.0387,-4.0238,-4.0138,-4.0138,-4.0238,-4.0238,-4.0238,-4.0238,-4.0238,-4.0188,-4.007,-4.007,-4.007,-4.007,-4.007,-4.007,-4.007,-4.007,-4.007,-4.007,-4.007,-4.007,-4.007,-4.007,-4.007,-4.007,-4.007,-4.007,-4.007,0.0,0.0,0.0,0.0,0.0,0.0,0.0,0.0,0.0,0.0,0.0,0.0,0.0,0.0,0.0,0.0,0.0,0.0,-2.0042,0.0,-2.1135,-2.1167,-2.1055,-2.1532,-2.2697,-2.2833,-2.3503,-2.4719,-2.491,-2.5038,-2.51,-2.51,-2.51,-2.5084,-2.5045,-2.5005,-2.5005,-2.5005,-2.5503,-2.6261,-2.5385,-2.5559,-2.6246,-2.5353,-2.4293,0.0,0.0,0.0,-2.179,-2.1047,-2.0794,-2.0842,0.0,0.0,-2.2137,-2.3291,-2.476,-2.6119,-2.6609,-2.7264,-2.7971,-2.8737,-2.907,-2.9381,-2.9897,-3.0011,-3.0141,-3.0582,-3.1052,-3.1495,-3.1957,-3.2918,-3.374,-3.4185,-3.5633,-3.6751,-3.6951,-3.7911,-3.8653,-3.8745,-3.8986,-3.9426,-4.0048,-4.05,-4.0697,-4.0648,-4.0534,-4.0436,-4.0238,-4.0188,-4.0188,-4.0305,-4.0305,-4.0305,-4.0305,-4.0238,-4.0188,-4.007,-4.007,-4.007,-4.007,-4.007,-4.007,-4.007,-4.007,-4.007,-4.007,-4.007,-4.007,-4.007,-4.007,-4.007,-4.007,-4.007,-4.007,-4.007,0.0,0.0,0.0,0.0,0.0,0.0,0.0,0.0,0.0,0.0,0.0,0.0,0.0,0.0,0.0,0.0,0.0,0.0,0.0,0.0,0.0,-2.1277,-2.1277,-2.1617,-2.2377,-2.2394,-2.2971,-2.4175,-2.4321,-2.4712,-2.5182,-2.5182,-2.5198,-2.523,-2.5036,-2.4974,-2.5005,-2.5005,-2.5037,-2.5069,-2.5021,-2.5037,-2.5069,-2.5021,0.0,0.0,0.0,0.0,0.0,0.0,0.0,0.0,0.0,0.0,0.0,-2.4863,-2.5566,-2.6451,-2.7778,-2.8189,-2.8395,-2.9027,-2.9138,-2.9122,-2.9091,-2.9075,-2.9075,-2.909,-2.998,-3.0762,0.0,0.0,-3.236,-3.3574,-3.4644,-3.5544,-3.6108,-3.7718,-3.8873,0.0,0.0,0.0,0.0,0.0,-4.0648,-4.0534,-4.0485,-4.037,-4.0121,-4.0238,-4.0305,-4.0305,-4.0305,-4.0305,-4.0305,-4.0188,-4.007,-4.007,-4.007,-4.007,-4.007,-4.007,-4.007,-4.007,-4.007,-4.007,-4.007,-4.007,-4.007,-4.007,-4.007,-4.007,-4.007,-4.007,-4.007,-4.007,0.0,0.0,0.0,0.0,0.0,0.0,0.0,0.0,0.0,0.0,0.0,0.0,0.0,0.0,0.0,0.0,0.0,0.0,0.0,0.0,0.0,0.0,0.0,-2.1391,-2.2377,-2.2262,-2.2663,0.0,-2.3562,-2.3642,-2.389,-2.3491,-2.3723,-2.4457,-2.4268,-2.4476,-2.5005,-2.5005,-2.5306,-2.5693,0.0,-2.5282,-2.5677,0.0,0.0,0.0,0.0,0.0,0.0,0.0,0.0,0.0,0.0,-2.4349,-2.5503,0.0,0.0,-2.841,-2.8774,-2.9627,-3.0338,-2.999,-2.9911,-2.9769,-2.9248,-2.9075,-2.8933,-2.8474,-2.8624,-2.8666,0.0,0.0,0.0,-3.2929,-3.5672,0.0,-3.8657,-3.9658,0.0,-4.0388,0.0,-4.0664,-4.0871,-4.0793,-4.0697,-4.0648,-4.0436,-4.0337,-4.0238,-4.0305,-4.0404,-4.06,-4.06,-4.0551,-4.0436,-4.0238,-4.007,-4.007,-4.007,-4.007,-4.007,-4.007,-4.007,-4.007,-4.007,-4.007,-4.007,-4.007,-4.007,-4.007,-4.007,-4.007,-4.007,-4.007,-4.007,-4.007,0.0,0.0,0.0,0.0,0.0,0.0,0.0,0.0,0.0,0.0,0.0,0.0,0.0,0.0,0.0,0.0,0.0,0.0,0.0,0.0,0.0,0.0,-2.1309,-2.1455,-2.1908,-2.1956,-2.2232,0.0,0.0,0.0,-2.3323,-2.2988,-2.3158,-2.3759,-2.3612,-2.3782,-2.4163,-2.4087,0.0,0.0,0.0,0.0,0.0,0.0,0.0,0.0,0.0,0.0,0.0,0.0,0.0,-2.4428,-2.4729,-2.5598,-2.6546,-2.6846,0.0,-2.9185,-2.9501,-3.0164,-3.067,-3.0275,-2.9959,-2.9532,-2.8837,-2.8679,-2.8489,-2.7794,-2.7652,0.0,-2.7178,-2.8737,0.0,0.0,0.0,0.0,-3.8357,-3.9177,-3.9868,0.0,-4.0303,0.0,-4.0402,-4.0154,-4.0138,-4.0646,-4.0578,-4.0323,-4.002,-4.0375,-4.046,-4.032,-4.0534,-4.06,-4.0436,-4.0171,-4.007,-4.007,-4.007,-4.007,-4.007,-4.007,-4.007,-4.007,-4.007,-4.007,-4.007,-4.007,-4.007,-4.007,-4.007,-4.007,-4.007,-4.007,-4.007,-4.007,0.0,0.0,0.0,0.0,0.0,0.0,0.0,0.0,0.0,0.0,0.0,0.0,0.0,0.0,0.0,0.0,0.0,0.0,0.0,0.0,0.0,0.0,-2.1694,-2.1617,-2.1325,-2.1556,-2.1758,0.0,0.0,0.0,0.0,0.0,0.0,0.0,0.0,0.0,0.0,0.0,0.0,0.0,0.0,0.0,0.0,0.0,0.0,0.0,0.0,0.0,0.0,0.0,-2.5211,-2.5417,-2.6072,-2.6783,-2.7494,-2.8063,-2.879,-2.9548,-3.0148,-3.0449,-3.0543,-3.037,-2.9848,-2.9169,-2.83,-2.8094,-2.7873,-2.7115,0.0,-2.6925,-2.6846,-2.7597,-2.8688,-3.0085,0.0,-3.4258,-3.6886,-3.7714,-3.8531,-3.9732,-3.9506,-3.9365,-3.9679,-3.9379,-3.9549,-4.0538,-4.0717,-4.045,-3.969,-4.0433,-4.0608,-3.9952,-4.0419,-4.0551,-4.0355,-4.0188,-4.007,-4.007,-4.007,-4.007,-4.007,-4.007,-4.007,-4.007,-4.007,-4.007,-4.007,-4.007,-4.007,-4.007,-4.007,-4.007,-4.007,-4.007,-4.007,-4.007,0.0,0.0,0.0,0.0,0.0,0.0,0.0,0.0,0.0,0.0,-1.7467,-1.7403,0.0,0.0,0.0,0.0,0.0,0.0,0.0,0.0,0.0,0.0,-2.1481,-2.1371,-2.1309,-2.1087,0.0,0.0,0.0,0.0,0.0,0.0,0.0,0.0,0.0,0.0,0.0,0.0,0.0,0.0,0.0,0.0,0.0,0.0,0.0,0.0,0.0,0.0,0.0,0.0,-2.623,-2.6846,-2.7525,-2.8205,-2.876,-2.887,-2.9848,-3.0875,-3.1002,-3.1887,-3.2487,-3.1334,-3.0939,-3.037,-2.8521,-2.8094,0.0,0.0,-2.6198,-2.6024,-2.5496,-2.7208,-2.9227,-3.0635,0.0,0.0,0.0,0.0,-3.8424,0.0,-3.9259,-3.9259,-3.9312,-3.9627,-3.9968,-4.0233,-4.0818,-4.0756,-3.9985,-4.0541,-4.0815,-4.0697,-4.0583,-4.0534,-4.0485,-4.0221,-4.007,-4.007,-4.007,-4.007,-4.007,-4.007,-4.007,-4.007,-4.007,-4.007,-4.007,-4.007,-4.007,-4.007,-4.007,-4.007,-4.007,-4.007,-4.007,-4.007,0.0,0.0,0.0,0.0,0.0,0.0,0.0,-1.6254,-1.7233,-1.7922,-1.8021,-1.7864,-1.7452,-1.7403,-1.7378,0.0,0.0,0.0,0.0,0.0,0.0,0.0,0.0,-2.1419,0.0,0.0,0.0,0.0,0.0,0.0,0.0,0.0,0.0,0.0,0.0,0.0,0.0,0.0,0.0,0.0,0.0,0.0,0.0,0.0,0.0,0.0,0.0,0.0,0.0,0.0,-2.5945,-2.6767,-2.8189,-2.8853,-2.9075,-2.9075,-2.9864,-3.067,-3.067,-3.116,-3.1507,-3.0844,-3.0133,-2.9232,-2.7889,0.0,0.0,0.0,-2.5171,-2.4934,-2.5005,0.0,0.0,0.0,0.0,0.0,0.0,0.0,0.0,0.0,-3.8495,-3.8545,-3.9145,-3.9201,-3.9645,-4.0652,-4.0839,-4.0713,-4.0228,-4.0426,-4.0643,-4.0905,-4.068,-4.0583,-4.0485,-4.0288,-4.0188,-4.007,-4.007,-4.007,-4.007,-4.007,-4.007,-4.007,-4.007,-4.007,-4.007,-4.007,-4.007,-4.007,-4.007,-4.007,-4.007,-4.007,-4.007,-4.007,0.0,0.0,0.0,0.0,0.0,0.0,0.0,-1.642,-1.7557,-1.8377,-1.8493,-1.8319,-1.7756,-1.7706,-1.7657,0.0,0.0,0.0,0.0,0.0,0.0,0.0,0.0,0.0,0.0,0.0,0.0,0.0,0.0,0.0,0.0,0.0,0.0,0.0,0.0,0.0,0.0,0.0,0.0,0.0,0.0,0.0,0.0,0.0,0.0,0.0,0.0,0.0,0.0,0.0,-2.5456,-2.6119,-2.8079,-2.879,-2.8916,-2.8916,-2.9516,-3.018,-3.018,-3.0291,-3.037,-3.0227,-2.9232,-2.8094,-2.7288,-2.5993,0.0,0.0,-2.4302,-2.4081,-2.465,0.0,0.0,0.0,0.0,0.0,0.0,0.0,0.0,0.0,-3.7727,0.0,-3.8777,-3.8782,-3.9279,-4.0734,-4.0928,-4.091,-4.0615,-4.0331,-4.0406,-4.0888,-4.0793,-4.0648,-4.0534,-4.0387,-4.0238,-4.0138,-4.0121,-4.007,-4.007,-4.007,-4.007,-4.007,-4.007,-4.007,-4.007,-4.007,-4.007,-4.007,-4.007,-4.007,-4.007,-4.007,-4.007,-4.007,0.0,0.0,0.0,0.0,0.0,0.0,0.0,-1.5972,-1.6977,-1.8311,-1.8493,-1.8476,-1.8393,-1.8393,-1.817,0.0,0.0,0.0,0.0,0.0,0.0,0.0,0.0,0.0,0.0,0.0,0.0,0.0,0.0,0.0,0.0,0.0,0.0,0.0,0.0,0.0,0.0,0.0,0.0,0.0,0.0,0.0,0.0,0.0,0.0,0.0,0.0,0.0,0.0,0.0,0.0,-2.5369,-2.6814,-2.7699,-2.8189,-2.8189,0.0,0.0,-3.018,-3.0638,-3.097,-3.0338,-2.9595,-2.8649,-2.7399,0.0,0.0,-2.4144,-2.397,-2.3939,-2.4002,-2.5108,0.0,0.0,0.0,-3.1144,0.0,0.0,0.0,0.0,0.0,0.0,-3.7634,-3.8742,-3.9471,-3.9644,-4.1387,-4.2057,-4.1165,-4.0431,-4.0288,-4.0871,-4.0793,-4.0697,-4.0697,-4.0453,-4.0288,-4.0305,-4.0188,-4.007,-4.007,-4.007,-4.007,-4.007,-4.007,-4.007,-4.007,-4.007,-4.007,-4.007,-4.007,-4.007,-4.007,-4.007,-4.007,-4.007,0.0,0.0,0.0,0.0,0.0,0.0,-1.5193,-1.5923,-1.6918,-1.8311,-1.889,-1.9154,-1.9154,-1.9154,-1.8691,-1.7614,0.0,0.0,0.0,0.0,0.0,0.0,0.0,0.0,0.0,0.0,0.0,0.0,0.0,0.0,0.0,0.0,0.0,0.0,0.0,0.0,0.0,0.0,0.0,0.0,0.0,0.0,0.0,0.0,0.0,0.0,0.0,0.0,0.0,0.0,0.0,0.0,-2.3923,-2.4997,0.0,0.0,-2.8489,-2.9011,-2.9437,-2.9738,-2.9896,-2.9611,-2.8726,-2.7762,-2.7225,0.0,-2.3875,-2.4444,-2.3875,-2.3559,-2.4397,-2.5013,-2.5851,-2.7273,-2.7968,-2.9295,-3.2045,0.0,0.0,0.0,-3.6595,0.0,0.0,-3.8586,-3.925,-4.0103,-4.1148,-4.1592,-4.1229,-4.1288,-4.1172,-4.0905,-4.084,-4.0793,-4.0697,-4.06,-4.0502,-4.0436,-4.0387,-4.0288,-4.0238,-4.0238,-4.0188,-4.007,-4.007,-4.007,-4.007,-4.007,-4.007,-4.007,-4.007,-4.007,-4.007,-4.007,-4.007,-4.007,0.0,0.0,0.0,0.0,0.0,-1.4195,-1.5143,-1.574,-1.6669,-1.8278,-1.8939,-1.9353,-1.9568,-1.9402,-1.8873,-1.7872,-1.8054,0.0,0.0,0.0,0.0,0.0,0.0,0.0,0.0,0.0,-2.123,-2.1087,-2.1371,0.0,0.0,0.0,0.0,0.0,0.0,0.0,0.0,0.0,0.0,0.0,0.0,0.0,0.0,0.0,0.0,0.0,0.0,0.0,0.0,0.0,0.0,0.0,0.0,0.0,0.0,0.0,-2.7604,-2.8189,-2.8695,-2.8979,-2.9075,-2.9075,-2.811,-2.7099,0.0,-2.5061,-2.3465,-2.446,-2.3875,-2.3496,-2.4476,-2.4863,-2.5401,-2.6577,-2.713,-2.83,-3.086,-3.1997,0.0,0.0,0.0,-3.6579,-3.778,-3.8444,-3.928,-4.0498,-4.12,-4.1458,-4.1194,-4.1808,-4.1783,-4.0922,-4.0888,-4.0823,-4.0745,-4.0697,-4.0648,-4.0534,-4.0534,-4.0436,-4.0305,-4.0337,-4.0271,-4.0087,-4.0103,-4.0103,-4.0087,-4.0087,-4.0104,-4.007,-4.007,-4.007,-4.007,-4.007,-4.007,-4.007,0.0,0.0,0.0,0.0,0.0,0.0,-1.5077,-1.5309,-1.6088,-1.8211,-1.8493,-1.8774,-1.9518,-1.8939,-1.8493,-1.8476,-1.7888,0.0,0.0,0.0,0.0,0.0,0.0,0.0,0.0,0.0,-2.1309,-2.1309,-2.1309,-2.1419,-2.1589,-2.1589,0.0,0.0,0.0,0.0,0.0,0.0,0.0,0.0,0.0,0.0,0.0,0.0,0.0,0.0,0.0,0.0,0.0,0.0,0.0,0.0,0.0,0.0,0.0,0.0,-2.6509,-2.8094,-2.811,-2.86,-2.9075,-2.9075,-2.811,-2.7099,0.0,-2.544,-2.3907,-2.3923,-2.3923,-2.3907,-2.3923,-2.4507,-2.5243,-2.5898,-2.7178,-2.8821,-3.0923,-3.2424,0.0,0.0,0.0,-3.5679,-3.6374,-3.8286,-3.9797,-4.0464,-4.1674,-4.2032,-4.1255,-4.1696,-4.1647,-4.0905,-4.0888,-4.0888,-4.0888,-4.0745,-4.0697,-4.0697,-4.0583,-4.0436,-4.0288,-4.0436,-4.0336,-4.0102,-4.0082,-4.0099,-4.0102,-4.0102,-4.0103,-4.007,-4.007,-4.007,-4.007,-4.007,-4.007,-4.007,0.0,0.0,0.0,0.0,0.0,0.0,0.0,-1.4977,-1.5723,-1.6918,-1.7905,-1.8592,-1.8823,-1.8641,-1.8493,-1.8493,-1.7888,0.0,0.0,0.0,0.0,0.0,0.0,0.0,0.0,0.0,-2.1023,-2.1167,-2.1167,-2.1199,-2.1262,-2.1481,-2.1603,-2.1664,0.0,0.0,0.0,0.0,0.0,0.0,0.0,0.0,0.0,0.0,0.0,0.0,0.0,0.0,0.0,0.0,0.0,0.0,0.0,0.0,0.0,0.0,0.0,0.0,-2.6546,-2.7194,-2.762,-2.7115,-2.6672,-2.6356,-2.6356,-2.5092,-2.4049,-2.4539,-2.4255,-2.4065,-2.4555,-2.4863,-2.5543,-2.7162,-2.781,-2.8821,0.0,0.0,0.0,-3.4525,-3.5932,-3.6911,-3.7117,-3.816,-3.8885,-3.9113,-4.034,-4.1091,-4.1288,-4.1827,-4.1766,-4.0922,-4.0888,-4.0888,-4.0888,-4.0888,-4.084,-4.084,-4.0776,-4.068,-4.0551,-4.06,-4.0517,-4.0385,-4.0387,-4.0506,-4.0593,-4.0222,-4.0104,-4.007,-4.007,-4.007,-4.007,-4.007,-4.007,-4.007,0.0,0.0,0.0,0.0,0.0,0.0,0.0,-1.4592,-1.516,-1.5889,-1.6768,-1.7508,-1.8071,-1.7872,-1.7922,-1.8443,-1.7888,0.0,0.0,0.0,0.0,0.0,0.0,0.0,-2.0811,-2.0782,-2.086,-2.099,-2.099,-2.1038,-2.1087,-2.1325,-2.145,-2.1481,-2.1356,0.0,0.0,0.0,0.0,0.0,0.0,0.0,0.0,0.0,0.0,0.0,0.0,0.0,0.0,0.0,0.0,0.0,0.0,0.0,0.0,0.0,-2.2769,0.0,0.0,-2.5945,-2.6309,-2.6404,-2.6024,-2.5614,-2.5614,-2.4729,-2.397,-2.4182,-2.4033,-2.4049,-2.4492,-2.4831,-2.5433,-2.6704,-2.7367,0.0,0.0,0.0,0.0,-3.4557,0.0,-3.7085,-3.7085,-3.7954,-3.8412,-3.8144,-3.9479,-4.0377,-4.0514,-4.1285,-4.1475,-4.0905,-4.1147,-4.1164,-4.0888,-4.0888,-4.0888,-4.0888,-4.0888,-4.084,-4.0697,-4.0745,-4.068,-4.0485,-4.0605,-4.0624,0.0,-4.0491,-4.0323,-4.0239,-4.0222,-4.0205,-4.0188,-4.0138,-4.007,-4.007,0.0,0.0,0.0,0.0,0.0,0.0,0.0,-1.4159,-1.446,-1.5126,-1.5259,-1.584,-1.7283,-1.6818,-1.6951,-1.8294,0.0,0.0,0.0,0.0,0.0,0.0,0.0,0.0,-1.9968,-2.0528,-2.0794,-2.0794,-2.0794,-2.0893,-2.1071,-2.1103,-2.1167,-2.1294,-2.1294,-2.123,0.0,0.0,0.0,0.0,0.0,0.0,0.0,0.0,0.0,0.0,0.0,0.0,0.0,0.0,0.0,0.0,0.0,0.0,0.0,0.0,0.0,0.0,0.0,0.0,0.0,-2.6404,-2.5772,-2.4863,-2.4863,-2.4318,0.0,-2.3022,-2.3433,-2.3939,-2.3986,-2.4523,-2.5069,-2.5274,-2.634,0.0,0.0,-3.116,0.0,0.0,-3.6105,-3.65,-3.65,-3.767,-3.8175,-3.7528,-3.9072,-3.9842,-3.9305,-4.0323,-4.0961,-4.0957,-4.163,-4.163,-4.0888,-4.0888,-4.0888,-4.0888,-4.0888,-4.084,-4.0697,-4.084,-4.0776,-4.0534,-4.0783,-4.0568,-4.0152,-4.0639,-4.0724,-4.0508,-4.044,-4.0339,-4.0288,-4.0138,-4.007,-4.007,0.0,0.0,0.0,0.0,0.0,0.0,0.0,0.0,0.0,0.0,-1.4961,-1.5641,-1.6553,-1.6503,-1.6768,0.0,0.0,0.0,0.0,0.0,0.0,0.0,0.0,0.0,-1.9845,-2.0479,-2.0794,-2.0794,-2.0794,-2.0827,-2.086,-2.1038,-2.1135,-2.1167,-2.1167,-2.1023,0.0,0.0,0.0,0.0,0.0,0.0,0.0,0.0,0.0,0.0,-2.1047,-2.0952,0.0,0.0,0.0,0.0,0.0,0.0,0.0,0.0,-2.1047,-2.1284,-2.2327,0.0,-2.3322,-2.3117,-2.3228,-2.3407,0.0,-2.3243,-2.3085,0.0,0.0,0.0,0.0,0.0,0.0,0.0,0.0,0.0,-3.1176,0.0,0.0,-3.6801,-3.7133,-3.7227,-3.7227,-3.7528,-3.7654,-3.7496,-3.8396,-3.9256,-4.0017,-4.0788,-4.1371,-4.175,-4.1888,-4.163,-4.0888,-4.0888,-4.0888,-4.0888,-4.0888,-4.0871,-4.0823,-4.0888,-4.0888,-4.0776,-4.0645,-4.0412,-4.0144,-4.0483,-4.0688,-4.0774,-4.0423,-4.0305,-4.0288,-4.0138,-4.007,-4.0121,0.0,0.0,0.0,0.0,0.0,0.0,0.0,0.0,0.0,0.0,0.0,-1.4712,-1.5773,-1.5889,0.0,0.0,0.0,0.0,0.0,0.0,0.0,0.0,0.0,-1.8641,-1.9293,-1.9988,-2.0494,-2.0794,-2.0794,-2.0794,-2.0794,-2.0893,-2.0958,-2.0958,-2.0958,-2.0893,0.0,0.0,0.0,0.0,0.0,0.0,0.0,0.0,0.0,0.0,-2.0794,-2.0794,0.0,-2.0794,-2.0794,-2.0794,0.0,0.0,0.0,0.0,-2.0794,-2.0889,-2.1284,-2.19,-2.2485,-2.2686,-2.2833,-2.288,-2.288,0.0,0.0,0.0,0.0,0.0,0.0,0.0,0.0,0.0,-2.8173,0.0,0.0,0.0,-3.59,-3.7306,-3.748,-3.748,-3.748,-3.748,-3.748,-3.748,-3.8312,-3.9137,-3.9769,-4.0618,-4.124,-4.1492,-4.1474,-4.1285,-4.0888,-4.0888,-4.0888,-4.0888,-4.0888,-4.0888,-4.0888,-4.0888,-4.0905,-4.0909,-4.0762,-4.0597,-4.0497,-4.0617,-4.0768,-4.0871,-4.0504,-4.0387,-4.0387,-4.0171,-4.007,-4.0138,0.0,0.0,0.0,0.0,0.0,0.0,0.0,0.0,0.0,0.0,0.0,0.0,0.0,0.0,0.0,0.0,0.0,0.0,0.0,0.0,0.0,0.0,-1.7427,-1.8,-1.8693,-1.9435,-2.0131,-2.0794,-2.0794,-2.0794,-2.0794,-2.0794,-2.0794,-2.0794,-2.0794,-2.0794,0.0,0.0,0.0,0.0,0.0,0.0,0.0,0.0,0.0,0.0,0.0,0.0,0.0,-2.0794,-2.0794,-2.0794,-2.0794,0.0,0.0,0.0,0.0,0.0,-2.0936,-2.1489,-2.2264,-2.3212,-2.3164,-2.2848,0.0,0.0,0.0,0.0,0.0,0.0,0.0,0.0,0.0,0.0,0.0,0.0,-3.3846,-3.492,-3.5957,-3.7467,-3.7642,-3.7642,-3.7642,-3.7642,-3.7583,-3.7539,-3.8439,-3.9082,-3.9206,-4.0187,-4.0823,-4.0888,-4.0888,-4.0888,-4.0888,-4.0888,-4.0888,-4.0888,-4.0888,-4.0888,-4.0888,-4.0888,-4.0875,-4.0882,-4.0882,-4.0917,-4.0888,-4.0899,-4.0882,-4.0865,-4.0617,-4.0534,-4.0485,-4.0221,-4.0171,-4.0171,0.0,0.0,0.0,0.0,0.0,0.0,0.0,0.0,0.0,0.0,0.0,0.0,0.0,0.0,0.0,0.0,0.0,0.0,0.0,0.0,0.0,-1.6815,-1.74,-1.8,-1.8693,-1.9435,-2.0131,-2.0794,-2.0794,-2.0794,-2.0794,-2.0794,-2.0794,-2.0794,-2.0794,-2.0794,-2.0794,-2.0794,0.0,0.0,0.0,0.0,0.0,0.0,0.0,0.0,0.0,0.0,0.0,-2.0794,-2.0794,-2.0794,-2.0794,0.0,0.0,0.0,0.0,0.0,-2.1553,-2.2216,-2.2501,-2.1521,-2.2074,-2.2722,0.0,0.0,0.0,0.0,0.0,0.0,0.0,0.0,0.0,0.0,0.0,-3.2376,0.0,0.0,-3.611,-3.7963,-3.8181,-3.8181,-3.8181,-3.8181,-3.7985,-3.7524,-3.81,-3.8684,-3.9152,-3.9817,-4.0385,-4.0871,-4.0888,-4.0888,-4.0888,-4.0888,-4.0888,-4.0888,-4.0888,-4.0888,-4.0888,-4.0888,-4.0888,-4.0905,-4.0905,-4.0905,-4.0875,-4.0905,-4.0905,-4.0905,-4.0745,-4.0648,-4.0648,-4.0485,-4.0436,-4.0485,0.0,0.0,0.0,0.0,0.0,0.0,0.0,0.0,0.0,0.0,0.0,0.0,0.0,0.0,0.0,0.0,0.0,0.0,0.0,0.0,-1.6876,-1.7273,-1.7567,-1.8,-1.8693,-1.9435,-2.0131,-2.0794,-2.0794,-2.0794,-2.0794,-2.0794,-2.0794,-2.0794,-2.0794,-2.0794,-2.0794,-2.0794,0.0,0.0,0.0,0.0,0.0,0.0,0.0,0.0,0.0,0.0,0.0,0.0,-2.0794,-2.0794,-2.0794,0.0,0.0,0.0,0.0,0.0,-2.1205,-2.1821,-2.2185,-2.1553,-2.2422,-2.3354,-2.2986,0.0,0.0,0.0,0.0,0.0,0.0,0.0,-2.8489,-3.0923,0.0,-3.2792,-3.4099,-3.5163,-3.6307,-3.7614,-3.8345,-3.881,-3.881,-3.881,-3.8535,-3.8001,-3.8723,-3.9209,-3.9206,-4.0037,-4.0597,-4.0871,-4.0888,-4.0888,-4.0888,-4.0888,-4.0888,-4.0888,-4.0888,-4.0888,-4.0888,-4.0888,-4.0888,-4.0888,-4.0888,-4.0888,-4.0888,-4.0888,-4.0888,-4.0888,-4.0745,-4.0697,-4.0697,-4.0534,-4.0534,-4.0648,0.0,0.0,0.0,0.0,0.0,0.0,0.0,0.0,0.0,0.0,0.0,0.0,0.0,0.0,0.0,0.0,0.0,0.0,0.0,-1.658,-1.6928,-1.7669,-1.7843,-1.8266,-1.8945,-1.9514,-2.0131,-2.0794,-2.0794,-2.0794,-2.0794,-2.0794,-2.0794,-2.0794,-2.0794,-2.0794,-2.0794,-2.0794,-2.0794,0.0,0.0,0.0,0.0,0.0,0.0,0.0,0.0,0.0,0.0,0.0,0.0,0.0,0.0,0.0,0.0,-2.0794,-2.0794,-2.0842,-2.1,-2.1458,-2.1932,-2.209,0.0,-2.3749,-2.4081,0.0,0.0,0.0,0.0,0.0,0.0,-2.7841,0.0,-3.176,-3.2297,-3.2929,-3.4115,-3.531,-3.6379,-3.7378,-3.8492,-3.9259,-3.9401,-3.9401,-3.9065,-3.8334,-3.9368,-3.9749,-3.9259,-4.0303,-4.0888,-4.0888,-4.0888,-4.0888,-4.0888,-4.0888,-4.0888,-4.0888,-4.0888,-4.0888,-4.0888,-4.0888,-4.0888,-4.0888,-4.0888,-4.0888,-4.0888,-4.0888,-4.0888,-4.0888,-4.0793,-4.0745,-4.0745,-4.0631,-4.0631,-4.0745,0.0,0.0,0.0,0.0,0.0,0.0,0.0,0.0,0.0,0.0,0.0,0.0,0.0,0.0,0.0,0.0,0.0,0.0,0.0,-1.6259,-1.6928,-1.7669,-1.8313,-1.8977,-1.9704,-1.9783,-2.0131,-2.0794,-2.0794,-2.0794,-2.0794,-2.0794,-2.0794,-2.0794,-2.0794,-2.0794,-2.0794,-2.0794,-2.0794,-2.0794,0.0,0.0,0.0,0.0,0.0,0.0,0.0,0.0,0.0,0.0,0.0,0.0,0.0,0.0,-2.0794,-2.0794,-2.0794,-2.0952,-2.1632,-2.1853,-2.2043,-2.2659,0.0,0.0,-2.4641,-2.4894,0.0,-2.653,0.0,0.0,0.0,-2.9611,-3.1112,-3.1255,-3.2376,-3.3482,-3.4194,-3.4976,-3.6101,-3.7824,-3.8742,-3.9401,-3.9902,-3.9952,-3.9473,-3.839,-3.9368,-3.9749,-3.9259,-4.0303,-4.0888,-4.0888,-4.0888,-4.0888,-4.0888,-4.0888,-4.0888,-4.0888,-4.0888,-4.0888,-4.0888,-4.0888,-4.0888,-4.0888,-4.0888,-4.0888,-4.0888,-4.0888,-4.0888,-4.0888,-4.0888,-4.0888,-4.0871,-4.0871,-4.0888,-4.0888,0.0,0.0,0.0,0.0,0.0,0.0,0.0,0.0,0.0,0.0,0.0,0.0,0.0,0.0,0.0,0.0,0.0,0.0,0.0,-1.5833,-1.6496,-1.7638,-1.8345,-1.8835,-1.9119,-1.9973,-2.0541,-2.0794,-2.0794,-2.0794,-2.0794,-2.0794,-2.0794,-2.0794,-2.0794,-2.0794,-2.0794,-2.0794,-2.0794,-2.0794,-2.0794,0.0,0.0,0.0,0.0,0.0,0.0,0.0,0.0,0.0,-2.0462,-2.0794,-2.0794,-2.0794,-2.0794,-2.0794,-2.0794,-2.0857,-2.1142,-2.1553,-2.2058,-2.2706,0.0,0.0,0.0,0.0,0.0,-2.6909,-2.7431,0.0,0.0,0.0,-3.1365,-3.1808,-3.2677,-3.3388,-3.364,-3.4897,-3.6217,-3.7317,-3.8655,-3.9808,-4.0497,-4.0549,-4.007,-3.8974,-3.9919,-4.0187,-3.9259,-4.0303,-4.0888,-4.0888,-4.0888,-4.0888,-4.0888,-4.0888,-4.0888,-4.0888,-4.0888,-4.0888,-4.0888,-4.0888,-4.0888,-4.0888,-4.0888,-4.0888,-4.0888,-4.0888,-4.0888,-4.0888,-4.0888,-4.0888,-4.0888,-4.0888,-4.0888,-4.0888,0.0,0.0,0.0,0.0,0.0,0.0,0.0,0.0,0.0,0.0,0.0,0.0,0.0,0.0,0.0,0.0,0.0,0.0,-1.5256,-1.5494,-1.6228,-1.7622,-1.8127,-1.8487,-1.8708,-1.9878,-2.0478,-2.0478,-2.0699,-2.0794,-2.0794,-2.0794,-2.0794,-2.0794,-2.0794,-2.0794,-2.0794,-2.0794,-2.0794,-2.0794,-2.0794,-2.0794,0.0,0.0,0.0,0.0,0.0,0.0,0.0,0.0,-2.0099,-2.051,-2.0731,-2.0794,-2.0794,-2.0794,-2.0794,-2.0794,-2.0794,-2.1158,-2.1711,0.0,0.0,0.0,0.0,0.0,0.0,-2.751,-2.811,0.0,-2.9959,0.0,0.0,-3.1855,-3.2708,-3.3309,-3.3309,-3.4683,-3.5976,-3.6672,-3.836,-3.9718,-4.0457,-4.0733,-4.0402,-3.9312,-4.0254,-4.0402,-3.9259,-4.0303,-4.0888,-4.0888,-4.0888,-4.0888,-4.0888,-4.0888,-4.0888,-4.0888,-4.0888,-4.0888,-4.0888,-4.0888,-4.0888,-4.0888,-4.0888,-4.0888,-4.0888,-4.0888,-4.0888,-4.0888,-4.0888,-4.0888,-4.0888,-4.0888,-4.0888,-4.0888,0.0,0.0,0.0,0.0,0.0,0.0,0.0,0.0,0.0,0.0,0.0,0.0,0.0,0.0,0.0,0.0,0.0,0.0,-1.4537,-1.5225,-1.6212,-1.7606,-1.7685,-1.8,-1.8677,-1.9404,-1.9799,-1.9815,-2.0462,-2.0794,-2.0794,-2.0794,-2.0794,-2.0794,-2.0794,-2.0794,-2.0794,-2.0794,-2.0794,-2.0794,-2.0794,-2.0794,0.0,0.0,0.0,0.0,0.0,0.0,0.0,0.0,-1.9783,-1.9909,-2.0573,-2.0778,-2.0778,-2.0794,-2.0794,-2.0794,-2.0794,-2.0794,0.0,0.0,0.0,0.0,0.0,0.0,0.0,-2.8649,-2.9091,-2.9343,-3.0054,-3.0749,-3.1223,-3.1223,-3.2392,-3.3309,-3.3309,-3.4322,-3.531,-3.5959,-3.7716,-3.9115,-3.9652,-4.0405,-4.0402,-3.9312,-4.0254,-4.0402,-3.9259,-4.0303,-4.0888,-4.0888,-4.0888,-4.0888,-4.0888,-4.0888,-4.0888,-4.0888,-4.0888,-4.0888,-4.0888,-4.0888,-4.0888,-4.0888,-4.0888,-4.0888,-4.0888,-4.0888,-4.0888,-4.0888,-4.0888,-4.0888,-4.0888,-4.0888,-4.0888,-4.0888,0.0,0.0,0.0,0.0,0.0,0.0,0.0,0.0,0.0,0.0,0.0,0.0,0.0,0.0,0.0,0.0,0.0,0.0,-1.3779,-1.449,-1.528,-1.618,-1.7176,-1.7543,-1.7212,-1.7966,-1.904,-2.0494,-2.0699,-2.0794,-2.0794,-2.0794,-2.0794,-2.0794,-2.0794,-2.0794,-2.0794,-2.0794,-2.0794,-2.0794,-2.0794,-2.0794,0.0,0.0,0.0,0.0,0.0,0.0,0.0,0.0,0.0,0.0,-1.9878,-2.0099,-2.0194,-2.0652,-2.0794,-2.0794,-2.0794,0.0,0.0,0.0,0.0,0.0,0.0,0.0,0.0,0.0,-2.9516,-2.9927,-3.0133,-3.116,-3.195,-3.195,-3.2708,-3.3309,-3.3309,-3.4196,-3.5152,-3.5893,-3.7597,-3.8975,-3.9646,-4.0038,-3.9969,-3.9259,-3.9868,-3.9969,-3.9259,-4.0303,-4.0888,-4.0888,-4.0888,-4.0888,-4.0888,-4.0888,-4.0888,-4.0888,-4.0888,-4.0888,-4.0888,-4.0888,-4.0888,-4.0888,-4.0888,-4.0888,-4.0888,-4.0888,-4.0888,-4.0888,-4.0888,-4.0888,-4.0888,-4.0888,-4.0888,-4.0888,0.0,0.0,0.0,0.0,0.0,0.0,0.0,0.0,0.0,0.0,0.0,0.0,0.0,0.0,0.0,0.0,0.0,0.0,0.0,-1.4189,-1.49,-1.5573,-1.667,-1.718,-1.7038,-1.7716,-1.8724,-1.9973,-1.9973,-1.9973,-1.9973,-2.0273,-2.0399,-2.0415,-2.0684,-2.0652,-2.0399,-2.0399,-2.0399,-2.0399,-2.0399,-2.0557,-2.0636,0.0,0.0,0.0,0.0,0.0,0.0,0.0,0.0,0.0,-1.9151,0.0,-1.9499,-2.021,-2.0399,-2.0462,-2.0731,0.0,0.0,0.0,0.0,0.0,0.0,0.0,0.0,0.0,-2.988,-3.0259,-3.0543,-3.1507,-3.2317,-3.2317,-3.285,-3.3309,-3.3309,-3.4152,-3.4998,-3.5462,-3.7063,-3.8257,-3.8505,-3.9358,-3.9463,-3.8508,-3.9426,-3.9749,-3.9259,-4.002,-4.0662,-4.0871,-4.0888,-4.0888,-4.0888,-4.0888,-4.0888,-4.0888,-4.0888,-4.0888,-4.0888,-4.0888,-4.0888,-4.0888,-4.0888,-4.0888,-4.0888,-4.0888,-4.0888,-4.0888,-4.0888,-4.0888,-4.0888,-4.0888,-4.0888,-4.0888,0.0,0.0,0.0,0.0,0.0,0.0,0.0,0.0,0.0,0.0,0.0,0.0,0.0,0.0,0.0,0.0,0.0,0.0,0.0,-1.4158,-1.4869,-1.5494,-1.6275,-1.7038,-1.7764,-1.8345,-1.8614,-1.8614,-1.8677,-1.8708,-1.8724,-1.9404,-1.9704,-1.9736,-2.0336,-2.0273,-1.9704,-1.9704,-1.9704,-1.9704,-1.9704,-2.0067,-2.0462,-1.915,0.0,0.0,0.0,0.0,0.0,0.0,0.0,0.0,-1.8408,-1.8614,-1.8772,-1.9578,-1.9815,-1.9957,0.0,0.0,0.0,0.0,0.0,0.0,0.0,0.0,-2.9311,-2.9959,0.0,-3.0385,-3.1097,-3.1792,-3.2349,-3.2396,-3.2882,-3.3309,-3.3309,-3.4152,-3.4785,-3.4769,-3.6384,-3.7281,-3.6717,-3.835,-3.8834,-3.7324,-3.875,-3.9529,-3.9143,-3.9648,-4.0251,-4.0871,-4.0888,-4.0888,-4.0888,-4.0888,-4.0888,-4.0888,-4.0888,-4.0888,-4.0888,-4.0888,-4.0888,-4.0888,-4.0888,-4.0888,-4.0888,-4.0888,-4.0888,-4.0888,-4.0888,-4.0888,-4.0888,-4.0888,-4.0888,-4.0888,0.0,0.0,0.0,0.0,0.0,0.0,0.0,0.0,0.0,0.0,0.0,0.0,0.0,0.0,0.0,0.0,0.0,0.0,0.0,-1.3905,-1.4663,-1.4806,-1.6528,-1.7764,-1.8487,-1.8095,-1.7906,-1.7906,-1.8456,-1.8708,-1.8708,-1.8866,-1.8945,-1.8945,-1.9088,-1.9072,-1.8945,-1.8945,-1.8945,-1.8945,-1.8945,-1.9024,-1.9086,-1.8459,-1.8221,0.0,0.0,0.0,0.0,0.0,0.0,0.0,-1.7685,-1.7906,-1.8142,-1.9435,-1.9815,-1.9957,0.0,0.0,0.0,0.0,0.0,0.0,0.0,0.0,-2.9122,-2.9327,-2.9801,-3.0385,-3.1097,-3.1792,-3.244,-3.2993,-3.3198,-3.3309,-3.3309,-3.4152,-3.4769,-3.4673,-3.6339,-3.7237,-3.6595,-3.7148,-3.7252,-3.649,-3.7213,-3.7852,-3.8314,-3.9221,-4.0122,-4.0871,-4.0888,-4.0888,-4.0888,-4.0888,-4.0888,-4.0888,-4.0888,-4.0888,-4.0888,-4.0888,-4.0888,-4.0888,-4.0888,-4.0888,-4.0888,-4.0888,-4.0888,-4.0888,-4.0888,-4.0888,-4.0888,-4.0888,-4.0888,-4.0888,0.0,0.0,0.0,0.0,0.0,0.0,0.0,0.0,0.0,0.0,0.0,0.0,0.0,0.0,0.0,0.0,0.0,0.0,0.0,-1.3876,-1.4885,-1.5532,-1.6912,-1.7685,-1.7697,-1.7685,-1.7511,-1.7164,-1.7511,-1.7697,-1.7713,-1.8392,-1.8708,-1.8724,-1.9072,-1.904,-1.8693,-1.8377,-1.8234,-1.8234,-1.8234,-1.8424,-1.8659,-1.8253,-1.8103,-1.8032,-1.7403,0.0,0.0,0.0,0.0,0.0,0.0,0.0,-1.7969,-1.9404,-1.9562,-1.9499,0.0,0.0,0.0,0.0,0.0,0.0,0.0,-2.8884,-2.9075,-2.9075,-2.969,-3.0291,-3.0654,-3.1571,-3.2428,-3.274,-3.3087,-3.3309,-3.3309,-3.4152,-3.4769,-3.4625,-3.5773,-3.6316,-3.5682,-3.6156,-3.6171,-3.5337,-3.6121,-3.6896,-3.7516,-3.8421,-3.9364,-4.0302,-4.0681,-4.0888,-4.0888,-4.0888,-4.0888,-4.0888,-4.0888,-4.0888,-4.0888,-4.0888,-4.0888,-4.0888,-4.0888,-4.0888,-4.0888,-4.0888,-4.0888,-4.0888,-4.0888,-4.0888,-4.0888,-4.0888,-4.0888,-4.0888,0.0,0.0,0.0,0.0,0.0,0.0,0.0,0.0,0.0,0.0,0.0,0.0,0.0,0.0,0.0,0.0,0.0,0.0,0.0,-1.401,-1.5304,-1.6612,-1.7411,-1.7598,-1.712,-1.7543,-1.7468,-1.685,-1.6686,-1.6659,-1.6817,-1.7997,-1.8535,-1.8566,-1.9183,-1.904,-1.8313,-1.7732,-1.7496,-1.7496,-1.7496,-1.7883,-1.8368,-1.8082,-1.8013,-1.7983,-1.7616,-1.7337,-1.7117,-1.7043,0.0,0.0,0.0,0.0,-1.7795,-1.9356,-1.9293,-1.9009,0.0,0.0,0.0,0.0,0.0,0.0,0.0,-2.8537,-2.8933,-2.9059,-2.9595,-3.0038,-3.0164,-3.1128,-3.2048,-3.2285,-3.2756,-3.3166,-3.3224,-3.4068,-3.4642,-3.4431,-3.5052,-3.5191,-3.4529,-3.5202,-3.5264,-3.4222,-3.5214,-3.6111,-3.6804,-3.7418,-3.837,-3.9635,-4.0289,-4.0685,-4.0888,-4.0888,-4.0888,-4.0888,-4.0888,-4.0888,-4.0888,-4.0888,-4.0888,-4.0888,-4.0888,-4.0888,-4.0888,-4.0888,-4.0888,-4.0888,-4.0888,-4.0888,-4.0888,-4.0888,-4.0888,-4.0888,0.0,0.0,0.0,0.0,0.0,0.0,0.0,0.0,0.0,0.0,0.0,-1.2514,-1.2514,-1.2675,0.0,0.0,0.0,0.0,-1.3066,0.0,0.0,-1.6903,-1.782,-1.8562,-1.911,-1.8416,-1.8001,-1.7904,-1.703,-1.6928,0.0,0.0,-1.7811,-1.7827,-1.7922,-1.7559,-1.6865,-1.677,-1.6738,-1.6738,-1.6738,-1.6945,-1.7242,-1.742,-1.7645,-1.7815,-1.7777,-1.7726,-1.7612,-1.7167,-1.7032,0.0,0.0,0.0,-1.7149,-1.9214,-1.9293,0.0,0.0,0.0,0.0,0.0,0.0,0.0,0.0,0.0,-2.841,-2.8995,-2.9154,-2.9453,-3.0069,-3.0338,-3.086,-3.2127,-3.2396,-3.2613,-3.3071,-3.3745,-3.4084,-3.3848,-3.4448,-3.469,-3.4034,-3.4232,-3.4094,-3.3488,-3.4021,-3.4888,-3.6059,-3.624,-3.7345,-3.96,-3.9409,-3.9785,-4.0871,-4.0888,-4.0888,-4.0888,-4.0888,-4.0888,-4.0888,-4.0888,-4.0888,-4.0888,-4.0888,-4.0888,-4.0888,-4.0888,-4.0888,-4.0888,-4.0888,-4.0888,-4.0888,-4.0888,-4.0888,-4.0888,0.0,0.0,0.0,0.0,0.0,0.0,0.0,0.0,0.0,0.0,0.0,-1.2514,-1.2514,-1.2577,0.0,0.0,0.0,0.0,-1.3627,-1.4242,0.0,-1.6537,-1.6992,-1.7394,-1.7699,-1.7191,-1.6905,-1.6855,-1.6308,0.0,0.0,-1.8266,-1.8487,-1.8866,-1.8426,-1.8092,-1.7729,-1.6928,-1.6375,-1.6095,-1.6604,-1.6917,-1.7101,-1.7479,-1.7956,-1.8392,-1.8114,-1.7939,-1.7749,-1.7542,-1.76,-1.7804,-1.7899,0.0,0.0,0.0,-1.8961,0.0,0.0,0.0,0.0,0.0,0.0,0.0,-2.6783,0.0,-2.8173,-2.8489,-2.8853,-2.9216,-2.9532,-2.9911,-3.0385,-3.1002,-3.1428,-3.1918,-3.2577,-3.3136,-3.3581,-3.3799,-3.4168,-3.4267,-3.3949,-3.3761,-3.3555,-3.3309,-3.3503,-3.4043,-3.4889,-3.5332,-3.6175,-3.7604,-3.8106,-3.8826,-3.9819,-4.0122,-4.044,-4.0888,-4.0888,-4.0888,-4.0888,-4.0888,-4.0888,-4.0888,-4.0888,-4.0888,-4.0888,-4.0888,-4.0888,-4.0888,-4.0888,-4.0888,-4.0888,-4.0888,-4.0888,-4.0888,0.0,0.0,0.0,0.0,0.0,0.0,0.0,0.0,0.0,0.0,0.0,0.0,-1.2577,0.0,0.0,0.0,0.0,0.0,-1.3868,0.0,0.0,0.0,-1.6258,-1.6397,-1.6213,-1.6121,-1.5984,-1.5713,0.0,0.0,-1.8456,-1.8629,-1.9183,0.0,-1.9309,-1.8817,-1.8492,-1.7427,-1.6706,-1.6342,-1.7066,-1.7428,-1.7502,-1.8145,-1.8771,-1.9216,-1.868,-1.8339,-1.8133,-1.7901,-1.8011,-1.822,-1.8127,-1.7973,0.0,0.0,0.0,0.0,0.0,0.0,0.0,0.0,0.0,0.0,0.0,0.0,-2.762,-2.781,-2.8395,-2.8869,-2.8869,-2.9437,-2.9975,-3.0148,-3.0622,-3.1191,-3.1852,-3.246,-3.2948,-3.3358,-3.3684,-3.3848,-3.3745,-3.345,-3.3309,-3.3309,-3.3309,-3.3555,-3.405,-3.4484,-3.5112,-3.5943,-3.6718,-3.7747,-3.9001,-3.9654,-4.0302,-4.0888,-4.0888,-4.0888,-4.0888,-4.0888,-4.0888,-4.0888,-4.0888,-4.0888,-4.0888,-4.0888,-4.0888,-4.0888,-4.0888,-4.0888,-4.0888,-4.0888,-4.0888,-4.0888,0.0,0.0,0.0,0.0,0.0,0.0,0.0,0.0,0.0,0.0,0.0,0.0,-1.2776,-1.294,-1.3121,-1.3278,0.0,0.0,0.0,0.0,0.0,0.0,0.0,0.0,-1.593,-1.6219,-1.6005,-1.5234,0.0,0.0,-1.7764,-1.8408,-1.9435,-2.0715,-2.0052,-1.9172,-1.8221,-1.807,-1.8022,-1.8085,-1.8317,-1.8419,-1.8552,-1.9563,-2.0116,-2.0239,-1.9499,-1.9223,-1.9075,-1.8116,-1.7805,-1.7866,-1.8032,-1.7617,-1.7265,0.0,0.0,0.0,0.0,0.0,0.0,0.0,0.0,0.0,0.0,0.0,-2.6309,-2.702,-2.7683,-2.8142,-2.8142,-2.8711,-2.9406,-3.0069,-3.0212,-3.0432,-3.0977,-3.1789,-3.2266,-3.2112,-3.283,-3.3346,-3.3346,-3.3293,-3.3309,-3.3309,-3.3309,-3.3555,-3.405,-3.3623,-3.4201,-3.5926,-3.5578,-3.6504,-3.8986,-4.0203,-4.0836,-4.0888,-4.0888,-4.0888,-4.0888,-4.0888,-4.0888,-4.0888,-4.0888,-4.0888,-4.0888,-4.0888,-4.0888,-4.0888,-4.0888,-4.0888,-4.0888,-4.0888,-4.0888,-4.0888,0.0,0.0,0.0,0.0,0.0,0.0,0.0,0.0,0.0,0.0,0.0,0.0,0.0,-1.3066,-1.3156,-1.3295,-1.3476,0.0,0.0,0.0,0.0,0.0,0.0,0.0,0.0,-1.5195,-1.4967,0.0,0.0,-1.5281,-1.6991,-1.7907,-1.8486,-1.8835,-1.9024,-1.9236,-1.9394,-1.7989,-1.7432,-1.7566,-1.8426,-1.8684,-1.8701,-1.9845,-2.0649,-2.1073,-2.0291,-2.0015,-1.9964,-1.9596,-1.9144,-1.8756,-1.8641,-1.8126,-1.7655,-1.831,-1.8905,0.0,0.0,0.0,0.0,0.0,0.0,-2.4011,-2.4493,-2.5336,-2.6046,-2.6272,-2.693,-2.7589,-2.8015,-2.8663,-2.917,-2.9453,-2.9501,-2.9706,-3.04,-3.078,-3.1255,-3.2088,-3.2471,-3.2819,-3.3261,-3.3309,-3.3309,-3.3309,-3.3309,-3.3398,-3.3555,-3.3398,-3.3614,-3.4269,-3.4422,-3.5465,-3.7513,-3.9243,-4.0112,-4.0129,-4.0629,-4.0888,-4.0888,-4.0888,-4.0888,-4.0888,-4.0888,-4.0888,-4.0888,-4.0888,-4.0888,-4.0888,-4.0888,-4.0888,-4.0888,-4.0888,-4.0888,-4.0888,0.0,0.0,0.0,0.0,0.0,0.0,0.0,0.0,-1.3086,-1.3102,0.0,0.0,0.0,0.0,-1.3226,-1.3378,-1.3508,-1.3605,-1.3605,-1.3605,0.0,0.0,0.0,0.0,0.0,-1.4707,-1.4407,-1.3471,-1.3665,0.0,0.0,-1.6749,-1.739,-1.7436,-1.8159,-1.8901,-1.9584,-1.861,-1.8175,-1.8228,-1.935,-1.9662,-1.9605,-2.0737,-2.1497,-2.1884,-2.1066,-2.0791,-2.0756,-2.0481,-2.0067,-1.9573,-1.9049,-1.8316,-1.7736,-1.7996,-1.8644,-1.9451,-2.0261,0.0,0.0,0.0,0.0,-2.338,-2.4052,-2.4745,-2.5352,-2.5548,-2.6162,-2.6835,-2.732,-2.7968,-2.86,-2.9012,-2.9075,-2.9295,-2.9753,-3.0022,-3.0607,-3.1776,-3.2174,-3.2534,-3.323,-3.3309,-3.3309,-3.3309,-3.3309,-3.3309,-3.3309,-3.3309,-3.3398,-3.3555,-3.4327,-3.5381,-3.67,-3.8437,-3.9457,-3.9698,-4.0233,-4.0629,-4.0888,-4.0888,-4.0888,-4.0888,-4.0888,-4.0888,-4.0888,-4.0888,-4.0888,-4.0888,-4.0888,-4.0888,-4.0888,-4.0888,-4.0888,-4.0888,0.0,0.0,0.0,0.0,0.0,0.0,0.0,0.0,-1.3477,-1.3155,0.0,0.0,0.0,0.0,0.0,-1.3624,-1.3639,-1.3639,-1.3605,-1.3605,0.0,0.0,0.0,0.0,-1.3657,-1.4912,-1.4463,-1.2232,-1.331,-1.3521,-1.2918,-1.4962,-1.6193,-1.6751,-1.7646,-1.8205,-1.8526,-1.9915,-2.0344,-2.0204,-2.1164,-2.1404,-2.1307,-2.2314,-2.2712,-2.2625,-2.1901,-2.1643,-2.1522,-2.0722,-2.0446,-2.0244,-1.926,-1.8272,-1.7474,-1.7474,-1.8526,-1.9557,0.0,0.0,0.0,0.0,0.0,0.0,-2.4467,-2.4304,-2.3997,-2.4792,-2.5447,-2.5853,-2.5967,-2.6593,-2.7525,-2.8823,-2.9059,-2.9059,-2.9075,-2.9722,-3.0417,-3.1097,-3.1792,-3.2487,-3.3198,-3.3277,-3.3277,-3.3309,-3.3309,-3.3309,-3.3309,-3.3309,-3.3555,-3.4101,-3.5301,-3.6183,-3.6666,-3.7922,-3.8922,-3.9629,-3.9698,-4.0129,-4.0918,-4.0871,-4.0888,-4.0888,-4.0888,-4.0888,-4.0888,-4.0888,-4.0888,-4.0888,-4.0888,-4.0888,-4.0888,-4.0888,-4.0888,-4.0888,0.0,0.0,0.0,0.0,0.0,-1.1378,-1.1325,-1.2489,-1.3395,0.0,0.0,0.0,-1.3561,-1.404,-1.44,-1.4451,-1.4468,-1.4209,-1.3639,-1.3605,-1.3605,-1.3605,-1.4882,-1.5245,-1.4468,-1.4779,-1.4314,-1.2991,-1.269,-1.237,-1.2137,-1.338,-1.4265,-1.4832,-1.6342,-1.7082,-1.7238,-1.797,-1.8993,-2.0153,-2.0563,-2.0925,-2.1307,-2.2314,-2.2712,-2.2651,-2.2488,-2.2401,-2.2367,-2.2134,-2.1729,-2.1118,-2.0206,-1.9716,-1.9474,-1.9442,-1.995,-2.0527,-2.0445,0.0,0.0,0.0,0.0,0.0,-2.2544,-2.2886,-2.3295,-2.3873,-2.4249,-2.4729,-2.568,-2.6125,-2.6767,-2.8158,-2.8379,-2.8553,-2.9012,-2.9295,-2.9674,-3.0385,-3.0638,-3.1223,-3.244,-3.255,-3.2756,-3.3261,-3.3309,-3.3309,-3.3309,-3.3309,-3.3555,-3.4101,-3.4758,-3.5368,-3.5921,-3.7168,-3.7887,-3.8112,-3.9783,-4.0678,-4.0903,-4.0913,-4.0888,-4.0888,-4.0888,-4.0888,-4.0888,-4.0888,-4.0888,-4.0888,-4.0888,-4.0888,-4.0888,-4.0888,-4.0888,-4.0888,0.0,0.0,0.0,-1.0426,-1.1778,-1.2811,-1.2781,-1.3425,-1.4093,0.0,0.0,0.0,-1.4555,-1.4969,-1.5262,-1.5262,-1.4969,-1.4606,-1.4123,-1.3795,-1.3605,-1.3605,-1.4779,-1.5245,-1.4813,-1.5347,-1.4932,-1.3428,-1.3194,-1.2573,-1.1606,-1.2437,-1.2941,-1.3227,-1.4931,-1.5869,-1.6189,-1.6842,-1.8131,-1.9833,-2.0587,-2.1078,-2.1455,-2.2366,-2.2712,-2.2712,-2.2712,-2.2712,-2.2712,-2.2712,-2.2212,-2.1497,-2.0975,-2.0597,-2.0323,-2.0243,-2.0671,-2.1143,-2.0954,-2.1389,-2.1906,-2.1839,0.0,0.0,-2.228,-2.2448,-2.2742,-2.3436,-2.3655,-2.4077,-2.5199,-2.5444,-2.5999,-2.7446,-2.7683,-2.8015,-2.8949,-2.9075,-2.939,-3.0085,-3.018,-3.0607,-3.1713,-3.1823,-3.2124,-3.2819,-3.2866,-3.2993,-3.3293,-3.3503,-3.3899,-3.4366,-3.488,-3.5391,-3.5898,-3.662,-3.7163,-3.7508,-3.8953,-4.0099,-4.0926,-4.092,-4.0913,-4.0888,-4.0888,-4.0888,-4.0888,-4.0888,-4.0888,-4.0888,-4.0888,-4.0888,-4.0888,-4.0888,-4.0888,-4.0888,0.0,0.0,-1.164,-1.241,-1.3781,-1.4779,-1.4727,-1.4831,-1.5159,0.0,-1.5331,-1.5245,-1.6071,-1.6071,-1.6019,-1.6019,-1.5331,-1.4882,-1.4813,-1.4054,-1.3589,-1.3605,-1.4451,-1.4865,-1.4813,-1.6262,-1.5881,-1.3605,-1.411,-1.3257,-1.1195,-1.1701,-1.1891,-1.1872,-1.3462,-1.4626,-1.5398,-1.642,-1.7812,-1.943,-2.0884,-2.1574,-2.1798,-2.2453,-2.2712,-2.2712,-2.2712,-2.2712,-2.2712,-2.2712,-2.2263,-2.1703,-2.1627,-2.1171,-2.0604,-2.0499,-2.1028,-2.1584,-2.1181,-2.1636,-2.2304,-2.2562,-2.2297,0.0,-2.2863,-2.2533,-2.2364,-2.3305,-2.3459,-2.3693,-2.4461,-2.4689,-2.5217,-2.6656,-2.7004,-2.7573,-2.8886,-2.9075,-2.9358,-2.999,-3.0069,-3.0338,-3.1033,-3.1097,-3.1397,-3.2092,-3.2269,-3.2566,-3.3261,-3.3745,-3.4234,-3.469,-3.5253,-3.5749,-3.6216,-3.6259,-3.6663,-3.7353,-3.7603,-3.8676,-4.0429,-4.0637,-4.077,-4.0901,-4.0918,-4.0888,-4.0888,-4.0888,-4.0888,-4.0888,-4.0888,-4.0888,-4.0888,-4.0888,-4.0888,-4.0888,0.0,-1.2067,-1.174,-1.3125,-1.4125,-1.4745,-1.4762,-1.5296,-1.5726,-1.5881,-1.5761,-1.6209,-1.7587,-1.7173,-1.6794,-1.6794,-1.605,-1.5381,-1.4848,-1.4056,-1.3609,-1.3605,-1.4934,-1.54,-1.4813,-1.626,-1.588,-1.3605,-1.3079,-1.2001,-1.0404,-0.9887,-0.9966,-1.0617,-1.2187,-1.3645,-1.5054,-1.7064,-1.8461,-1.9378,-2.0257,-2.1376,-2.2505,-2.266,-2.2712,-2.2712,-2.2712,-2.2712,-2.2712,-2.2712,-2.2582,-2.2461,-2.2399,-2.2297,-2.2176,-2.207,-2.2146,-2.2238,-2.2211,-2.2296,-2.2405,-2.2252,-2.2668,0.0,-2.2231,-2.2403,-2.2734,-2.2802,-2.2883,-2.3044,-2.3458,-2.4051,-2.467,-2.533,-2.6356,-2.7573,-2.8886,-2.9075,-2.9122,-2.9327,-2.9327,-2.9611,-3.0306,-3.0385,-3.067,-3.1365,-3.195,-3.2566,-3.3261,-3.3398,-3.3694,-3.4234,-3.469,-3.5191,-3.5705,-3.6114,-3.6387,-3.6525,-3.6586,-3.6818,-3.7274,-3.8928,-4.0135,-4.0886,-4.0913,-4.0888,-4.0888,-4.0888,-4.0888,-4.0888,-4.0888,-4.0888,-4.0888,-4.0888,-4.0888,-4.0888,-1.2858,-1.3026,-1.3385,-1.4452,-1.5638,-1.6448,-1.645,-1.645,-1.6725,-1.7483,-1.7604,-1.7742,-1.8176,-1.7828,-1.7604,-1.7604,-1.6861,-1.6104,-1.5383,-1.4624,-1.4021,-1.3622,-1.471,-1.5348,-1.5348,-1.6413,-1.6431,-1.5244,-1.4142,-1.2992,-1.1809,-1.0294,-1.0426,-1.1906,-1.2313,-1.3744,-1.5914,-1.7104,-1.8482,-1.9906,-2.0687,-2.147,-2.2194,-2.2574,-2.2712,-2.2712,-2.2712,-2.2712,-2.2712,-2.2712,-2.2926,-2.3237,-2.3155,-2.3457,-2.3698,-2.3209,-2.3089,-2.3004,-2.2617,-2.2569,-2.2637,-2.2841,-2.2971,0.0,0.0,-2.2504,-2.2615,-2.3014,-2.285,-2.2948,-2.3809,-2.4021,-2.4359,-2.5336,-2.5894,-2.6707,-2.8163,-2.8799,-2.9075,-2.9075,-2.9075,-2.9264,-2.9627,-2.9659,-2.9943,-3.0638,-3.1665,-3.2475,-3.2771,-3.3364,-3.3797,-3.4101,-3.4561,-3.5068,-3.5571,-3.5837,-3.6071,-3.6301,-3.6302,-3.6303,-3.6336,-3.7947,-3.9444,-4.0909,-4.0481,-4.0509,-4.0888,-4.0888,-4.0888,-4.0888,-4.0888,-4.0888,-4.0888,-4.0888,-4.0888,-4.0888,-1.2611,-1.3829,-1.5055,-1.5824,-1.7202,-1.8151,-1.8113,-1.7618,-1.7725,-1.912,-1.9292,-1.912,-1.8655,-1.8603,-1.8603,-1.8603,-1.7759,-1.6947,-1.6381,-1.5503,-1.471,-1.4055,-1.4641,-1.521,-1.5656,-1.6534,-1.6824,-1.6495,-1.5192,-1.4142,-1.3255,-1.1321,-1.139,-1.3165,-1.316,-1.4538,-1.6924,-1.7291,-1.8689,-2.0697,-2.1325,-2.1694,-2.1884,-2.2461,-2.2712,-2.2712,-2.2712,-2.2771,-2.2901,-2.2737,-2.3271,-2.3994,-2.3784,-2.431,-2.4856,-2.4104,-2.3927,-2.3818,-2.3168,-2.3024,-2.3165,-2.3573,-2.3405,-2.312,0.0,0.0,0.0,-2.3303,-2.2944,-2.2894,-2.4067,-2.3935,-2.4001,-2.5188,-2.5407,-2.5863,-2.7113,-2.8244,-2.8939,-2.8916,-2.8996,-2.9075,-2.9075,-2.8965,-2.9279,-3.0117,-3.1272,-3.2032,-3.2301,-3.3377,-3.3949,-3.3949,-3.4415,-3.4927,-3.5436,-3.5526,-3.5854,-3.6301,-3.6301,-3.6285,-3.6311,-3.7353,-3.8641,-3.9974,-3.9779,-4.006,-4.0664,-4.0819,-4.0888,-4.0888,-4.0888,-4.0888,-4.0888,-4.0888,-4.0888,-4.0888,-1.3374,-1.4303,-1.5314,-1.6622,-1.7546,-1.8113,-1.8113,-1.8082,-1.8345,-1.9189,-1.9292,-1.9516,-2.0084,-2.0153,-2.0153,-2.0153,-1.8822,-1.7958,-1.7931,-1.6534,-1.5672,-1.564,-1.5672,-1.5414,-1.4847,-1.6274,-1.6343,-1.495,-1.4126,-1.3349,-1.2589,-1.163,-1.1311,-1.1678,-1.4332,-1.6035,-1.6993,-1.8426,-1.9964,-2.1462,-2.1574,-2.2005,-2.2565,-2.2677,-2.2712,-2.2712,-2.2712,-2.3116,-2.3564,-2.2909,-2.366,-2.4747,-2.4012,-2.4339,-2.4988,-2.4873,-2.4734,-2.4594,-2.4619,-2.4513,-2.4271,-2.3733,-2.411,-2.4288,-2.2963,0.0,-2.3457,-2.2904,0.0,-2.2634,-2.2519,0.0,0.0,-2.3174,-2.4725,-2.599,-2.6155,-2.7421,-2.8306,-2.8215,-2.8651,-2.8967,-2.9075,-2.8568,-2.8758,-3.0085,-3.0338,-3.0954,-3.2254,-3.2966,-3.3398,-3.3398,-3.3899,-3.4415,-3.488,-3.5345,-3.5854,-3.6301,-3.6301,-3.6301,-3.631,-3.7146,-3.7292,-3.6938,-3.886,-3.975,-3.9888,-4.0595,-4.0888,-4.0888,-4.0888,-4.0888,-4.0888,-4.0888,-4.0888,-4.0888,-1.3139,-1.4209,-1.525,-1.58,-1.7249,-1.8186,-1.7711,-1.8685,-1.943,-1.9309,-2.0171,-2.0772,-2.065,-2.0615,-2.0615,-2.0615,-2.004,-1.9286,-1.8391,-1.7831,-1.7289,-1.674,-1.6199,-1.6179,-1.6723,-1.6463,-1.6426,-1.6667,-1.5089,-1.4107,-1.3764,-1.2942,-1.3287,-1.4606,-1.5894,-1.7628,-1.9602,-1.982,-2.0308,-2.0928,-2.1418,-2.1798,-2.2125,-2.2556,-2.2712,-2.2763,-2.3168,-2.3529,-2.3805,-2.3988,-2.4764,-2.5592,-2.5247,-2.5695,-2.6247,-2.5721,-2.5506,-2.5343,-2.4902,-2.4782,-2.4684,-2.4325,-2.423,-2.4002,-2.3339,-2.31,-2.3076,-2.3251,0.0,0.0,0.0,0.0,0.0,0.0,-2.3905,-2.448,-2.4979,-2.5636,-2.6575,-2.7997,-2.8158,-2.8252,-2.8489,-2.8268,-2.8505,-2.9501,-2.9564,-3.018,-3.1586,-3.2313,-3.2882,-3.3293,-3.3503,-3.4034,-3.4769,-3.5005,-3.5526,-3.6301,-3.6301,-3.6301,-3.6318,-3.6646,-3.6973,-3.7292,-3.8543,-3.9301,-3.975,-4.056,-4.0888,-4.0888,-4.0888,-4.0888,-4.0888,-4.0888,-4.0888,-4.0888,-1.3604,0.0,-1.5309,-1.5427,-1.6994,-1.8193,-1.805,-1.9251,-2.0125,-2.0027,-2.1109,-2.1768,-2.1457,-2.1494,-2.152,-2.152,-2.1326,-2.0721,-1.9547,-1.9264,-1.8873,-1.829,-1.7234,-1.712,-1.8155,-1.703,-1.6873,-1.7782,-1.5949,-1.5037,-1.4966,-1.4384,-1.4999,-1.6624,-1.747,-1.9064,-2.1139,-2.0852,-2.0842,-2.1042,-2.1428,-2.1729,-2.197,-2.2505,-2.285,-2.3064,-2.3598,-2.4063,-2.4477,-2.4885,-2.5643,-2.6402,-2.6178,-2.6661,-2.7178,-2.6547,-2.6313,-2.6131,-2.5521,-2.5367,-2.5265,-2.476,-2.4279,-2.3842,-2.3374,-2.3044,-2.2986,-2.3562,-2.3464,0.0,0.0,0.0,-2.3436,-2.3736,0.0,-2.3833,-2.4482,-2.4594,-2.5355,-2.737,-2.7676,-2.785,-2.8105,-2.795,-2.8179,-2.8939,-2.8973,-2.9546,-3.086,-3.1776,-3.2503,-3.3008,-3.3198,-3.3729,-3.4593,-3.4738,-3.5237,-3.6114,-3.6259,-3.6301,-3.6301,-3.6301,-3.674,-3.7508,-3.8069,-3.8715,-3.9457,-4.0233,-4.0681,-4.0888,-4.0888,-4.0888,-4.0888,-4.0888,-4.0888,-4.0888,-1.546,-1.5483,0.0,-1.6253,-1.7006,-1.8057,-1.9664,-1.9691,-2.0062,-2.1622,-2.1873,-2.2189,-2.2919,-2.3194,-2.332,-2.332,-2.2664,-2.2239,-2.2186,-2.0791,-2.0174,-2.0674,-1.9167,-1.8255,-1.8113,-1.8061,-1.7679,-1.6952,-1.615,-1.5737,-1.5678,-1.5644,-1.5678,-1.5865,-1.8927,-2.0264,-2.0294,-2.1196,-2.1936,-2.2485,-2.1859,-2.2039,-2.2677,-2.2685,-2.3133,-2.3753,-2.3788,-2.4752,-2.5919,-2.5229,-2.6006,-2.7126,-2.635,-2.6661,-2.7282,-2.7264,-2.712,-2.6973,-2.6939,-2.6791,-2.6318,-2.4862,-2.4537,-2.4194,-2.2762,-2.3078,-2.3659,-2.3608,-2.4305,-2.4907,-2.4883,-2.4895,-2.4695,-2.3908,-2.4442,0.0,0.0,-2.4993,-2.5241,-2.5969,-2.7316,-2.8174,-2.8207,-2.7597,-2.764,-2.865,-2.8705,-2.9175,-3.018,-3.1573,-3.2333,-3.2349,-3.2945,-3.3555,-3.4101,-3.4545,-3.5068,-3.5616,-3.6071,-3.6301,-3.6301,-3.6301,-3.6318,-3.6387,-3.718,-3.7939,-3.8681,-3.9422,-4.0198,-4.0888,-4.0888,-4.0888,-4.0888,-4.0888,-4.0888,-4.0888,0.0,0.0,0.0,-1.6696,-1.7697,-1.8842,-1.9863,-2.0782,-2.1554,-2.2091,-2.2758,-2.3275,-2.3522,-2.3628,-2.3671,-2.3671,-2.3437,-2.3058,-2.2476,-2.1936,-2.1754,-2.1923,-2.072,-2.0315,-2.0866,-1.9306,-1.8633,-1.8894,-1.7443,-1.6702,-1.6699,-1.7058,-1.7215,-1.7301,-1.9361,-2.0541,-2.1063,-2.1893,-2.2108,-2.1867,-2.1686,-2.235,-2.3357,-2.2901,-2.315,-2.3857,-2.4419,-2.5247,-2.6143,-2.6437,-2.6868,-2.7247,-2.6971,-2.7075,-2.7282,-2.7184,-2.7105,-2.6975,-2.6959,-2.6909,-2.6621,-2.5505,-2.4975,-2.4454,-2.3316,-2.387,-2.4436,-2.3739,-2.4862,-2.5733,-2.5092,-2.4976,-2.4919,-2.4643,-2.4833,-2.4816,0.0,-2.4229,-2.4476,-2.5244,-2.6404,-2.7247,-2.7507,-2.7115,-2.7339,-2.8618,-2.8057,-2.837,-3.0133,-3.0622,-3.1367,-3.2285,-3.2503,-3.3265,-3.4545,-3.4738,-3.5253,-3.6071,-3.6199,-3.6301,-3.6301,-3.6301,-3.6301,-3.6318,-3.6569,-3.7438,-3.8646,-3.9388,-4.0164,-4.0888,-4.0888,-4.0888,-4.0888,-4.0888,-4.0888,-4.0888,-1.7032,-1.7399,-1.766,-1.7385,-1.8541,-1.9772,-2.0535,-2.1648,-2.2506,-2.2794,-2.3407,-2.3795,-2.3795,-2.3896,-2.3937,-2.3937,-2.3937,-2.3699,-2.3151,-2.2841,-2.2767,-2.2958,-2.2037,-2.1736,-2.2293,-2.0791,-2.0091,-2.0319,-1.8788,-1.7999,-1.7977,-1.7971,-1.7983,-1.8073,-1.9583,-2.0541,-2.1088,-2.2176,-2.2348,-2.1919,-2.2255,-2.2944,-2.377,-2.3608,-2.3988,-2.4695,-2.5212,-2.5885,-2.6609,-2.7126,-2.7299,-2.7299,-2.7299,-2.7299,-2.7282,-2.7201,-2.712,-2.704,-2.6975,-2.7162,-2.7179,-2.6315,-2.6038,-2.5706,-2.4663,-2.5212,-2.5773,-2.5126,-2.6045,-2.6877,-2.6605,-2.6251,-2.5947,-2.5846,-2.5592,-2.5023,0.0,-2.3788,-2.4081,-2.4902,-2.5829,-2.664,-2.7177,-2.6745,-2.69,-2.8103,-2.751,-2.7796,-2.9389,-2.9911,-3.0688,-3.1723,-3.2283,-3.3128,-3.4405,-3.4841,-3.5436,-3.6071,-3.6216,-3.6301,-3.6301,-3.6301,-3.6301,-3.6301,-3.6277,-3.7042,-3.8249,-3.8991,-3.9767,-4.0491,-4.0767,-4.0888,-4.0888,-4.0888,-4.0888,-4.0888,-1.951,-1.9381,-1.9179,-1.8427,-1.9565,-2.0868,-2.173,-2.23,-2.2908,-2.3707,-2.3816,-2.3816,-2.3816,-2.4054,-2.419,-2.419,-2.419,-2.419,-2.419,-2.3474,-2.3269,-2.3798,-2.3071,-2.2571,-2.2407,-2.2353,-2.1956,-2.1182,-2.0111,-1.9499,-1.9365,-1.8413,-1.7978,-1.8073,-1.9688,-2.0357,-2.0418,-2.2005,-2.2676,-2.2726,-2.3485,-2.3839,-2.3994,-2.4764,-2.5523,-2.6161,-2.6126,-2.6626,-2.7299,-2.7299,-2.7299,-2.7299,-2.7299,-2.7299,-2.7299,-2.7299,-2.7201,-2.7103,-2.7137,-2.762,-2.7947,-2.7296,-2.7621,-2.7823,-2.6653,-2.7009,-2.7583,-2.7561,-2.7865,-2.84,-2.9196,-2.8473,-2.7635,-2.7362,-2.6626,-2.5592,-2.4115,-2.3874,-2.4149,-2.4971,-2.5678,-2.6402,-2.7161,-2.6509,-2.6396,-2.7118,-2.7139,-2.7394,-2.8132,-2.9435,-3.0369,-3.08,-3.2237,-3.3223,-3.371,-3.4975,-3.5616,-3.5616,-3.6071,-3.6301,-3.6301,-3.6301,-3.6301,-3.6301,-3.6301,-3.6749,-3.7542,-3.8284,-3.9026,-3.9767,-4.0578,-4.0888,-4.0888,-4.0888,-4.0888,-4.0888,-2.0228,-2.0703,-2.1105,-2.0886,-2.118,-2.173,-2.2575,-2.2813,-2.3178,-2.3984,-2.4094,-2.4094,-2.4094,-2.417,-2.419,-2.419,-2.419,-2.419,-2.419,-2.3833,-2.3757,-2.4075,-2.3697,-2.3567,-2.3724,-2.3121,-2.2587,-2.2134,-2.112,-2.0199,-1.9404,-1.9034,-1.8584,-1.8138,-1.9647,-2.0316,-2.0401,-2.1953,-2.2959,-2.3502,-2.3719,-2.4477,-2.554,-2.5747,-2.6316,-2.6902,-2.6316,-2.6626,-2.7299,-2.7299,-2.7299,-2.7299,-2.7299,-2.7299,-2.7299,-2.7299,-2.7201,-2.7223,-2.7839,-2.8115,-2.8322,-2.863,-2.8476,-2.8132,-2.7736,-2.8464,-2.901,-2.8228,-2.9269,-2.9974,-2.885,-2.8434,-2.8016,-2.7417,-2.6626,-2.5971,-2.5574,-2.504,-2.4988,-2.573,-2.5988,-2.6195,-2.6385,-2.5948,-2.5947,-2.6705,-2.7005,-2.7707,-2.8919,-2.9344,-3.0091,-3.1303,-3.2208,-3.3205,-3.4202,-3.5155,-3.5766,-3.6114,-3.6259,-3.6301,-3.6301,-3.6301,-3.6301,-3.6301,-3.6301,-3.6749,-3.7542,-3.8284,-3.9026,-3.9767,-4.0578,-4.0888,-4.0888,-4.0888,-4.0888,-4.0888,-2.1143,-2.1749,-2.2318,-2.2318,-2.2318,-2.2483,-2.2942,-2.3309,-2.3694,-2.4135,-2.419,-2.419,-2.419,-2.419,-2.419,-2.419,-2.419,-2.419,-2.419,-2.4074,-2.4036,-2.419,-2.4054,-2.4054,-2.4208,-2.3768,-2.3378,-2.3066,-2.1708,-2.0675,-1.9935,-1.9112,-1.8486,-1.8181,-1.9676,-2.0347,-2.0484,-2.2323,-2.3381,-2.3857,-2.4511,-2.535,0.0,-2.6488,-2.6902,-2.723,-2.6782,-2.6919,-2.7299,-2.7299,-2.7299,-2.7299,-2.7299,-2.7299,-2.7299,-2.7299,-2.7474,-2.7769,-2.8216,-2.8835,-2.9438,-2.9814,-2.9867,-2.9765,-2.9471,-2.9899,-3.0157,-2.964,-3.0169,-3.0582,-2.9972,-2.9192,-2.8288,-2.7434,-2.6626,-2.6109,-2.6109,-2.5471,-2.516,-2.5574,-2.5626,-2.5626,-2.5626,-2.5702,-2.5856,-2.6101,-2.6619,-2.7358,-2.8318,-2.8963,-2.9772,-3.0824,-3.1875,-3.3035,-3.4277,-3.5028,-3.5703,-3.6301,-3.6301,-3.6301,-3.6301,-3.6301,-3.6301,-3.6301,-3.6301,-3.6559,-3.7042,-3.8146,-3.8836,-3.9319,-4.044,-4.0888,-4.0888,-4.0888,-4.0888,-4.0888,-2.2079,-2.2611,-2.3162,-2.3162,-2.3162,-2.3162,-2.3162,-2.3657,-2.408,-2.419,-2.419,-2.4245,-2.4337,-2.4355,-2.4392,-2.4502,-2.4502,-2.4502,-2.4502,-2.441,-2.4355,-2.4355,-2.4263,-2.419,-2.419,-2.419,-2.4074,-2.3795,-2.2129,-2.1093,-2.0692,-1.9143,-1.8358,-1.8319,-1.9854,-2.0601,-2.0842,-2.2909,-2.3857,-2.4063,-2.554,-2.6161,-2.6333,-2.7023,-2.7299,-2.7299,-2.7299,-2.7299,-2.7299,-2.7299,-2.7299,-2.7316,-2.7402,-2.7437,-2.7454,-2.7558,-2.804,-2.8575,-2.8661,-2.9679,-3.0713,-3.0817,-3.1317,-3.1683,-3.1288,-3.1166,-3.1132,-3.1183,-3.0806,-3.0718,-3.1529,-3.0055,-2.8442,-2.7511,-2.6743,-2.6264,-2.6264,-2.5712,-2.5264,-2.516,-2.5247,0.0,-2.4885,-2.5609,-2.597,-2.5605,-2.6268,-2.6943,-2.7478,-2.8655,-2.9632,-3.0213,-3.1625,-3.2929,-3.4076,-3.4818,-3.5559,-3.6301,-3.6301,-3.6301,-3.6301,-3.6301,-3.6301,-3.6301,-3.6301,-3.6301,-3.6404,-3.7853,-3.856,-3.887,-4.0319,-4.0888,-4.0888,-4.0888,-4.0888,-4.0888,-2.2832,-2.3437,-2.3988,-2.3988,-2.3988,-2.3988,-2.3988,-2.3547,-2.3456,-2.4116,-2.419,-2.4447,-2.5127,-2.5201,-2.5456,-2.6117,-2.619,-2.619,-2.619,-2.5548,-2.5201,-2.5201,-2.4538,-2.419,-2.419,-2.419,-2.4074,-2.3795,-2.2831,-2.1795,-2.0776,-2.0403,-1.9834,-1.9171,0.0,-2.1746,-2.2358,-2.3357,-2.4195,-2.4885,-2.5764,-2.6506,-2.7109,-2.7247,-2.7299,-2.7299,-2.7299,-2.7299,-2.7299,-2.7299,-2.7299,-2.7402,-2.8023,-2.8213,-2.8334,-2.8937,-2.9213,-2.9455,-3.011,-3.0489,-3.0834,-3.1455,-3.1696,-3.1802,-3.17,-3.1666,-3.1666,-3.1649,-3.1581,-3.1426,-3.0973,-2.9592,-2.8288,-2.7722,-2.733,-2.7092,-2.7092,-2.6971,-2.6644,-2.5988,-2.6488,-2.6143,-2.4212,-2.5298,-2.6079,-2.6,-2.6739,-2.7738,-2.9024,-2.9333,-3.0088,-3.1431,-3.2324,-3.3205,-3.4076,-3.4818,-3.5559,-3.6301,-3.6301,-3.6301,-3.6301,-3.6301,-3.6301,-3.6301,-3.6301,-3.6301,-3.637,-3.7301,-3.8405,-3.9595,-4.0526,-4.0888,-4.0888,-4.0888,-4.0888,-4.0888,-2.3621,-2.3933,-2.419,-2.419,-2.4538,-2.4814,-2.4814,-2.485,-2.4869,-2.4814,-2.5181,-2.5585,-2.597,-2.6025,-2.6172,-2.6576,-2.6612,-2.6612,-2.6612,-2.6245,-2.6025,-2.6025,-2.5236,-2.4814,-2.4814,-2.441,-2.3996,-2.3588,-2.2815,-2.2028,-2.122,-2.0755,-2.0304,-1.9912,-2.1091,-2.2229,-2.3305,-2.4109,-2.4885,-2.5643,-2.6419,-2.6954,-2.7299,-2.7299,-2.7299,-2.7299,-2.7299,-2.754,-2.7868,-2.7868,-2.7868,-2.7989,-2.8747,-2.8972,-2.9041,-2.9403,-2.9799,-3.0196,-3.0575,-3.0972,-3.1351,-3.1714,-3.18,-3.18,-3.18,-3.18,-3.18,-3.18,-3.1489,-3.0869,-2.9713,-2.9001,-2.8366,-2.7618,-2.7496,-2.7496,-2.7496,-2.7496,-2.723,-2.6464,-2.7056,-2.6844,-2.516,-2.604,-2.6385,-2.5592,-2.6247,-2.7333,-2.8851,-2.9299,-3.0024,-3.1179,-3.1938,-3.2886,-3.4076,-3.4438,-3.518,-3.6301,-3.6301,-3.6301,-3.6301,-3.6301,-3.6301,-3.6301,-3.6301,-3.6301,-3.6387,-3.7577,-3.8698,-3.9767,-4.0578,-4.0888,-4.0888,-4.0888,-4.0888,-4.0888,-2.419,-2.4337,-2.4447,-2.4447,-2.5107,-2.5678,-2.5678,-2.6337,-2.6576,-2.575,-2.6209,-2.6667,-2.6851,-2.6869,-2.6924,-2.7108,-2.7126,-2.7126,-2.7126,-2.6961,-2.6869,-2.6869,-2.608,-2.5678,-2.5678,-2.4811,-2.4192,-2.384,-2.2779,-2.2136,-2.1801,-2.1073,-2.077,-2.0911,-2.1703,-2.2703,-2.3857,-2.4833,-2.5574,-2.6178,-2.6971,-2.7299,-2.7299,-2.7299,-2.7385,-2.7523,-2.7523,-2.8006,-2.8661,-2.8834,-2.8782,-2.8765,-2.9523,-2.9765,-2.9782,-2.9937,-3.0437,-3.092,-3.092,-3.1351,-3.18,-3.18,-3.18,-3.18,-3.18,-3.18,-3.18,-3.18,-3.1196,-3.0248,-2.8858,-2.8673,-2.8442,-2.7618,-2.76,-2.7701,-2.7701,-2.7701,-2.742,-2.6694,-2.7046,-2.6981,-2.5967,-2.6281,-2.6195,-2.5298,-2.5937,-2.7023,-2.8558,-2.9179,-2.9937,-3.0886,-3.1489,-3.2455,-3.3818,-3.4007,-3.4749,-3.6059,-3.6232,-3.6301,-3.6301,-3.6301,-3.6301,-3.6301,-3.6301,-3.6301,-3.6422,-3.7956,-3.8939,-3.956,-4.0509,-4.0888,-4.0888,-4.0888,-4.0888,-4.0888,-2.419,-2.4777,-2.5293,-2.5293,-2.5952,-2.6502,-2.6502,-2.7163,-2.7402,-2.6594,-2.6557,-2.6888,-2.7603,-2.7677,-2.797,-2.87,-2.8773,-2.8773,-2.8773,-2.8099,-2.7677,-2.7677,-2.6924,-2.6502,-2.6502,-2.547,-2.5029,-2.5214,-2.3196,-2.2335,-2.2578,-2.2016,-2.2031,-2.2513,-2.3254,-2.3667,-2.3891,-2.5385,-2.6057,-2.6178,-2.6971,-2.7299,-2.7299,-2.7299,-2.7713,-2.8299,-2.8299,-2.8765,-2.9506,-3.0231,-3.0006,-2.9541,-3.0334,-3.0575,-3.0713,-3.1386,-3.1627,-3.1696,-3.1696,-3.1748,-3.18,-3.18,-3.18,-3.18,-3.18,-3.18,-3.18,-3.18,-3.1196,-3.0404,-2.9414,-2.8798,-2.8334,-2.8078,-2.784,-2.7701,-2.7701,-2.7701,-2.742,-2.6694,-2.6399,-2.5949,-2.5178,-2.4522,-2.466,-2.5902,-2.6747,-2.7833,-2.9317,-2.9472,-3.0179,-3.1645,-3.1765,-3.2179,-3.3007,-3.3731,-3.449,-3.5301,-3.5973,-3.6301,-3.6301,-3.6301,-3.6301,-3.6301,-3.6301,-3.6301,-3.6422,-3.7956,-3.8629,-3.8836,-4.0302,-4.0888,-4.0888,-4.0888,-4.0888,-4.0888,-2.564,-2.5897,-2.6117,-2.6117,-2.6796,-2.731,-2.731,-2.8007,-2.8411,-2.8081,-2.8044,-2.8172,-2.8503,-2.8521,-2.865,-2.8957,-2.8994,-2.8994,-2.8994,-2.8705,-2.8521,-2.8521,-2.775,-2.7244,-2.7086,-2.6172,-2.5687,-2.5646,-2.4306,-2.3723,-2.3894,-2.3477,-2.3572,-2.4091,-2.4402,-2.4781,-2.5229,-2.585,-2.6385,-2.6851,-2.7161,-2.7558,-2.7954,-2.7954,-2.842,-2.9058,-2.9058,-2.9558,-3.0265,-3.0575,-3.0489,-3.0351,-3.111,-3.1351,-3.142,-3.1714,-3.18,-3.18,-3.18,-3.18,-3.18,-3.18,-3.18,-3.18,-3.18,-3.18,-3.18,-3.18,-3.0834,-2.9797,-2.9188,-2.8606,-2.8352,-2.8752,-2.8478,-2.8246,-2.8246,-2.8246,-2.804,-2.7556,-2.7381,-2.7046,-2.6433,-2.5661,-2.5643,-2.6747,-2.6264,-2.6764,-2.8747,-2.9265,-3.0006,-3.1093,-3.1558,-3.2145,-3.2904,-3.3697,-3.4456,-3.5197,-3.5956,-3.6301,-3.6301,-3.6301,-3.6301,-3.6301,-3.6301,-3.6301,-3.6422,-3.7956,-3.8594,-3.8732,-4.0284,-4.0888,-4.0888,-4.0888,-4.0888,-4.0888,-2.6612,-2.6796,-2.6961,-2.6961,-2.7622,-2.8154,-2.8154,-2.8631,-2.8994,-2.8994,-2.8994,-2.8994,-2.8994,-2.8994,-2.8994,-2.8994,-2.8994,-2.8994,-2.8994,-2.8994,-2.8994,-2.8994,-2.8466,-2.8022,-2.7761,-2.6964,-2.6405,-2.6114,-2.5255,-2.4889,-2.498,-2.4662,-2.4687,-2.5023,-2.5229,-2.5609,-2.6126,-2.635,-2.6902,-2.7609,-2.7609,-2.8075,-2.873,-2.873,-2.9196,-2.9851,-2.9851,-3.0351,-3.1007,-3.1007,-3.1007,-3.111,-3.1627,-3.18,-3.18,-3.18,-3.18,-3.18,-3.18,-3.18,-3.18,-3.18,-3.18,-3.18,-3.18,-3.18,-3.1731,-3.1524,-3.061,-2.9712,-2.9285,-2.8912,-2.8863,-2.9547,-2.9242,-2.8964,-2.8964,-2.8764,-2.8507,-2.8281,-2.796,-2.7677,-2.7448,-2.6591,-2.6533,-2.7678,-2.6536,-2.6632,-2.861,-2.923,-2.9972,-3.0989,-3.1524,-3.2041,-3.2576,-3.3576,-3.4352,-3.4887,-3.5835,-3.6301,-3.6301,-3.6301,-3.6301,-3.6301,-3.6301,-3.6422,-3.6749,-3.806,-3.8715,-3.9043,-4.0371,-4.0888,-4.0888,-4.0888,-4.0888,-4.0888,-2.6612,-2.7236,-2.7787,-2.7787,-2.8448,-2.8975,-2.8975,-2.8975,-2.8994,-2.8994,-2.8994,-2.8994,-2.8994,-2.8994,-2.8994,-2.8994,-2.8994,-2.8994,-2.8994,-2.8994,-2.8994,-2.8994,-2.8975,-2.8863,-2.8583,-2.781,-2.7229,-2.689,-2.5879,-2.5508,-2.5697,-2.5412,-2.5192,-2.504,-2.5764,-2.6109,-2.6161,-2.6954,-2.7713,-2.8385,-2.8385,-2.8834,-2.9489,-2.9489,-2.9989,-3.0679,-3.0679,-3.1145,-3.1783,-3.1783,-3.1783,-3.1783,-3.18,-3.18,-3.18,-3.18,-3.18,-3.18,-3.18,-3.18,-3.18,-3.18,-3.18,-3.18,-3.18,-3.18,-3.1593,-3.0851,-3.0696,-3.0525,-3.0062,-2.9983,-3.0092,-3.0434,-3.0088,-2.9797,-2.9797,-2.9109,-2.8601,-2.8601,-2.7669,-2.7201,-2.7643,-2.6615,-2.673,-2.8722,-2.8135,-2.8198,-2.9403,-2.9506,-3.0213,-3.1731,-3.18,-3.18,-3.18,-3.3317,-3.4093,-3.4111,-3.5594,-3.6301,-3.6301,-3.6301,-3.6301,-3.6301,-3.6301,-3.6749,-3.7525,-3.8284,-3.9026,-3.9767,-4.056,-4.0888,-4.0888,-4.0888,-4.0888,-4.0888,-2.8246,-2.8448,-2.8631,-2.8631,-2.881,-2.8994,-2.8994,-2.8994,-2.8994,-2.8994,-2.8994,-2.8994,-2.8994,-2.8994,-2.8994,-2.8994,-2.8994,-2.8994,-2.8994,-2.8994,-2.8994,-2.8994,-2.8815,-2.8576,-2.8281,-2.7816,-2.7553,-2.7459,-2.6588,-2.6174,-2.6229,-2.6163,-2.6289,-2.6575,-2.6816,-2.6919,-2.6971,-2.773,-2.8178,-2.8437,-2.8954,-2.9627,-3.0317,-3.0317,-3.0782,-3.1438,-3.1438,-3.1593,-3.18,-3.18,-3.18,-3.18,-3.18,-3.18,-3.18,-3.18,-3.18,-3.18,-3.18,-3.18,-3.18,-3.18,-3.18,-3.18,-3.18,-3.18,-3.1593,-3.0834,-3.0696,-3.0698,-3.0812,-3.0387,-3.0366,-3.1427,-3.0823,-3.0273,-3.0514,-2.9692,-2.8997,-2.8781,-2.7975,-2.7536,-2.7683,-2.7388,-2.7434,-2.8029,-2.8057,-2.8674,-3.0128,-3.051,-3.1003,-3.1709,-3.2003,-3.237,-3.2876,-3.3713,-3.4335,-3.4852,-3.5835,-3.6301,-3.6301,-3.6301,-3.6301,-3.6301,-3.6301,-3.6749,-3.7542,-3.8284,-3.9026,-3.9767,-4.0578,-4.0888,-4.0888,-4.0888,-4.0888,-4.0888,-2.8994,-2.8994,-2.8994,-2.8994,-2.8994,-2.8994,-2.8994,-2.8994,-2.8994,-2.8994,-2.8994,-2.8994,-2.8994,-2.8994,-2.8994,-2.8994,-2.8994,-2.8994,-2.8994,-2.8994,-2.897,-2.8858,-2.8694,-2.8549,-2.8362,-2.8311,-2.834,-2.8394,-2.7892,-2.7635,-2.7635,-2.7635,-2.7802,-2.8127,-2.8127,-2.8127,-2.8161,-2.8627,-2.8989,-2.9299,-2.9765,-3.042,-3.111,-3.111,-3.1386,-3.18,-3.18,-3.18,-3.1834,-3.211,-3.2214,-3.2265,-3.2559,-3.2645,-3.2541,-3.1972,-3.18,-3.18,-3.18,-3.18,-3.18,-3.18,-3.18,-3.18,-3.18,-3.18,-3.1662,-3.1196,-3.111,-3.1165,-3.1394,-3.1129,-3.1167,-3.2023,-3.1421,-3.0903,-3.1128,-3.0445,-2.9722,-2.92,-2.9119,-2.8915,-2.8536,-2.8889,-2.9221,-2.9383,-2.9572,-3.0278,-3.1671,-3.1248,-3.1292,-3.2094,-3.237,-3.2857,-3.36,-3.4082,-3.4675,-3.5422,-3.6022,-3.6301,-3.6301,-3.6301,-3.6301,-3.6301,-3.6301,-3.6904,-3.7939,-3.8405,-3.9198,-4.0198,-4.0681,-4.0888,-4.0888,-4.0888,-4.0888,-4.0888,-2.9017,-2.9017,-2.8994,-2.8994,-2.8994,-2.8994,-2.8994,-2.9049,-2.9067,-2.9067,-2.9122,-2.9159,-2.9159,-2.9159,-2.9159,-2.9159,-2.9104,-2.9104,-2.914,-2.9159,-2.9046,-2.8764,-2.8739,-2.8775,-2.8895,-2.9154,-2.9374,-2.9506,-2.9506,-2.9506,-2.9506,-2.9506,-2.9506,-2.9506,-2.9506,-2.9506,-2.9506,-2.9558,-3.0024,-3.0696,-3.0748,-3.1179,-3.18,-3.18,-3.1834,-3.1869,-3.1869,-3.1903,-3.2059,-3.2748,-3.299,-3.311,-3.3852,-3.4093,-3.38,-3.2369,-3.1921,-3.1869,-3.1869,-3.1834,-3.18,-3.18,-3.18,-3.18,-3.18,-3.18,-3.18,-3.18,-3.18,-3.18,-3.18,-3.2055,-3.2283,-3.2283,-3.1903,-3.16,-3.1649,-3.1195,-3.0612,-2.9855,-3.0646,-3.0888,-2.9908,-3.0797,-3.1597,-3.2063,-3.2117,-3.2592,-3.3633,-3.1805,-3.141,-3.2894,-3.2948,-3.3327,-3.4199,-3.4553,-3.5109,-3.5864,-3.6186,-3.6343,-3.6301,-3.6301,-3.6301,-3.6301,-3.6353,-3.7232,-3.8594,-3.8646,-3.9543,-4.0888,-4.0888,-4.0888,-4.0888,-4.0888,-4.0888,-4.0888,-2.9085,-2.904,-2.8994,-2.8994,-2.8994,-2.8994,-2.8994,-2.9531,-2.9934,-2.9934,-3.0448,-3.0834,-3.0834,-3.0834,-3.0834,-3.0834,-3.0265,-3.0173,-3.0797,-3.0834,-3.0691,-3.036,-3.0168,-2.9941,-2.9706,-2.9545,-2.9485,-2.9506,-2.9506,-2.9506,-2.9506,-2.9506,-2.9506,-2.9506,-2.9506,-2.9506,-2.9541,-3.0162,-3.0524,-3.0748,-3.13,-3.1645,-3.18,-3.18,-3.2145,-3.2645,-3.2645,-3.3024,-3.3576,-3.3749,-3.3818,-3.3835,-3.4024,-3.4093,-3.4007,-3.3645,-3.311,-3.2645,-3.2645,-3.2231,-3.18,-3.18,-3.18,-3.18,-3.18,-3.18,-3.18,-3.18,-3.18,-3.18,-3.18,-3.1856,-3.1984,-3.2249,-3.2004,-3.1847,-3.2105,-3.132,-3.0677,-3.0503,-3.0149,-2.9945,-2.9942,-3.0981,-3.1415,-3.0933,-3.1883,-3.251,-3.2574,-3.2848,-3.3487,-3.4444,-3.4238,-3.4785,-3.6212,-3.604,-3.6218,-3.6636,-3.6694,-3.6597,-3.6301,-3.6301,-3.6301,-3.6335,-3.6939,-3.7732,-3.8629,-3.9198,-4.0008,-4.0888,-4.0888,-4.0888,-4.0888,-4.0888,-4.0888,-4.0888,-2.9108,-2.9085,-2.915,-2.9494,-2.9232,-2.9104,-2.9494,-2.9934,-3.021,-3.021,-3.0889,-3.1384,-3.1384,-3.1384,-3.1549,-3.1916,-3.1219,-3.0925,-3.1366,-3.1384,-3.1206,-3.0725,-3.0599,-3.0429,-3.0331,-3.0145,-3.0213,-3.0558,-3.0558,-3.0558,-3.0558,-3.0558,-3.0558,-3.0558,-3.0558,-3.0558,-3.0575,-3.1007,-3.1196,-3.1231,-3.1627,-3.199,-3.23,-3.23,-3.2783,-3.3438,-3.3438,-3.3714,-3.4145,-3.4473,-3.4594,-3.4645,-3.499,-3.5111,-3.5111,-3.5111,-3.4318,-3.3369,-3.3007,-3.261,-3.2214,-3.1886,-3.18,-3.18,-3.18,-3.18,-3.18,-3.18,-3.18,-3.18,-3.18,-3.18,-3.1856,-3.202,-3.1929,-3.1856,-3.2055,-3.1707,-3.1289,-3.0942,-3.0973,-3.0994,-3.0955,-3.1724,-3.2163,-3.2014,-3.2574,-3.2912,-3.2931,-3.3835,-3.4559,-3.4972,-3.5195,-3.5921,-3.7179,-3.7169,-3.7095,-3.69,-3.69,-3.6799,-3.6557,-3.6367,-3.6409,-3.6609,-3.7214,-3.7905,-3.8646,-3.9388,-4.0164,-4.0888,-4.0888,-4.0888,-4.0888,-4.0888,-4.0888,-4.0888,-2.9152,-2.9112,-2.931,-2.9945,-2.9572,-2.9444,-3.0123,-3.0436,-3.0558,-3.0558,-3.1256,-3.1751,-3.1751,-3.1751,-3.2045,-3.2724,-3.2155,-3.1751,-3.1751,-3.1751,-3.15,-3.088,-3.085,-3.0861,-3.0887,-3.0869,-3.1162,-3.18,-3.18,-3.18,-3.18,-3.18,-3.18,-3.18,-3.18,-3.18,-3.18,-3.1921,-3.1972,-3.1972,-3.2093,-3.2524,-3.3076,-3.3076,-3.3559,-3.4249,-3.4249,-3.4335,-3.4525,-3.5145,-3.537,-3.5473,-3.6094,-3.6301,-3.6301,-3.6301,-3.5404,-3.4249,-3.3455,-3.3179,-3.2904,-3.2145,-3.1972,-3.1938,-3.1817,-3.18,-3.18,-3.18,-3.18,-3.18,-3.18,-3.18,-3.18,-3.18,-3.18,-3.18,-3.18,-3.2055,-3.1969,-3.1288,-3.2047,-3.2513,-3.208,-3.2465,-3.2983,-3.3606,-3.3379,-3.3462,-3.3945,-3.4687,-3.52,-3.5357,-3.6101,-3.6853,-3.7661,-3.8022,-3.7809,-3.6978,-3.6978,-3.6978,-3.69,-3.6492,-3.6533,-3.6913,-3.7446,-3.8008,-3.8663,-3.9526,-4.0267,-4.0888,-4.0888,-4.0888,-4.0888,-4.0888,-4.0888,-4.0888,-2.928,-2.9218,-2.9215,-2.9322,-2.9802,-3.0226,-3.0268,-3.1421,-3.2279,-3.2228,-3.2926,-3.3421,-3.3421,-3.3421,-3.3476,-3.3605,-3.3495,-3.3421,-3.3421,-3.3421,-3.314,-3.2469,-3.2438,-3.2186,-3.1647,-3.1627,-3.1679,-3.18,-3.18,-3.18,-3.18,-3.18,-3.18,-3.18,-3.18,-3.18,-3.1834,-3.2455,-3.2731,-3.28,-3.3455,-3.38,-3.3904,-3.3904,-3.4369,-3.5025,-3.5025,-3.5421,-3.5973,-3.6094,-3.6128,-3.6146,-3.6266,-3.6301,-3.6301,-3.6301,-3.6146,-3.5801,-3.5042,-3.4387,-3.3714,-3.2938,-3.2731,-3.2576,-3.1938,-3.18,-3.18,-3.18,-3.18,-3.18,-3.18,-3.18,-3.18,-3.18,-3.18,-3.18,-3.18,-3.1819,-3.1821,-3.17,-3.186,-3.1949,-3.1846,-3.2179,-3.2537,-3.2921,-3.289,-3.3442,-3.4724,-3.5319,-3.6055,-3.7074,-3.7221,-3.7698,-3.8505,-3.8572,-3.8219,-3.7432,-3.7432,-3.7246,-3.69,-3.6492,-3.6533,-3.6948,-3.8001,-3.8474,-3.8698,-4.0112,-4.0767,-4.0888,-4.0888,-4.0888,-4.0888,-4.0888,-4.0888,-4.0888,-2.9302,-2.9262,-2.9329,-2.9769,-3.029,-3.0734,-3.0983,-3.1968,-3.2672,-3.2665,-3.3319,-3.3807,-3.3807,-3.3807,-3.3807,-3.3807,-3.3807,-3.3807,-3.3807,-3.3807,-3.3578,-3.3093,-3.2908,-3.2486,-3.18,-3.18,-3.18,-3.18,-3.18,-3.18,-3.18,-3.18,-3.18,-3.18,-3.18,-3.2024,-3.2421,-3.2766,-3.3145,-3.3576,-3.3938,-3.4335,-3.468,-3.468,-3.5145,-3.5783,-3.5783,-3.6008,-3.6301,-3.6301,-3.6301,-3.6301,-3.6301,-3.6301,-3.6301,-3.6301,-3.6025,-3.5628,-3.5283,-3.4645,-3.4007,-3.3628,-3.3214,-3.2817,-3.2472,-3.2093,-3.18,-3.18,-3.18,-3.18,-3.18,-3.18,-3.1921,-3.2334,-3.2059,-3.1938,-3.2334,-3.2041,-3.18,-3.18,-3.18,-3.1856,-3.2055,-3.2055,-3.2231,-3.2763,-3.2619,-3.3105,-3.4388,-3.5069,-3.5879,-3.6823,-3.7698,-3.8131,-3.805,-3.8252,-3.7948,-3.717,-3.7395,-3.7283,-3.69,-3.6719,-3.6701,-3.6948,-3.8122,-3.8594,-3.8715,-4.025,-4.0888,-4.0888,-4.0888,-4.0888,-4.0888,-4.0888,-4.0888,-4.0888,-2.9344,-2.9265,-2.9502,-3.0313,-3.0798,-3.1302,-3.1824,-3.2533,-3.3025,-3.2999,-3.35,-3.386,-3.386,-3.3815,-3.3815,-3.3815,-3.3807,-3.3807,-3.3807,-3.3807,-3.3652,-3.3302,-3.3001,-3.2519,-3.1929,-3.1929,-3.1856,-3.18,-3.18,-3.18,-3.18,-3.18,-3.1886,-3.2059,-3.2059,-3.2472,-3.3197,-3.3369,-3.3783,-3.4352,-3.4525,-3.4938,-3.5456,-3.5456,-3.5801,-3.6301,-3.6301,-3.6301,-3.6301,-3.6301,-3.6301,-3.6301,-3.6301,-3.6301,-3.6301,-3.6301,-3.5904,-3.5456,-3.5456,-3.5025,-3.4559,-3.4387,-3.3749,-3.3128,-3.2938,-3.2334,-3.18,-3.18,-3.18,-3.18,-3.18,-3.1938,-3.2179,-3.2576,-3.2317,-3.2179,-3.2593,-3.2162,-3.18,-3.18,-3.18,-3.1893,-3.2161,-3.1965,-3.2055,-3.2651,-3.2527,-3.2984,-3.4225,-3.494,-3.5723,-3.656,-3.7794,-3.8135,-3.7505,-3.7809,-3.7614,-3.69,-3.719,-3.7208,-3.69,-3.6991,-3.7101,-3.7229,-3.8382,-3.8853,-3.8957,-4.0319,-4.0888,-4.0888,-4.0888,-4.0888,-4.0888,-4.0888,-4.0888,-4.0888,-2.9386,-2.9386,-2.9628,-3.0445,-3.1225,-3.1982,-3.2691,-3.3488,-3.3981,-3.3906,-3.3961,-3.3998,-3.3998,-3.3921,-3.3895,-3.3895,-3.386,-3.3807,-3.3807,-3.3807,-3.3652,-3.3302,-3.3001,-3.2619,-3.2283,-3.2249,-3.2126,-3.18,-3.18,-3.18,-3.18,-3.18,-3.2162,-3.2817,-3.2817,-3.3266,-3.4042,-3.4731,-3.5059,-3.518,-3.5852,-3.6163,-3.6215,-3.6215,-3.6249,-3.6301,-3.6301,-3.6301,-3.6301,-3.6301,-3.6301,-3.6301,-3.6301,-3.6301,-3.6301,-3.6301,-3.6266,-3.6215,-3.6215,-3.618,-3.5973,-3.5283,-3.4542,-3.3818,-3.3076,-3.2334,-3.18,-3.18,-3.18,-3.18,-3.18,-3.2352,-3.261,-3.1972,-3.2403,-3.261,-3.1972,-3.1834,-3.18,-3.18,-3.18,-3.18,-3.1819,-3.18,-3.1965,-3.2318,-3.2663,-3.3504,-3.5044,-3.5526,-3.6249,-3.7398,-3.7506,-3.7578,-3.7505,-3.7542,-3.7321,-3.69,-3.6939,-3.6939,-3.6917,-3.7297,-3.7669,-3.807,-3.9136,-3.9612,-3.9681,-4.0526,-4.0888,-4.0888,-4.0888,-4.0888,-4.0888,-4.0888,-4.0888,-4.0888,-2.9407,-2.9407,-2.9649,-3.0466,-3.1541,-3.2451,-3.2892,-3.3605,-3.4099,-3.4074,-3.4023,-3.3998,-3.3998,-3.3972,-3.3972,-3.3972,-3.3947,-3.3921,-3.3921,-3.3895,-3.3689,-3.3321,-3.3184,-3.2952,-3.2619,-3.2403,-3.2249,-3.2126,-3.1893,-3.2024,-3.2472,-3.2472,-3.2904,-3.3628,-3.3628,-3.4059,-3.4783,-3.5076,-3.5456,-3.5904,-3.6197,-3.6301,-3.6301,-3.6301,-3.6301,-3.6301,-3.6301,-3.6301,-3.6301,-3.6301,-3.6301,-3.6301,-3.6301,-3.6301,-3.6301,-3.6301,-3.6301,-3.6301,-3.6301,-3.6301,-3.6232,-3.5956,-3.5318,-3.4576,-3.3818,-3.3041,-3.2352,-3.1886,-3.18,-3.18,-3.18,-3.2024,-3.2283,-3.2455,-3.2334,-3.2283,-3.2455,-3.2093,-3.18,-3.18,-3.18,-3.18,-3.18,-3.18,-3.2046,-3.2607,-3.2807,-3.3592,-3.5095,-3.5779,-3.6301,-3.6741,-3.7017,-3.7132,-3.7132,-3.7614,-3.7542,-3.69,-3.7152,-3.7132,-3.6917,-3.758,-3.784,-3.7801,-3.9133,-3.9698,-3.975,-4.056,-4.0888,-4.0888,-4.0888,-4.0888,-4.0888,-4.0888,-4.0888,-4.0888,-2.9407,-2.9611,-3.0039,-3.0857,-3.1949,-3.2878,-3.3305,-3.382,-3.4124,-3.4124,-3.4099,-3.4074,-3.4074,-3.4049,-3.4023,-3.4023,-3.4023,-3.3998,-3.3998,-3.3947,-3.3788,-3.3465,-3.3465,-3.3302,-3.2952,-3.2619,-3.247,-3.247,-3.2109,-3.2347,-3.3075,-3.3075,-3.3554,-3.4438,-3.4438,-3.4893,-3.5583,-3.5583,-3.5877,-3.636,-3.6402,-3.6402,-3.636,-3.6402,-3.6444,-3.6402,-3.6402,-3.6343,-3.636,-3.6301,-3.6301,-3.6301,-3.6301,-3.6301,-3.6301,-3.6301,-3.6301,-3.6301,-3.6301,-3.6301,-3.6301,-3.6301,-3.5749,-3.5059,-3.4542,-3.3645,-3.2766,-3.2248,-3.1955,-3.18,-3.18,-3.199,-3.2231,-3.2507,-3.2317,-3.2231,-3.2524,-3.211,-3.18,-3.18,-3.18,-3.18,-3.18,-3.2007,-3.2352,-3.2869,-3.3352,-3.418,-3.5473,-3.6132,-3.6574,-3.6678,-3.7055,-3.7208,-3.7094,-3.7505,-3.7505,-3.7094,-3.7132,-3.7179,-3.7303,-3.7947,-3.8225,-3.8249,-3.9526,-4.0077,-4.0112,-4.0664,-4.0888,-4.0888,-4.0888,-4.0888,-4.0888,-4.0888,-4.0888,-4.0888,-2.9407,-3.0039,-3.0857,-3.1652,-3.2451,-3.325,-3.4067,-3.4197,-3.4197,-3.4197,-3.4197,-3.4197,-3.4197,-3.4148,-3.4099,-3.4099,-3.4049,-3.3998,-3.3998,-3.3998,-3.3947,-3.3788,-3.3807,-3.3634,-3.3321,-3.3001,-3.2795,-3.2795,-3.247,-3.2687,-3.3423,-3.3423,-3.4042,-3.5197,-3.5197,-3.5711,-3.6502,-3.6502,-3.6502,-3.6502,-3.6643,-3.6602,-3.6502,-3.6643,-3.6702,-3.6702,-3.6544,-3.6502,-3.6502,-3.636,-3.6301,-3.6301,-3.6301,-3.6301,-3.6301,-3.6301,-3.6301,-3.6301,-3.6301,-3.6301,-3.6301,-3.6301,-3.5749,-3.5197,-3.5197,-3.4024,-3.2921,-3.2921,-3.2317,-3.18,-3.18,-3.2403,-3.2645,-3.1921,-3.2403,-3.2645,-3.1903,-3.18,-3.18,-3.18,-3.18,-3.18,-3.18,-3.2472,-3.2904,-3.2904,-3.4335,-3.5525,-3.6266,-3.6678,-3.7094,-3.7469,-3.7879,-3.7913,-3.7505,-3.7132,-3.7132,-3.7505,-3.6678,-3.695,-3.8088,-3.8452,-3.8991,-3.9733,-4.0543,-4.0888,-4.0888,-4.0888,-4.0888,-4.0888,-4.0888,-4.0888,-4.0888,-4.0888,-4.0888,-4.0888,-2.9407,-2.9593,-3.0206,-3.1541,-3.1987,-3.2618,-3.3993,-3.4197,-3.4197,-3.4197,-3.4197,-3.4197,-3.4197,-3.4023,-3.3972,-3.4148,-3.3752,-3.3494,-3.3437,-3.3652,-3.3753,-3.3671,-3.3788,-3.3788,-3.3652,-3.3302,-3.3154,-3.3154,-3.3101,-3.3476,-3.4265,-3.4828,-3.5542,-3.6369,-3.6369,-3.6549,-3.6759,-3.6468,-3.6343,-3.6343,-3.6402,-3.6402,-3.6343,-3.6402,-3.6502,-3.6544,-3.6502,-3.6544,-3.6643,-3.6602,-3.6602,-3.6602,-3.6602,-3.6502,-3.6444,-3.6444,-3.6343,-3.6301,-3.6301,-3.6301,-3.6301,-3.6301,-3.6128,-3.5835,-3.5318,-3.4835,-3.4369,-3.3835,-3.311,-3.2576,-3.2576,-3.2334,-3.2059,-3.1834,-3.1972,-3.2041,-3.1834,-3.18,-3.18,-3.18,-3.18,-3.18,-3.18,-3.2472,-3.3128,-3.3697,-3.5128,-3.6059,-3.6284,-3.6409,-3.6516,-3.6638,-3.7055,-3.7208,-3.7094,-3.7505,-3.7505,-3.7094,-3.6821,-3.7218,-3.8088,-3.8452,-3.8991,-3.9733,-4.0543,-4.0888,-4.0888,-4.0888,-4.0888,-4.0888,-4.0888,-4.0888,-4.0888,-4.0888,-4.0888,-4.0888,-2.9407,-2.9909,-3.0671,-3.1615,-3.2321,-3.2971,-3.3621,-3.3993,-3.4086,-3.377,-3.3993,-3.4197,-3.4197,-3.4049,-3.3972,-3.4049,-3.3606,-3.335,-3.3426,-3.3512,-3.3512,-3.3444,-3.3569,-3.3689,-3.3868,-3.3532,-3.3447,-3.3578,-3.3836,-3.4173,-3.4603,-3.5758,-3.6398,-3.6653,-3.6837,-3.6956,-3.6956,-3.655,-3.6402,-3.6385,-3.6444,-3.6444,-3.6385,-3.6444,-3.6544,-3.6626,-3.6585,-3.6643,-3.6725,-3.6702,-3.6702,-3.6702,-3.6702,-3.6643,-3.6602,-3.6602,-3.6485,-3.6402,-3.6402,-3.6343,-3.6301,-3.6301,-3.6301,-3.618,-3.5732,-3.5404,-3.499,-3.4231,-3.3697,-3.3283,-3.2955,-3.2541,-3.2231,-3.2231,-3.199,-3.1903,-3.2179,-3.1972,-3.2024,-3.2628,-3.2421,-3.2352,-3.2679,-3.3369,-3.4128,-3.4904,-3.5801,-3.6301,-3.6301,-3.6301,-3.6367,-3.6516,-3.6781,-3.69,-3.69,-3.7377,-3.7469,-3.7114,-3.6821,-3.7335,-3.8526,-3.859,-3.9163,-4.0198,-4.0664,-4.0888,-4.0888,-4.0888,-4.0888,-4.0888,-4.0888,-4.0888,-4.0888,-4.0888,-4.0888,-4.0888,-2.9407,-3.0652,-3.1708,-3.1782,-3.3008,-3.3788,-3.3194,-3.3658,-3.3863,-3.3175,-3.3751,-3.4197,-3.4197,-3.4173,-3.4074,-3.3815,-3.3465,-3.3379,-3.3707,-3.3437,-3.3232,-3.319,-3.319,-3.3437,-3.3947,-3.3643,-3.3616,-3.3921,-3.4485,-3.4684,-3.4601,-3.624,-3.6772,-3.6381,-3.6816,-3.7094,-3.7167,-3.6713,-3.6527,-3.6527,-3.6643,-3.6602,-3.6502,-3.6602,-3.6725,-3.6788,-3.6684,-3.6725,-3.6788,-3.6725,-3.6702,-3.6702,-3.6702,-3.6702,-3.6702,-3.6702,-3.6602,-3.6502,-3.6502,-3.6402,-3.6301,-3.6301,-3.6301,-3.6301,-3.6301,-3.5783,-3.5111,-3.4421,-3.4231,-3.3955,-3.3231,-3.3059,-3.3007,-3.3007,-3.2438,-3.2231,-3.2904,-3.2421,-3.2524,-3.3921,-3.3455,-3.33,-3.4007,-3.4766,-3.5508,-3.6232,-3.6301,-3.6301,-3.6301,-3.6301,-3.6451,-3.6821,-3.686,-3.686,-3.686,-3.686,-3.7017,-3.7377,-3.6638,-3.7307,-3.9151,-3.8755,-3.9422,-4.0888,-4.0888,-4.0888,-4.0888,-4.0888,-4.0888,-4.0888,-4.0888,-4.0888,-4.0888,-4.0888,-4.0888,-4.0888,-2.9407,-3.0206,-3.1061,-3.1671,-3.208,-3.2692,-3.377,-3.3547,-3.3417,-3.3881,-3.4086,-3.4197,-3.4197,-3.4023,-3.3868,-3.3807,-3.3273,-3.2921,-3.3014,-3.2952,-3.289,-3.2908,-3.3124,-3.335,-3.3465,-3.328,-3.322,-3.3309,-3.3996,-3.4312,-3.4348,-3.6204,-3.703,-3.6953,-3.7667,-3.7995,-3.7911,-3.719,-3.686,-3.6799,-3.6509,-3.636,-3.636,-3.6402,-3.6444,-3.6585,-3.6544,-3.6643,-3.6725,-3.6702,-3.6725,-3.6788,-3.6788,-3.6788,-3.6788,-3.6788,-3.6667,-3.6502,-3.6502,-3.6402,-3.6301,-3.6301,-3.6301,-3.6301,-3.6301,-3.618,-3.6025,-3.5852,-3.5352,-3.4904,-3.4731,-3.4214,-3.3835,-3.3835,-3.3697,-3.3645,-3.3818,-3.368,-3.3714,-3.4042,-3.3938,-3.3904,-3.4059,-3.4766,-3.5508,-3.6232,-3.6301,-3.6301,-3.6301,-3.6301,-3.6343,-3.6409,-3.6409,-3.6409,-3.6409,-3.6409,-3.6492,-3.6557,-3.6367,-3.7137,-3.8711,-3.8622,-3.9422,-4.0888,-4.0888,-4.0888,-4.0888,-4.0888,-4.0888,-4.0888,-4.0888,-4.0888,-4.0888,-4.0888,-4.0888,-4.0888,-2.9407,-3.0057,-3.0745,-3.1154,-3.1857,-3.2525,-3.299,-3.3343,-3.3584,-3.3621,-3.3956,-3.4197,-3.4197,-3.4074,-3.3998,-3.3998,-3.3419,-3.3124,-3.3273,-3.3124,-3.297,-3.2795,-3.297,-3.3001,-3.288,-3.3158,-3.3452,-3.3767,-3.4329,-3.4758,-3.5144,-3.6698,-3.7404,-3.7411,-3.8026,-3.8277,-3.8212,-3.756,-3.7248,-3.719,-3.6741,-3.6597,-3.6574,-3.6367,-3.6402,-3.6502,-3.6502,-3.6602,-3.6702,-3.6702,-3.6725,-3.6766,-3.6788,-3.6788,-3.6811,-3.6869,-3.6788,-3.665,-3.665,-3.6527,-3.6402,-3.6402,-3.636,-3.6301,-3.6301,-3.6301,-3.6197,-3.5852,-3.5749,-3.5611,-3.5249,-3.4869,-3.4611,-3.4611,-3.4318,-3.4214,-3.4576,-3.43,-3.4352,-3.5059,-3.4835,-3.4749,-3.5111,-3.549,-3.587,-3.6266,-3.6301,-3.6301,-3.6301,-3.6301,-3.6301,-3.6301,-3.6301,-3.6301,-3.6301,-3.6301,-3.649,-3.687,-3.687,-3.7473,-3.8594,-3.8957,-3.9767,-4.0888,-4.0888,-4.0888,-4.0888,-4.0888,-4.0888,-4.0888,-4.0888,-4.0888,-4.0888,-4.0888,-4.0888,-4.0888,-2.9407,-3.0057,-3.0615,-3.0615,-3.1819,-3.2618,-3.208,-3.3138,-3.3788,-3.3268,-3.3788,-3.4197,-3.4197,-3.4173,-3.4148,-3.4197,-3.3643,-3.3437,-3.378,-3.3494,-3.3184,-3.2908,-3.2908,-3.287,-3.2769,-3.33,-3.3841,-3.433,-3.4793,-3.533,-3.5933,-3.7114,-3.7634,-3.7671,-3.8138,-3.8373,-3.8373,-3.7928,-3.7685,-3.7578,-3.7114,-3.6917,-3.6838,-3.6468,-3.6402,-3.6502,-3.6444,-3.6544,-3.6643,-3.6643,-3.6643,-3.6684,-3.6748,-3.6748,-3.6788,-3.6908,-3.6869,-3.6788,-3.6788,-3.6667,-3.6544,-3.6502,-3.6402,-3.6343,-3.6301,-3.6301,-3.6128,-3.5508,-3.587,-3.6111,-3.549,-3.5387,-3.5387,-3.5387,-3.4869,-3.468,-3.5301,-3.4852,-3.4921,-3.6146,-3.5766,-3.5628,-3.6232,-3.6301,-3.6301,-3.6301,-3.6301,-3.6301,-3.6301,-3.6301,-3.6301,-3.6301,-3.6301,-3.6301,-3.6301,-3.6301,-3.6697,-3.7491,-3.7611,-3.806,-3.8801,-3.9422,-4.0129,-4.0888,-4.0888,-4.0888,-4.0888,-4.0888,-4.0888,-4.0888,-4.0888,-4.0888,-4.0888,-4.0888,-4.0888,-4.0888,-2.9407,-3.0057,-3.0615,-3.0615,-3.1377,-3.2154,-3.2748,-3.3008,-3.3361,-3.3956,-3.4123,-3.4197,-3.4197,-3.3998,-3.3947,-3.4173,-3.3643,-3.3437,-3.378,-3.3494,-3.3291,-3.3214,-3.3214,-3.3539,-3.4194,-3.402,-3.3825,-3.3653,-3.4617,-3.5126,-3.5252,-3.6407,-3.7111,-3.7459,-3.823,-3.8688,-3.8873,-3.8468,-3.8096,-3.7756,-3.7321,-3.6992,-3.6725,-3.6544,-3.6485,-3.6485,-3.636,-3.6343,-3.6343,-3.6343,-3.6444,-3.6544,-3.6544,-3.6643,-3.6742,-3.6742,-3.6742,-3.6684,-3.6684,-3.6684,-3.6643,-3.6544,-3.6502,-3.6444,-3.6343,-3.6301,-3.6266,-3.6163,-3.6232,-3.6266,-3.6163,-3.6146,-3.6146,-3.6146,-3.6059,-3.6042,-3.6146,-3.6059,-3.6077,-3.6284,-3.6215,-3.6197,-3.6284,-3.6301,-3.6301,-3.6301,-3.6301,-3.6301,-3.6301,-3.6301,-3.6301,-3.6301,-3.6301,-3.6301,-3.6301,-3.6301,-3.6697,-3.7491,-3.8129,-3.8836,-3.9543,-3.9646,-4.0129,-4.0888,-4.0888,-4.0888,-4.0888,-4.0888,-4.0888,-4.0888,-4.0888,-4.0888,-4.0888,-4.0888,-4.0888,-4.0888,-2.9983,-3.0002,-3.0076,-3.0522,-3.1284,-3.1912,-3.2265,-3.3083,-3.3788,-3.4141,-3.4197,-3.4197,-3.4197,-3.4099,-3.4074,-3.4197,-3.3954,-3.3876,-3.4023,-3.3876,-3.3743,-3.3597,-3.3597,-3.3658,-3.3828,-3.456,-3.4784,-3.4393,-3.4869,-3.5544,-3.6453,-3.669,-3.7138,-3.7822,-3.815,-3.8378,-3.8491,-3.8212,-3.8029,-3.7808,-3.7395,-3.7091,-3.6891,-3.6626,-3.6444,-3.6402,-3.6301,-3.6301,-3.6301,-3.6301,-3.6343,-3.6402,-3.6502,-3.6544,-3.6602,-3.6702,-3.6702,-3.6702,-3.6766,-3.6725,-3.6702,-3.6643,-3.6561,-3.6444,-3.6343,-3.6301,-3.6301,-3.6301,-3.6301,-3.6301,-3.6301,-3.6301,-3.6301,-3.6301,-3.6301,-3.6301,-3.6301,-3.6301,-3.6301,-3.6301,-3.6301,-3.6301,-3.6301,-3.6301,-3.6301,-3.6301,-3.6301,-3.6301,-3.6301,-3.6301,-3.6301,-3.6301,-3.6301,-3.6301,-3.6301,-3.6301,-3.6904,-3.8112,-3.8439,-3.8974,-3.9715,-4.0164,-4.0543,-4.0888,-4.0888,-4.0888,-4.0888,-4.0888,-4.0888,-4.0888,-4.0888,-4.0888,-4.0888,-4.0888,-4.0888,-4.0888]}]]